﻿<?xml version="1.0" encoding="utf-8"?><gpx creator="Garmin Desktop App" version="1.1" xsi:schemaLocation="http://www.topografix.com/GPX/1/1 http://www.topografix.com/GPX/1/1/gpx.xsd http://www.garmin.com/xmlschemas/WaypointExtension/v1 http://www8.garmin.com/xmlschemas/WaypointExtensionv1.xsd http://www.garmin.com/xmlschemas/TrackPointExtension/v1 http://www.garmin.com/xmlschemas/TrackPointExtensionv1.xsd http://www.garmin.com/xmlschemas/GpxExtensions/v3 http://www8.garmin.com/xmlschemas/GpxExtensionsv3.xsd http://www.garmin.com/xmlschemas/ActivityExtension/v1 http://www8.garmin.com/xmlschemas/ActivityExtensionv1.xsd http://www.garmin.com/xmlschemas/AdventuresExtensions/v1 http://www8.garmin.com/xmlschemas/AdventuresExtensionv1.xsd http://www.garmin.com/xmlschemas/PressureExtension/v1 http://www.garmin.com/xmlschemas/PressureExtensionv1.xsd http://www.garmin.com/xmlschemas/TripExtensions/v1 http://www.garmin.com/xmlschemas/TripExtensionsv1.xsd http://www.garmin.com/xmlschemas/TripMetaDataExtensions/v1 http://www.garmin.com/xmlschemas/TripMetaDataExtensionsv1.xsd http://www.garmin.com/xmlschemas/ViaPointTransportationModeExtensions/v1 http://www.garmin.com/xmlschemas/ViaPointTransportationModeExtensionsv1.xsd http://www.garmin.com/xmlschemas/CreationTimeExtension/v1 http://www.garmin.com/xmlschemas/CreationTimeExtensionsv1.xsd http://www.garmin.com/xmlschemas/AccelerationExtension/v1 http://www.garmin.com/xmlschemas/AccelerationExtensionv1.xsd http://www.garmin.com/xmlschemas/PowerExtension/v1 http://www.garmin.com/xmlschemas/PowerExtensionv1.xsd http://www.garmin.com/xmlschemas/VideoExtension/v1 http://www.garmin.com/xmlschemas/VideoExtensionv1.xsd" xmlns="http://www.topografix.com/GPX/1/1" xmlns:xsi="http://www.w3.org/2001/XMLSchema-instance" xmlns:wptx1="http://www.garmin.com/xmlschemas/WaypointExtension/v1" xmlns:gpxtrx="http://www.garmin.com/xmlschemas/GpxExtensions/v3" xmlns:gpxtpx="http://www.garmin.com/xmlschemas/TrackPointExtension/v1" xmlns:gpxx="http://www.garmin.com/xmlschemas/GpxExtensions/v3" xmlns:trp="http://www.garmin.com/xmlschemas/TripExtensions/v1" xmlns:adv="http://www.garmin.com/xmlschemas/AdventuresExtensions/v1" xmlns:prs="http://www.garmin.com/xmlschemas/PressureExtension/v1" xmlns:tmd="http://www.garmin.com/xmlschemas/TripMetaDataExtensions/v1" xmlns:vptm="http://www.garmin.com/xmlschemas/ViaPointTransportationModeExtensions/v1" xmlns:ctx="http://www.garmin.com/xmlschemas/CreationTimeExtension/v1" xmlns:gpxacc="http://www.garmin.com/xmlschemas/AccelerationExtension/v1" xmlns:gpxpx="http://www.garmin.com/xmlschemas/PowerExtension/v1" xmlns:vidx1="http://www.garmin.com/xmlschemas/VideoExtension/v1">

  <metadata>
    <link href="http://www.garmin.com">
      <text>Garmin International</text>
    </link>
    <time>2024-02-22T09:27:17Z</time>
    <bounds maxlat="50.705668777227402" maxlon="6.307266801595688" minlat="50.661768307909369" minlon="6.106192655861378" />
  </metadata>

  <trk>
    <name>Res Eur2 Rattenhaus dartsch</name>
    <extensions>
      <gpxx:TrackExtension>
        <gpxx:DisplayColor>Red</gpxx:DisplayColor>
      </gpxx:TrackExtension>
    </extensions>
    <trkseg>
      <trkpt lat="50.680908635258675" lon="6.307266801595688">
        <ele>499.54000000000002</ele>
        <time>2013-07-15T08:18:30Z</time>
      </trkpt>
      <trkpt lat="50.680932523682714" lon="6.307205865159631">
        <ele>499.54000000000002</ele>
        <time>2013-07-15T08:18:43Z</time>
      </trkpt>
      <trkpt lat="50.680935541167855" lon="6.30720192566514">
        <ele>499.54000000000002</ele>
        <time>2013-07-15T08:18:58Z</time>
      </trkpt>
      <trkpt lat="50.680936463177204" lon="6.30718088708818">
        <ele>499.54000000000002</ele>
        <time>2013-07-15T08:19:01Z</time>
      </trkpt>
      <trkpt lat="50.680965548381209" lon="6.307020876556635">
        <ele>499.06</ele>
        <time>2013-07-15T08:19:13Z</time>
      </trkpt>
      <trkpt lat="50.680968817323446" lon="6.306899255141616">
        <ele>499.06</ele>
        <time>2013-07-15T08:19:18Z</time>
      </trkpt>
      <trkpt lat="50.680945683270693" lon="6.306856675073504">
        <ele>499.06</ele>
        <time>2013-07-15T08:19:22Z</time>
      </trkpt>
      <trkpt lat="50.680899918079376" lon="6.306824153289199">
        <ele>499.06</ele>
        <time>2013-07-15T08:19:27Z</time>
      </trkpt>
      <trkpt lat="50.680811237543821" lon="6.306774951517582">
        <ele>499.06</ele>
        <time>2013-07-15T08:19:35Z</time>
      </trkpt>
      <trkpt lat="50.68078382872045" lon="6.306754751130939">
        <ele>499.06</ele>
        <time>2013-07-15T08:19:38Z</time>
      </trkpt>
      <trkpt lat="50.68074912764132" lon="6.306732790544629">
        <ele>499.06</ele>
        <time>2013-07-15T08:19:41Z</time>
      </trkpt>
      <trkpt lat="50.680719539523125" lon="6.306726168841124">
        <ele>499.06</ele>
        <time>2013-07-15T08:19:45Z</time>
      </trkpt>
      <trkpt lat="50.680600348860025" lon="6.306686270982027">
        <ele>500.5</ele>
        <time>2013-07-15T08:19:56Z</time>
      </trkpt>
      <trkpt lat="50.680551314726472" lon="6.306659197434783">
        <ele>500.5</ele>
        <time>2013-07-15T08:20:01Z</time>
      </trkpt>
      <trkpt lat="50.68050722591579" lon="6.306659951806068">
        <ele>500.5</ele>
        <time>2013-07-15T08:20:06Z</time>
      </trkpt>
      <trkpt lat="50.680440589785576" lon="6.306618712842464">
        <ele>500.98000000000002</ele>
        <time>2013-07-15T08:20:12Z</time>
      </trkpt>
      <trkpt lat="50.680413180962205" lon="6.306605637073517">
        <ele>500.98000000000002</ele>
        <time>2013-07-15T08:20:14Z</time>
      </trkpt>
      <trkpt lat="50.68039683625102" lon="6.306591387838125">
        <ele>501.45999999999998</ele>
        <time>2013-07-15T08:20:15Z</time>
      </trkpt>
      <trkpt lat="50.680306227877736" lon="6.306549226865172">
        <ele>501.45999999999998</ele>
        <time>2013-07-15T08:20:23Z</time>
      </trkpt>
      <trkpt lat="50.68020916543901" lon="6.306503796949983">
        <ele>501.94999999999999</ele>
        <time>2013-07-15T08:20:33Z</time>
      </trkpt>
      <trkpt lat="50.68008896894753" lon="6.306473957374692">
        <ele>502.43000000000001</ele>
        <time>2013-07-15T08:20:44Z</time>
      </trkpt>
      <trkpt lat="50.680000791326165" lon="6.306424336507917">
        <ele>502.43000000000001</ele>
        <time>2013-07-15T08:20:52Z</time>
      </trkpt>
      <trkpt lat="50.679897693917155" lon="6.306369686499238">
        <ele>503.38999999999999</ele>
        <time>2013-07-15T08:21:01Z</time>
      </trkpt>
      <trkpt lat="50.679808342829347" lon="6.306322496384382">
        <ele>504.35000000000002</ele>
        <time>2013-07-15T08:21:10Z</time>
      </trkpt>
      <trkpt lat="50.679710106924176" lon="6.306263487786055">
        <ele>504.35000000000002</ele>
        <time>2013-07-15T08:21:19Z</time>
      </trkpt>
      <trkpt lat="50.679587228223681" lon="6.306158797815442">
        <ele>505.31</ele>
        <time>2013-07-15T08:21:31Z</time>
      </trkpt>
      <trkpt lat="50.679483963176608" lon="6.306121246889234">
        <ele>505.79000000000002</ele>
        <time>2013-07-15T08:21:41Z</time>
      </trkpt>
      <trkpt lat="50.679368376731873" lon="6.306041870266199">
        <ele>506.26999999999998</ele>
        <time>2013-07-15T08:21:51Z</time>
      </trkpt>
      <trkpt lat="50.679320013150573" lon="6.306011527776718">
        <ele>506.75</ele>
        <time>2013-07-15T08:21:55Z</time>
      </trkpt>
      <trkpt lat="50.679310793057084" lon="6.30600624717772">
        <ele>506.75</ele>
        <time>2013-07-15T08:21:56Z</time>
      </trkpt>
      <trkpt lat="50.679299561306834" lon="6.306001553311944">
        <ele>506.75</ele>
        <time>2013-07-15T08:21:57Z</time>
      </trkpt>
      <trkpt lat="50.679283970966935" lon="6.305987387895584">
        <ele>506.75</ele>
        <time>2013-07-15T08:21:58Z</time>
      </trkpt>
      <trkpt lat="50.679267039522529" lon="6.305974815040827">
        <ele>506.75</ele>
        <time>2013-07-15T08:21:59Z</time>
      </trkpt>
      <trkpt lat="50.679182969033718" lon="6.305905915796757">
        <ele>507.70999999999998</ele>
        <time>2013-07-15T08:22:08Z</time>
      </trkpt>
      <trkpt lat="50.679055731743574" lon="6.305803656578064">
        <ele>508.67000000000002</ele>
        <time>2013-07-15T08:22:30Z</time>
      </trkpt>
      <trkpt lat="50.678984988480806" lon="6.305784713476896">
        <ele>508.67000000000002</ele>
        <time>2013-07-15T08:22:38Z</time>
      </trkpt>
      <trkpt lat="50.678803436458111" lon="6.305678766220808">
        <ele>510.60000000000002</ele>
        <time>2013-07-15T08:23:06Z</time>
      </trkpt>
      <trkpt lat="50.678683826699853" lon="6.305633587762713">
        <ele>511.56</ele>
        <time>2013-07-15T08:23:22Z</time>
      </trkpt>
      <trkpt lat="50.678661866113544" lon="6.305615901947022">
        <ele>511.56</ele>
        <time>2013-07-15T08:23:24Z</time>
      </trkpt>
      <trkpt lat="50.678478972986341" lon="6.305452790111303">
        <ele>513</ele>
        <time>2013-07-15T08:23:41Z</time>
      </trkpt>
      <trkpt lat="50.678446535021067" lon="6.305432254448533">
        <ele>513</ele>
        <time>2013-07-15T08:23:44Z</time>
      </trkpt>
      <trkpt lat="50.678435554727912" lon="6.30541792139411">
        <ele>513</ele>
        <time>2013-07-15T08:23:45Z</time>
      </trkpt>
      <trkpt lat="50.678286021575332" lon="6.305215246975422">
        <ele>513.96000000000004</ele>
        <time>2013-07-15T08:24:02Z</time>
      </trkpt>
      <trkpt lat="50.678190551698208" lon="6.305066635832191">
        <ele>515.39999999999998</ele>
        <time>2013-07-15T08:24:14Z</time>
      </trkpt>
      <trkpt lat="50.678126681596041" lon="6.304994467645884">
        <ele>515.39999999999998</ele>
        <time>2013-07-15T08:24:21Z</time>
      </trkpt>
      <trkpt lat="50.678117042407393" lon="6.304984074085951">
        <ele>515.88</ele>
        <time>2013-07-15T08:24:22Z</time>
      </trkpt>
      <trkpt lat="50.678108911961317" lon="6.304970243945718">
        <ele>515.88</ele>
        <time>2013-07-15T08:24:23Z</time>
      </trkpt>
      <trkpt lat="50.678099691867828" lon="6.304958341643214">
        <ele>515.88</ele>
        <time>2013-07-15T08:24:24Z</time>
      </trkpt>
      <trkpt lat="50.678090136498213" lon="6.304944679141045">
        <ele>515.88</ele>
        <time>2013-07-15T08:24:25Z</time>
      </trkpt>
      <trkpt lat="50.678046885877848" lon="6.304872762411833">
        <ele>516.85000000000002</ele>
        <time>2013-07-15T08:24:30Z</time>
      </trkpt>
      <trkpt lat="50.678037498146296" lon="6.304861782118678">
        <ele>516.85000000000002</ele>
        <time>2013-07-15T08:24:31Z</time>
      </trkpt>
      <trkpt lat="50.678030205890536" lon="6.304844599217176">
        <ele>516.85000000000002</ele>
        <time>2013-07-15T08:24:32Z</time>
      </trkpt>
      <trkpt lat="50.678023919463158" lon="6.30482716485858">
        <ele>516.85000000000002</ele>
        <time>2013-07-15T08:24:33Z</time>
      </trkpt>
      <trkpt lat="50.678016627207398" lon="6.304815597832203">
        <ele>516.85000000000002</ele>
        <time>2013-07-15T08:24:34Z</time>
      </trkpt>
      <trkpt lat="50.678006820380688" lon="6.304806210100651">
        <ele>516.85000000000002</ele>
        <time>2013-07-15T08:24:35Z</time>
      </trkpt>
      <trkpt lat="50.677995923906565" lon="6.304794391617179">
        <ele>516.85000000000002</ele>
        <time>2013-07-15T08:24:36Z</time>
      </trkpt>
      <trkpt lat="50.677984859794378" lon="6.304780980572105">
        <ele>516.85000000000002</ele>
        <time>2013-07-15T08:24:37Z</time>
      </trkpt>
      <trkpt lat="50.677800038829446" lon="6.304562212899327">
        <ele>518.28999999999996</ele>
        <time>2013-07-15T08:24:56Z</time>
      </trkpt>
      <trkpt lat="50.677629550918937" lon="6.304416451603174">
        <ele>519.25</ele>
        <time>2013-07-15T08:25:13Z</time>
      </trkpt>
      <trkpt lat="50.677557298913598" lon="6.304353000596166">
        <ele>519.73000000000002</ele>
        <time>2013-07-15T08:25:20Z</time>
      </trkpt>
      <trkpt lat="50.677547743543983" lon="6.304347719997168">
        <ele>520.21000000000004</ele>
        <time>2013-07-15T08:25:21Z</time>
      </trkpt>
      <trkpt lat="50.677538523450494" lon="6.304336488246918">
        <ele>520.21000000000004</ele>
        <time>2013-07-15T08:25:22Z</time>
      </trkpt>
      <trkpt lat="50.677365185692906" lon="6.304209334775806">
        <ele>521.16999999999996</ele>
        <time>2013-07-15T08:25:39Z</time>
      </trkpt>
      <trkpt lat="50.67715035751462" lon="6.304074386134744">
        <ele>523.09000000000003</ele>
        <time>2013-07-15T08:25:59Z</time>
      </trkpt>
      <trkpt lat="50.676972158253193" lon="6.303967013955116">
        <ele>524.05999999999995</ele>
        <time>2013-07-15T08:26:15Z</time>
      </trkpt>
      <trkpt lat="50.676790103316307" lon="6.303895264863968">
        <ele>525.5</ele>
        <time>2013-07-15T08:26:32Z</time>
      </trkpt>
      <trkpt lat="50.676630763337016" lon="6.303834496065974">
        <ele>526.46000000000004</ele>
        <time>2013-07-15T08:26:47Z</time>
      </trkpt>
      <trkpt lat="50.676618861034513" lon="6.303827036172152">
        <ele>526.94000000000005</ele>
        <time>2013-07-15T08:27:00Z</time>
      </trkpt>
      <trkpt lat="50.676606204360723" lon="6.303821168839932">
        <ele>526.94000000000005</ele>
        <time>2013-07-15T08:27:01Z</time>
      </trkpt>
      <trkpt lat="50.676603270694613" lon="6.303834076970816">
        <ele>526.94000000000005</ele>
        <time>2013-07-15T08:27:11Z</time>
      </trkpt>
      <trkpt lat="50.67660603672266" lon="6.303814547136426">
        <ele>527.41999999999996</ele>
        <time>2013-07-15T08:27:22Z</time>
      </trkpt>
      <trkpt lat="50.6765694078058" lon="6.303803315386176">
        <ele>527.41999999999996</ele>
        <time>2013-07-15T08:27:42Z</time>
      </trkpt>
      <trkpt lat="50.6765400711447" lon="6.303788563236594">
        <ele>527.41999999999996</ele>
        <time>2013-07-15T08:27:45Z</time>
      </trkpt>
      <trkpt lat="50.67652833648026" lon="6.303785126656294">
        <ele>527.41999999999996</ele>
        <time>2013-07-15T08:27:46Z</time>
      </trkpt>
      <trkpt lat="50.676354663446546" lon="6.303767021745443">
        <ele>528.38</ele>
        <time>2013-07-15T08:28:01Z</time>
      </trkpt>
      <trkpt lat="50.676329685375094" lon="6.303766435012221">
        <ele>528.38</ele>
        <time>2013-07-15T08:28:03Z</time>
      </trkpt>
      <trkpt lat="50.676318285986781" lon="6.303767692297697">
        <ele>528.38</ele>
        <time>2013-07-15T08:28:04Z</time>
      </trkpt>
      <trkpt lat="50.676305880770087" lon="6.303767524659634">
        <ele>528.38</ele>
        <time>2013-07-15T08:28:05Z</time>
      </trkpt>
      <trkpt lat="50.676200520247221" lon="6.303720334544778">
        <ele>529.34000000000003</ele>
        <time>2013-07-15T08:28:15Z</time>
      </trkpt>
      <trkpt lat="50.676036989316344" lon="6.303684459999204">
        <ele>530.29999999999995</ele>
        <time>2013-07-15T08:28:29Z</time>
      </trkpt>
      <trkpt lat="50.67602651193738" lon="6.303674653172493">
        <ele>530.29999999999995</ele>
        <time>2013-07-15T08:28:30Z</time>
      </trkpt>
      <trkpt lat="50.676016286015511" lon="6.303664175793529">
        <ele>530.29999999999995</ele>
        <time>2013-07-15T08:28:31Z</time>
      </trkpt>
      <trkpt lat="50.67600455135107" lon="6.303660236299038">
        <ele>530.78999999999996</ele>
        <time>2013-07-15T08:28:32Z</time>
      </trkpt>
      <trkpt lat="50.6759581156075" lon="6.303654117509723">
        <ele>531.26999999999998</ele>
        <time>2013-07-15T08:28:43Z</time>
      </trkpt>
      <trkpt lat="50.675789974629879" lon="6.303534507751465">
        <ele>532.23000000000002</ele>
        <time>2013-07-15T08:28:59Z</time>
      </trkpt>
      <trkpt lat="50.675770360976458" lon="6.303511876612902">
        <ele>545.20000000000005</ele>
        <time>2013-07-15T08:29:01Z</time>
      </trkpt>
      <trkpt lat="50.675760386511683" lon="6.303500896319747">
        <ele>545.20000000000005</ele>
        <time>2013-07-15T08:29:02Z</time>
      </trkpt>
      <trkpt lat="50.675738677382469" lon="6.303480276837945">
        <ele>532.23000000000002</ele>
        <time>2013-07-15T08:29:04Z</time>
      </trkpt>
      <trkpt lat="50.675726355984807" lon="6.303469045087695">
        <ele>532.23000000000002</ele>
        <time>2013-07-15T08:29:05Z</time>
      </trkpt>
      <trkpt lat="50.675612110644579" lon="6.30333392880857">
        <ele>533.66999999999996</ele>
        <time>2013-07-15T08:29:16Z</time>
      </trkpt>
      <trkpt lat="50.675479844212532" lon="6.303117508068681">
        <ele>534.63</ele>
        <time>2013-07-15T08:29:31Z</time>
      </trkpt>
      <trkpt lat="50.675265183672309" lon="6.302850879728794">
        <ele>536.07000000000005</ele>
        <time>2013-07-15T08:29:53Z</time>
      </trkpt>
      <trkpt lat="50.67508882842958" lon="6.302662957459688">
        <ele>537.50999999999999</ele>
        <time>2013-07-15T08:30:11Z</time>
      </trkpt>
      <trkpt lat="50.674889422953129" lon="6.302498336881399">
        <ele>538.48000000000002</ele>
        <time>2013-07-15T08:30:28Z</time>
      </trkpt>
      <trkpt lat="50.674655567854643" lon="6.302310163155198">
        <ele>540.39999999999998</ele>
        <time>2013-07-15T08:30:49Z</time>
      </trkpt>
      <trkpt lat="50.674427663907409" lon="6.302130622789264">
        <ele>541.36000000000001</ele>
        <time>2013-07-15T08:31:10Z</time>
      </trkpt>
      <trkpt lat="50.674327416345477" lon="6.302097346633673">
        <ele>542.79999999999995</ele>
        <time>2013-07-15T08:31:20Z</time>
      </trkpt>
      <trkpt lat="50.674321046099067" lon="6.302111595869064">
        <ele>542.79999999999995</ele>
        <time>2013-07-15T08:31:21Z</time>
      </trkpt>
      <trkpt lat="50.6743158493191" lon="6.302125258371234">
        <ele>542.79999999999995</ele>
        <time>2013-07-15T08:31:22Z</time>
      </trkpt>
      <trkpt lat="50.67348076030612" lon="6.301391590386629">
        <ele>547.13</ele>
        <time>2013-07-15T08:32:48Z</time>
      </trkpt>
      <trkpt lat="50.673402305692434" lon="6.301257899031043">
        <ele>548.09000000000003</ele>
        <time>2013-07-15T08:32:59Z</time>
      </trkpt>
      <trkpt lat="50.673353690654039" lon="6.300989175215364">
        <ele>548.09000000000003</ele>
        <time>2013-07-15T08:33:15Z</time>
      </trkpt>
      <trkpt lat="50.673352349549532" lon="6.300752218812704">
        <ele>546.64999999999998</ele>
        <time>2013-07-15T08:33:24Z</time>
      </trkpt>
      <trkpt lat="50.673279007896781" lon="6.300161797553301">
        <ele>544.72000000000003</ele>
        <time>2013-07-15T08:33:35Z</time>
      </trkpt>
      <trkpt lat="50.673172809183598" lon="6.299496442079544">
        <ele>544.24000000000001</ele>
        <time>2013-07-15T08:33:48Z</time>
      </trkpt>
      <trkpt lat="50.67303903400898" lon="6.298612486571074">
        <ele>545.69000000000005</ele>
        <time>2013-07-15T08:34:00Z</time>
      </trkpt>
      <trkpt lat="50.672853123396635" lon="6.297581596300006">
        <ele>545.69000000000005</ele>
        <time>2013-07-15T08:34:11Z</time>
      </trkpt>
      <trkpt lat="50.672780452296138" lon="6.297241458669305">
        <ele>545.20000000000005</ele>
        <time>2013-07-15T08:34:19Z</time>
      </trkpt>
      <trkpt lat="50.672774165868759" lon="6.297195022925735">
        <ele>545.20000000000005</ele>
        <time>2013-07-15T08:34:30Z</time>
      </trkpt>
      <trkpt lat="50.672760671004653" lon="6.297171553596854">
        <ele>544.72000000000003</ele>
        <time>2013-07-15T08:34:40Z</time>
      </trkpt>
      <trkpt lat="50.672753546386957" lon="6.297139953821898">
        <ele>544.72000000000003</ele>
        <time>2013-07-15T08:34:52Z</time>
      </trkpt>
      <trkpt lat="50.672761090099812" lon="6.296968292444944">
        <ele>544.72000000000003</ele>
        <time>2013-07-15T08:35:01Z</time>
      </trkpt>
      <trkpt lat="50.67275756970048" lon="6.296936189755797">
        <ele>544.72000000000003</ele>
        <time>2013-07-15T08:35:04Z</time>
      </trkpt>
      <trkpt lat="50.672777099534869" lon="6.29694851115346">
        <ele>544.72000000000003</ele>
        <time>2013-07-15T08:35:11Z</time>
      </trkpt>
      <trkpt lat="50.672768549993634" lon="6.296922359615564">
        <ele>544.72000000000003</ele>
        <time>2013-07-15T08:35:17Z</time>
      </trkpt>
      <trkpt lat="50.672732004895806" lon="6.296806940808892">
        <ele>546.16999999999996</ele>
        <time>2013-07-15T08:35:20Z</time>
      </trkpt>
      <trkpt lat="50.672714486718178" lon="6.296732760965824">
        <ele>546.16999999999996</ele>
        <time>2013-07-15T08:35:21Z</time>
      </trkpt>
      <trkpt lat="50.672524804249406" lon="6.295706732198596">
        <ele>545.69000000000005</ele>
        <time>2013-07-15T08:35:29Z</time>
      </trkpt>
      <trkpt lat="50.672343419864774" lon="6.294700903818011">
        <ele>546.64999999999998</ele>
        <time>2013-07-15T08:35:36Z</time>
      </trkpt>
      <trkpt lat="50.672278041020036" lon="6.294335620477796">
        <ele>545.20000000000005</ele>
        <time>2013-07-15T08:35:39Z</time>
      </trkpt>
      <trkpt lat="50.672237472608685" lon="6.294122720137239">
        <ele>547.13</ele>
        <time>2013-07-15T08:35:41Z</time>
      </trkpt>
      <trkpt lat="50.672204280272126" lon="6.293932450935245">
        <ele>548.09000000000003</ele>
        <time>2013-07-15T08:35:43Z</time>
      </trkpt>
      <trkpt lat="50.672187013551593" lon="6.293857013806701">
        <ele>547.13</ele>
        <time>2013-07-15T08:35:44Z</time>
      </trkpt>
      <trkpt lat="50.672171842306852" lon="6.293795742094517">
        <ele>546.16999999999996</ele>
        <time>2013-07-15T08:35:45Z</time>
      </trkpt>
      <trkpt lat="50.672156168147922" lon="6.293741343542934">
        <ele>546.16999999999996</ele>
        <time>2013-07-15T08:35:46Z</time>
      </trkpt>
      <trkpt lat="50.672138901427388" lon="6.293704295530915">
        <ele>546.16999999999996</ele>
        <time>2013-07-15T08:35:47Z</time>
      </trkpt>
      <trkpt lat="50.672121718525887" lon="6.29368887282908">
        <ele>545.69000000000005</ele>
        <time>2013-07-15T08:35:48Z</time>
      </trkpt>
      <trkpt lat="50.672107636928558" lon="6.293681999668479">
        <ele>545.69000000000005</ele>
        <time>2013-07-15T08:35:49Z</time>
      </trkpt>
      <trkpt lat="50.672086430713534" lon="6.293663810938597">
        <ele>545.69000000000005</ele>
        <time>2013-07-15T08:35:51Z</time>
      </trkpt>
      <trkpt lat="50.672037815675139" lon="6.293604047968984">
        <ele>545.69000000000005</ele>
        <time>2013-07-15T08:36:00Z</time>
      </trkpt>
      <trkpt lat="50.672042425721884" lon="6.293627768754959">
        <ele>545.69000000000005</ele>
        <time>2013-07-15T08:36:13Z</time>
      </trkpt>
      <trkpt lat="50.672062123194337" lon="6.293628606945276">
        <ele>545.69000000000005</ele>
        <time>2013-07-15T08:36:15Z</time>
      </trkpt>
      <trkpt lat="50.672054747119546" lon="6.293630283325911">
        <ele>545.20000000000005</ele>
        <time>2013-07-15T08:36:22Z</time>
      </trkpt>
      <trkpt lat="50.672048879787326" lon="6.293615363538265">
        <ele>545.20000000000005</ele>
        <time>2013-07-15T08:36:23Z</time>
      </trkpt>
      <trkpt lat="50.672037312760949" lon="6.293604718521237">
        <ele>546.16999999999996</ele>
        <time>2013-07-15T08:36:33Z</time>
      </trkpt>
      <trkpt lat="50.672045275568962" lon="6.29362097941339">
        <ele>546.16999999999996</ele>
        <time>2013-07-15T08:36:55Z</time>
      </trkpt>
      <trkpt lat="50.672025326639414" lon="6.293602958321571">
        <ele>546.16999999999996</ele>
        <time>2013-07-15T08:37:03Z</time>
      </trkpt>
      <trkpt lat="50.672009652480483" lon="6.293592229485512">
        <ele>546.16999999999996</ele>
        <time>2013-07-15T08:37:04Z</time>
      </trkpt>
      <trkpt lat="50.671891719102859" lon="6.293550990521908">
        <ele>547.61000000000001</ele>
        <time>2013-07-15T08:37:15Z</time>
      </trkpt>
      <trkpt lat="50.671876547858119" lon="6.293548811227083">
        <ele>548.09000000000003</ele>
        <time>2013-07-15T08:37:26Z</time>
      </trkpt>
      <trkpt lat="50.671727014705539" lon="6.293381424620748">
        <ele>550.00999999999999</ele>
        <time>2013-07-15T08:37:41Z</time>
      </trkpt>
      <trkpt lat="50.671540182083845" lon="6.29318855702877">
        <ele>551.45000000000005</ele>
        <time>2013-07-15T08:37:58Z</time>
      </trkpt>
      <trkpt lat="50.671360641717911" lon="6.293118484318256">
        <ele>551.92999999999995</ele>
        <time>2013-07-15T08:38:13Z</time>
      </trkpt>
      <trkpt lat="50.671282019466162" lon="6.293078670278192">
        <ele>553.38</ele>
        <time>2013-07-15T08:38:23Z</time>
      </trkpt>
      <trkpt lat="50.671280175447464" lon="6.29305905662477">
        <ele>553.38</ele>
        <time>2013-07-15T08:38:24Z</time>
      </trkpt>
      <trkpt lat="50.671281348913908" lon="6.293038772419095">
        <ele>553.38</ele>
        <time>2013-07-15T08:38:25Z</time>
      </trkpt>
      <trkpt lat="50.671283528208733" lon="6.293019577860832">
        <ele>553.38</ele>
        <time>2013-07-15T08:38:26Z</time>
      </trkpt>
      <trkpt lat="50.671284114941955" lon="6.292998790740967">
        <ele>553.38</ele>
        <time>2013-07-15T08:38:27Z</time>
      </trkpt>
      <trkpt lat="50.671285791322589" lon="6.29298185929656">
        <ele>553.38</ele>
        <time>2013-07-15T08:38:28Z</time>
      </trkpt>
      <trkpt lat="50.671288557350636" lon="6.292963502928615">
        <ele>553.38</ele>
        <time>2013-07-15T08:38:29Z</time>
      </trkpt>
      <trkpt lat="50.671294843778014" lon="6.292941961437464">
        <ele>553.38</ele>
        <time>2013-07-15T08:38:30Z</time>
      </trkpt>
      <trkpt lat="50.671303225681186" lon="6.292923269793391">
        <ele>553.38</ele>
        <time>2013-07-15T08:38:31Z</time>
      </trkpt>
      <trkpt lat="50.671358797699213" lon="6.292691677808762">
        <ele>551.92999999999995</ele>
        <time>2013-07-15T08:38:43Z</time>
      </trkpt>
      <trkpt lat="50.671426858752966" lon="6.292487662285566">
        <ele>551.45000000000005</ele>
        <time>2013-07-15T08:38:56Z</time>
      </trkpt>
      <trkpt lat="50.671479916200042" lon="6.29226990044117">
        <ele>550.49000000000001</ele>
        <time>2013-07-15T08:39:08Z</time>
      </trkpt>
      <trkpt lat="50.671525849029422" lon="6.29216386936605">
        <ele>549.04999999999995</ele>
        <time>2013-07-15T08:39:14Z</time>
      </trkpt>
      <trkpt lat="50.671531548723578" lon="6.29214383661747">
        <ele>549.04999999999995</ele>
        <time>2013-07-15T08:39:15Z</time>
      </trkpt>
      <trkpt lat="50.671534398570657" lon="6.292125061154366">
        <ele>548.57000000000005</ele>
        <time>2013-07-15T08:39:16Z</time>
      </trkpt>
      <trkpt lat="50.671600615605712" lon="6.291873939335346">
        <ele>547.13</ele>
        <time>2013-07-15T08:39:30Z</time>
      </trkpt>
      <trkpt lat="50.671631880104542" lon="6.291755419224501">
        <ele>546.16999999999996</ele>
        <time>2013-07-15T08:39:36Z</time>
      </trkpt>
      <trkpt lat="50.671673789620399" lon="6.291625499725342">
        <ele>545.20000000000005</ele>
        <time>2013-07-15T08:39:44Z</time>
      </trkpt>
      <trkpt lat="50.671697845682502" lon="6.291573699563742">
        <ele>544.24000000000001</ele>
        <time>2013-07-15T08:39:48Z</time>
      </trkpt>
      <trkpt lat="50.671715028584003" lon="6.291489712893963">
        <ele>543.75999999999999</ele>
        <time>2013-07-15T08:39:53Z</time>
      </trkpt>
      <trkpt lat="50.671718632802367" lon="6.2914705183357">
        <ele>543.75999999999999</ele>
        <time>2013-07-15T08:39:54Z</time>
      </trkpt>
      <trkpt lat="50.671722823753953" lon="6.291451072320342">
        <ele>543.75999999999999</ele>
        <time>2013-07-15T08:39:55Z</time>
      </trkpt>
      <trkpt lat="50.671794572845101" lon="6.29117589443922">
        <ele>541.84000000000003</ele>
        <time>2013-07-15T08:40:10Z</time>
      </trkpt>
      <trkpt lat="50.671854251995683" lon="6.291056452319026">
        <ele>540.39999999999998</ele>
        <time>2013-07-15T08:40:19Z</time>
      </trkpt>
      <trkpt lat="50.671974364668131" lon="6.290843887254596">
        <ele>538.48000000000002</ele>
        <time>2013-07-15T08:40:32Z</time>
      </trkpt>
      <trkpt lat="50.671977046877146" lon="6.290765265002847">
        <ele>538.48000000000002</ele>
        <time>2013-07-15T08:40:36Z</time>
      </trkpt>
      <trkpt lat="50.671972688287497" lon="6.290743472054601">
        <ele>538.48000000000002</ele>
        <time>2013-07-15T08:40:37Z</time>
      </trkpt>
      <trkpt lat="50.671969670802355" lon="6.290723104029894">
        <ele>538.48000000000002</ele>
        <time>2013-07-15T08:40:38Z</time>
      </trkpt>
      <trkpt lat="50.671966820955276" lon="6.290701143443584">
        <ele>538.48000000000002</ele>
        <time>2013-07-15T08:40:39Z</time>
      </trkpt>
      <trkpt lat="50.671963216736913" lon="6.290678344666958">
        <ele>538.48000000000002</ele>
        <time>2013-07-15T08:40:40Z</time>
      </trkpt>
      <trkpt lat="50.671924995258451" lon="6.290436862036586">
        <ele>538.48000000000002</ele>
        <time>2013-07-15T08:40:51Z</time>
      </trkpt>
      <trkpt lat="50.671804463490844" lon="6.289929002523422">
        <ele>538.48000000000002</ele>
        <time>2013-07-15T08:41:03Z</time>
      </trkpt>
      <trkpt lat="50.671695163473487" lon="6.289362469688058">
        <ele>538.48000000000002</ele>
        <time>2013-07-15T08:41:15Z</time>
      </trkpt>
      <trkpt lat="50.671636825427413" lon="6.288897693157196">
        <ele>538.48000000000002</ele>
        <time>2013-07-15T08:41:26Z</time>
      </trkpt>
      <trkpt lat="50.671538338065147" lon="6.288457307964563">
        <ele>537.99000000000001</ele>
        <time>2013-07-15T08:41:37Z</time>
      </trkpt>
      <trkpt lat="50.671334490180016" lon="6.287785498425365">
        <ele>536.54999999999995</ele>
        <time>2013-07-15T08:41:50Z</time>
      </trkpt>
      <trkpt lat="50.671142544597387" lon="6.287228018045425">
        <ele>534.63</ele>
        <time>2013-07-15T08:42:02Z</time>
      </trkpt>
      <trkpt lat="50.670894691720605" lon="6.286638770252466">
        <ele>533.19000000000005</ele>
        <time>2013-07-15T08:42:15Z</time>
      </trkpt>
      <trkpt lat="50.670640887692571" lon="6.286074835807085">
        <ele>533.19000000000005</ele>
        <time>2013-07-15T08:42:28Z</time>
      </trkpt>
      <trkpt lat="50.670382808893919" lon="6.285625398159027">
        <ele>533.19000000000005</ele>
        <time>2013-07-15T08:42:40Z</time>
      </trkpt>
      <trkpt lat="50.670071169734001" lon="6.285116113722324">
        <ele>534.63</ele>
        <time>2013-07-15T08:42:54Z</time>
      </trkpt>
      <trkpt lat="50.669901184737682" lon="6.284731803461909">
        <ele>535.11000000000001</ele>
        <time>2013-07-15T08:43:04Z</time>
      </trkpt>
      <trkpt lat="50.669687362387776" lon="6.284214220941067">
        <ele>535.11000000000001</ele>
        <time>2013-07-15T08:43:17Z</time>
      </trkpt>
      <trkpt lat="50.669573619961739" lon="6.283842986449599">
        <ele>533.66999999999996</ele>
        <time>2013-07-15T08:43:29Z</time>
      </trkpt>
      <trkpt lat="50.669533973559737" lon="6.283690351992846">
        <ele>533.66999999999996</ele>
        <time>2013-07-15T08:43:36Z</time>
      </trkpt>
      <trkpt lat="50.669468091800809" lon="6.283410396426916">
        <ele>533.19000000000005</ele>
        <time>2013-07-15T08:43:50Z</time>
      </trkpt>
      <trkpt lat="50.669368263334036" lon="6.283140415325761">
        <ele>533.19000000000005</ele>
        <time>2013-07-15T08:44:06Z</time>
      </trkpt>
      <trkpt lat="50.669325347989798" lon="6.283014686778188">
        <ele>533.19000000000005</ele>
        <time>2013-07-15T08:44:13Z</time>
      </trkpt>
      <trkpt lat="50.669242283329368" lon="6.282749567180872">
        <ele>533.19000000000005</ele>
        <time>2013-07-15T08:44:28Z</time>
      </trkpt>
      <trkpt lat="50.669178664684296" lon="6.282482435926795">
        <ele>533.19000000000005</ele>
        <time>2013-07-15T08:44:41Z</time>
      </trkpt>
      <trkpt lat="50.669064754620194" lon="6.282165013253689">
        <ele>533.19000000000005</ele>
        <time>2013-07-15T08:44:58Z</time>
      </trkpt>
      <trkpt lat="50.668979678303003" lon="6.281947167590261">
        <ele>534.63</ele>
        <time>2013-07-15T08:45:11Z</time>
      </trkpt>
      <trkpt lat="50.668978756293654" lon="6.281926380470395">
        <ele>534.63</ele>
        <time>2013-07-15T08:45:12Z</time>
      </trkpt>
      <trkpt lat="50.668975738808513" lon="6.281859576702118">
        <ele>534.63</ele>
        <time>2013-07-15T08:45:15Z</time>
      </trkpt>
      <trkpt lat="50.668957633897662" lon="6.281803669407964">
        <ele>534.63</ele>
        <time>2013-07-15T08:45:18Z</time>
      </trkpt>
      <trkpt lat="50.668952018022537" lon="6.281785229220986">
        <ele>534.63</ele>
        <time>2013-07-15T08:45:19Z</time>
      </trkpt>
      <trkpt lat="50.66893307492137" lon="6.281727142632008">
        <ele>534.63</ele>
        <time>2013-07-15T08:45:22Z</time>
      </trkpt>
      <trkpt lat="50.668925112113357" lon="6.281710127368569">
        <ele>534.63</ele>
        <time>2013-07-15T08:45:23Z</time>
      </trkpt>
      <trkpt lat="50.668852441012859" lon="6.281438805162907">
        <ele>534.63</ele>
        <time>2013-07-15T08:45:39Z</time>
      </trkpt>
      <trkpt lat="50.668763760477304" lon="6.281156586483121">
        <ele>534.63</ele>
        <time>2013-07-15T08:45:54Z</time>
      </trkpt>
      <trkpt lat="50.668698716908693" lon="6.281000599265099">
        <ele>534.63</ele>
        <time>2013-07-15T08:46:03Z</time>
      </trkpt>
      <trkpt lat="50.66865504719317" lon="6.280869757756591">
        <ele>535.11000000000001</ele>
        <time>2013-07-15T08:46:11Z</time>
      </trkpt>
      <trkpt lat="50.668642725795507" lon="6.280814185738564">
        <ele>535.11000000000001</ele>
        <time>2013-07-15T08:46:14Z</time>
      </trkpt>
      <trkpt lat="50.668627554550767" lon="6.280775964260101">
        <ele>535.11000000000001</ele>
        <time>2013-07-15T08:46:16Z</time>
      </trkpt>
      <trkpt lat="50.668619424104691" lon="6.280762804672122">
        <ele>535.11000000000001</ele>
        <time>2013-07-15T08:46:17Z</time>
      </trkpt>
      <trkpt lat="50.66861062310636" lon="6.280749645084143">
        <ele>535.11000000000001</ele>
        <time>2013-07-15T08:46:18Z</time>
      </trkpt>
      <trkpt lat="50.668496964499354" lon="6.280537247657776">
        <ele>535.59000000000003</ele>
        <time>2013-07-15T08:46:35Z</time>
      </trkpt>
      <trkpt lat="50.668456479907036" lon="6.280375141650438">
        <ele>536.07000000000005</ele>
        <time>2013-07-15T08:46:43Z</time>
      </trkpt>
      <trkpt lat="50.668447762727737" lon="6.280354270711541">
        <ele>536.07000000000005</ele>
        <time>2013-07-15T08:46:44Z</time>
      </trkpt>
      <trkpt lat="50.668437704443932" lon="6.280327113345265">
        <ele>536.07000000000005</ele>
        <time>2013-07-15T08:46:45Z</time>
      </trkpt>
      <trkpt lat="50.668429490178823" lon="6.280308337882161">
        <ele>536.07000000000005</ele>
        <time>2013-07-15T08:46:46Z</time>
      </trkpt>
      <trkpt lat="50.668422365561128" lon="6.28029165789485">
        <ele>536.07000000000005</ele>
        <time>2013-07-15T08:46:47Z</time>
      </trkpt>
      <trkpt lat="50.668416833505034" lon="6.28027556464076">
        <ele>536.07000000000005</ele>
        <time>2013-07-15T08:46:48Z</time>
      </trkpt>
      <trkpt lat="50.668311724439263" lon="6.280015055090189">
        <ele>536.07000000000005</ele>
        <time>2013-07-15T08:47:04Z</time>
      </trkpt>
      <trkpt lat="50.668194377794862" lon="6.279743146151304">
        <ele>536.07000000000005</ele>
        <time>2013-07-15T08:47:20Z</time>
      </trkpt>
      <trkpt lat="50.668100919574499" lon="6.279406026005745">
        <ele>536.54999999999995</ele>
        <time>2013-07-15T08:47:35Z</time>
      </trkpt>
      <trkpt lat="50.667971419170499" lon="6.279029930010438">
        <ele>536.54999999999995</ele>
        <time>2013-07-15T08:47:52Z</time>
      </trkpt>
      <trkpt lat="50.667957086116076" lon="6.279005873948336">
        <ele>536.54999999999995</ele>
        <time>2013-07-15T08:47:55Z</time>
      </trkpt>
      <trkpt lat="50.667952308431268" lon="6.278993804007769">
        <ele>536.54999999999995</ele>
        <time>2013-07-15T08:47:56Z</time>
      </trkpt>
      <trkpt lat="50.667945938184857" lon="6.278982488438487">
        <ele>536.54999999999995</ele>
        <time>2013-07-15T08:47:57Z</time>
      </trkpt>
      <trkpt lat="50.667940741404891" lon="6.278972094878554">
        <ele>536.54999999999995</ele>
        <time>2013-07-15T08:47:58Z</time>
      </trkpt>
      <trkpt lat="50.667933616787195" lon="6.278962204232812">
        <ele>536.54999999999995</ele>
        <time>2013-07-15T08:47:59Z</time>
      </trkpt>
      <trkpt lat="50.667862957343459" lon="6.27871879376471">
        <ele>536.54999999999995</ele>
        <time>2013-07-15T08:48:14Z</time>
      </trkpt>
      <trkpt lat="50.667761452496052" lon="6.278417212888598">
        <ele>535.59000000000003</ele>
        <time>2013-07-15T08:48:30Z</time>
      </trkpt>
      <trkpt lat="50.667672604322433" lon="6.278094258159399">
        <ele>535.59000000000003</ele>
        <time>2013-07-15T08:48:46Z</time>
      </trkpt>
      <trkpt lat="50.667575038969517" lon="6.27781723625958">
        <ele>535.59000000000003</ele>
        <time>2013-07-15T08:49:00Z</time>
      </trkpt>
      <trkpt lat="50.66756690852344" lon="6.277779769152403">
        <ele>535.59000000000003</ele>
        <time>2013-07-15T08:49:02Z</time>
      </trkpt>
      <trkpt lat="50.667561963200569" lon="6.277758562937379">
        <ele>535.59000000000003</ele>
        <time>2013-07-15T08:49:03Z</time>
      </trkpt>
      <trkpt lat="50.667553497478366" lon="6.277741380035877">
        <ele>535.59000000000003</ele>
        <time>2013-07-15T08:49:04Z</time>
      </trkpt>
      <trkpt lat="50.667545618489385" lon="6.277726711705327">
        <ele>535.59000000000003</ele>
        <time>2013-07-15T08:49:05Z</time>
      </trkpt>
      <trkpt lat="50.667538326233625" lon="6.277709612622857">
        <ele>535.59000000000003</ele>
        <time>2013-07-15T08:49:06Z</time>
      </trkpt>
      <trkpt lat="50.667531788349152" lon="6.27769410610199">
        <ele>535.59000000000003</ele>
        <time>2013-07-15T08:49:07Z</time>
      </trkpt>
      <trkpt lat="50.667526256293058" lon="6.27767750993371">
        <ele>535.59000000000003</ele>
        <time>2013-07-15T08:49:08Z</time>
      </trkpt>
      <trkpt lat="50.667520724236965" lon="6.277662087231875">
        <ele>535.59000000000003</ele>
        <time>2013-07-15T08:49:09Z</time>
      </trkpt>
      <trkpt lat="50.667516114190221" lon="6.277645155787468">
        <ele>535.59000000000003</ele>
        <time>2013-07-15T08:49:10Z</time>
      </trkpt>
      <trkpt lat="50.667482083663344" lon="6.277541136369109">
        <ele>535.59000000000003</ele>
        <time>2013-07-15T08:49:16Z</time>
      </trkpt>
      <trkpt lat="50.667479401454329" lon="6.277523199096322">
        <ele>535.59000000000003</ele>
        <time>2013-07-15T08:49:17Z</time>
      </trkpt>
      <trkpt lat="50.667473366484046" lon="6.277506100013852">
        <ele>535.59000000000003</ele>
        <time>2013-07-15T08:49:18Z</time>
      </trkpt>
      <trkpt lat="50.667468085885048" lon="6.27748791128397">
        <ele>535.59000000000003</ele>
        <time>2013-07-15T08:49:19Z</time>
      </trkpt>
      <trkpt lat="50.667447885498405" lon="6.277397973462939">
        <ele>535.59000000000003</ele>
        <time>2013-07-15T08:49:24Z</time>
      </trkpt>
      <trkpt lat="50.66744034178555" lon="6.277378359809518">
        <ele>535.59000000000003</ele>
        <time>2013-07-15T08:49:25Z</time>
      </trkpt>
      <trkpt lat="50.66735920496285" lon="6.277107205241919">
        <ele>535.11000000000001</ele>
        <time>2013-07-15T08:49:39Z</time>
      </trkpt>
      <trkpt lat="50.667306398972869" lon="6.276895646005869">
        <ele>535.11000000000001</ele>
        <time>2013-07-15T08:49:52Z</time>
      </trkpt>
      <trkpt lat="50.667305812239647" lon="6.276870416477323">
        <ele>535.11000000000001</ele>
        <time>2013-07-15T08:49:53Z</time>
      </trkpt>
      <trkpt lat="50.667295921593904" lon="6.276852143928409">
        <ele>535.11000000000001</ele>
        <time>2013-07-15T08:49:54Z</time>
      </trkpt>
      <trkpt lat="50.667286533862352" lon="6.27683512866497">
        <ele>534.63</ele>
        <time>2013-07-15T08:49:55Z</time>
      </trkpt>
      <trkpt lat="50.667259711772203" lon="6.2766626290977">
        <ele>534.63</ele>
        <time>2013-07-15T08:50:04Z</time>
      </trkpt>
      <trkpt lat="50.667265076190233" lon="6.276630107313395">
        <ele>534.63</ele>
        <time>2013-07-15T08:50:05Z</time>
      </trkpt>
      <trkpt lat="50.667266668751836" lon="6.276597920805216">
        <ele>534.63</ele>
        <time>2013-07-15T08:50:06Z</time>
      </trkpt>
      <trkpt lat="50.667264657095075" lon="6.276569338515401">
        <ele>534.63</ele>
        <time>2013-07-15T08:50:07Z</time>
      </trkpt>
      <trkpt lat="50.667259879410267" lon="6.276546539738774">
        <ele>534.63</ele>
        <time>2013-07-15T08:50:08Z</time>
      </trkpt>
      <trkpt lat="50.667257281020284" lon="6.276524998247623">
        <ele>534.63</ele>
        <time>2013-07-15T08:50:09Z</time>
      </trkpt>
      <trkpt lat="50.667165331542492" lon="6.276202630251646">
        <ele>534.14999999999998</ele>
        <time>2013-07-15T08:50:24Z</time>
      </trkpt>
      <trkpt lat="50.667043123394251" lon="6.275874730199575">
        <ele>534.14999999999998</ele>
        <time>2013-07-15T08:50:43Z</time>
      </trkpt>
      <trkpt lat="50.667002387344837" lon="6.275698710232973">
        <ele>534.14999999999998</ele>
        <time>2013-07-15T08:50:52Z</time>
      </trkpt>
      <trkpt lat="50.666996855288744" lon="6.275673313066363">
        <ele>534.14999999999998</ele>
        <time>2013-07-15T08:50:53Z</time>
      </trkpt>
      <trkpt lat="50.666965758427978" lon="6.275523863732815">
        <ele>533.66999999999996</ele>
        <time>2013-07-15T08:51:00Z</time>
      </trkpt>
      <trkpt lat="50.666951844468713" lon="6.27547575160861">
        <ele>533.66999999999996</ele>
        <time>2013-07-15T08:51:04Z</time>
      </trkpt>
      <trkpt lat="50.666945809498429" lon="6.275450522080064">
        <ele>533.66999999999996</ele>
        <time>2013-07-15T08:51:05Z</time>
      </trkpt>
      <trkpt lat="50.666936254128814" lon="6.275432500988245">
        <ele>533.66999999999996</ele>
        <time>2013-07-15T08:51:06Z</time>
      </trkpt>
      <trkpt lat="50.66692778840661" lon="6.275415904819965">
        <ele>533.66999999999996</ele>
        <time>2013-07-15T08:51:07Z</time>
      </trkpt>
      <trkpt lat="50.666921166703105" lon="6.275401320308447">
        <ele>533.66999999999996</ele>
        <time>2013-07-15T08:51:08Z</time>
      </trkpt>
      <trkpt lat="50.666799545288086" lon="6.275031929835677">
        <ele>533.19000000000005</ele>
        <time>2013-07-15T08:51:29Z</time>
      </trkpt>
      <trkpt lat="50.666761742904782" lon="6.274888934567571">
        <ele>532.71000000000004</ele>
        <time>2013-07-15T08:51:36Z</time>
      </trkpt>
      <trkpt lat="50.666754618287086" lon="6.274870745837688">
        <ele>532.71000000000004</ele>
        <time>2013-07-15T08:51:37Z</time>
      </trkpt>
      <trkpt lat="50.666749589145184" lon="6.274849036708474">
        <ele>532.71000000000004</ele>
        <time>2013-07-15T08:51:38Z</time>
      </trkpt>
      <trkpt lat="50.666746152564883" lon="6.274825567379594">
        <ele>532.71000000000004</ele>
        <time>2013-07-15T08:51:39Z</time>
      </trkpt>
      <trkpt lat="50.666741877794266" lon="6.274802014231682">
        <ele>532.71000000000004</ele>
        <time>2013-07-15T08:51:40Z</time>
      </trkpt>
      <trkpt lat="50.666737854480743" lon="6.274778293445706">
        <ele>532.71000000000004</ele>
        <time>2013-07-15T08:51:41Z</time>
      </trkpt>
      <trkpt lat="50.666665602475405" lon="6.274554161354899">
        <ele>532.23000000000002</ele>
        <time>2013-07-15T08:51:54Z</time>
      </trkpt>
      <trkpt lat="50.666598211973906" lon="6.274329358711839">
        <ele>531.26999999999998</ele>
        <time>2013-07-15T08:52:06Z</time>
      </trkpt>
      <trkpt lat="50.666530570015311" lon="6.274102628231049">
        <ele>531.26999999999998</ele>
        <time>2013-07-15T08:52:19Z</time>
      </trkpt>
      <trkpt lat="50.666520176455379" lon="6.274079661816359">
        <ele>531.26999999999998</ele>
        <time>2013-07-15T08:52:21Z</time>
      </trkpt>
      <trkpt lat="50.666516069322824" lon="6.274068262428045">
        <ele>530.78999999999996</ele>
        <time>2013-07-15T08:52:22Z</time>
      </trkpt>
      <trkpt lat="50.666446583345532" lon="6.273854775354266">
        <ele>530.29999999999995</ele>
        <time>2013-07-15T08:52:35Z</time>
      </trkpt>
      <trkpt lat="50.666342480108142" lon="6.273642797023058">
        <ele>529.82000000000005</ele>
        <time>2013-07-15T08:52:50Z</time>
      </trkpt>
      <trkpt lat="50.666329907253385" lon="6.273609939962626">
        <ele>529.34000000000003</ele>
        <time>2013-07-15T08:52:52Z</time>
      </trkpt>
      <trkpt lat="50.666206860914826" lon="6.273316070437431">
        <ele>528.86000000000001</ele>
        <time>2013-07-15T08:53:08Z</time>
      </trkpt>
      <trkpt lat="50.666196467354894" lon="6.273292684927583">
        <ele>528.86000000000001</ele>
        <time>2013-07-15T08:53:09Z</time>
      </trkpt>
      <trkpt lat="50.666165873408318" lon="6.273213475942612">
        <ele>528.38</ele>
        <time>2013-07-15T08:53:12Z</time>
      </trkpt>
      <trkpt lat="50.666091609746218" lon="6.273046927526593">
        <ele>527.89999999999998</ele>
        <time>2013-07-15T08:53:20Z</time>
      </trkpt>
      <trkpt lat="50.666084317490458" lon="6.273027816787362">
        <ele>527.41999999999996</ele>
        <time>2013-07-15T08:53:21Z</time>
      </trkpt>
      <trkpt lat="50.665980465710163" lon="6.272782981395721">
        <ele>527.41999999999996</ele>
        <time>2013-07-15T08:53:35Z</time>
      </trkpt>
      <trkpt lat="50.665969401597977" lon="6.27275750041008">
        <ele>527.41999999999996</ele>
        <time>2013-07-15T08:53:36Z</time>
      </trkpt>
      <trkpt lat="50.665846606716514" lon="6.272493051365018">
        <ele>526.46000000000004</ele>
        <time>2013-07-15T08:53:52Z</time>
      </trkpt>
      <trkpt lat="50.66579363308847" lon="6.272364389151335">
        <ele>525.98000000000002</ele>
        <time>2013-07-15T08:53:59Z</time>
      </trkpt>
      <trkpt lat="50.665656421333551" lon="6.272093234583736">
        <ele>525.5</ele>
        <time>2013-07-15T08:54:14Z</time>
      </trkpt>
      <trkpt lat="50.665546031668782" lon="6.27186574973166">
        <ele>524.53999999999996</ele>
        <time>2013-07-15T08:54:28Z</time>
      </trkpt>
      <trkpt lat="50.665536727756262" lon="6.271849824115634">
        <ele>524.53999999999996</ele>
        <time>2013-07-15T08:54:29Z</time>
      </trkpt>
      <trkpt lat="50.665528932586312" lon="6.271833227947354">
        <ele>524.53999999999996</ele>
        <time>2013-07-15T08:54:30Z</time>
      </trkpt>
      <trkpt lat="50.665434300899506" lon="6.27157305367291">
        <ele>523.09000000000003</ele>
        <time>2013-07-15T08:54:46Z</time>
      </trkpt>
      <trkpt lat="50.665376549586654" lon="6.271317573264241">
        <ele>522.61000000000001</ele>
        <time>2013-07-15T08:54:59Z</time>
      </trkpt>
      <trkpt lat="50.6653758790344" lon="6.271295361220837">
        <ele>521.64999999999998</ele>
        <time>2013-07-15T08:55:00Z</time>
      </trkpt>
      <trkpt lat="50.665310164913535" lon="6.27102286554873">
        <ele>521.16999999999996</ele>
        <time>2013-07-15T08:55:15Z</time>
      </trkpt>
      <trkpt lat="50.665254341438413" lon="6.270731007680297">
        <ele>520.21000000000004</ele>
        <time>2013-07-15T08:55:30Z</time>
      </trkpt>
      <trkpt lat="50.665190387517214" lon="6.270414004102349">
        <ele>518.76999999999998</ele>
        <time>2013-07-15T08:55:46Z</time>
      </trkpt>
      <trkpt lat="50.665188627317548" lon="6.270164139568806">
        <ele>518.28999999999996</ele>
        <time>2013-07-15T08:55:57Z</time>
      </trkpt>
      <trkpt lat="50.66514328122139" lon="6.26998258754611">
        <ele>517.33000000000004</ele>
        <time>2013-07-15T08:56:07Z</time>
      </trkpt>
      <trkpt lat="50.665088128298521" lon="6.269726771861315">
        <ele>515.88</ele>
        <time>2013-07-15T08:56:22Z</time>
      </trkpt>
      <trkpt lat="50.665084272623062" lon="6.269712522625923">
        <ele>515.88</ele>
        <time>2013-07-15T08:56:23Z</time>
      </trkpt>
      <trkpt lat="50.665035238489509" lon="6.269491324201226">
        <ele>514.91999999999996</ele>
        <time>2013-07-15T08:56:37Z</time>
      </trkpt>
      <trkpt lat="50.665026772767305" lon="6.269447738304734">
        <ele>514.44000000000005</ele>
        <time>2013-07-15T08:56:39Z</time>
      </trkpt>
      <trkpt lat="50.66501428373158" lon="6.269371714442968">
        <ele>513.96000000000004</ele>
        <time>2013-07-15T08:56:43Z</time>
      </trkpt>
      <trkpt lat="50.664930967614055" lon="6.269055129960179">
        <ele>512.51999999999998</ele>
        <time>2013-07-15T08:57:01Z</time>
      </trkpt>
      <trkpt lat="50.664814375340939" lon="6.268747262656689">
        <ele>511.56</ele>
        <time>2013-07-15T08:57:16Z</time>
      </trkpt>
      <trkpt lat="50.664728377014399" lon="6.268529500812292">
        <ele>511.07999999999998</ele>
        <time>2013-07-15T08:57:29Z</time>
      </trkpt>
      <trkpt lat="50.664616478607059" lon="6.268321881070733">
        <ele>510.60000000000002</ele>
        <time>2013-07-15T08:57:42Z</time>
      </trkpt>
      <trkpt lat="50.664449846372008" lon="6.268001943826675">
        <ele>509.63999999999999</ele>
        <time>2013-07-15T08:58:00Z</time>
      </trkpt>
      <trkpt lat="50.66431506536901" lon="6.267700446769595">
        <ele>508.19</ele>
        <time>2013-07-15T08:58:19Z</time>
      </trkpt>
      <trkpt lat="50.664171567186713" lon="6.267503555864096">
        <ele>507.70999999999998</ele>
        <time>2013-07-15T08:58:35Z</time>
      </trkpt>
      <trkpt lat="50.6640116404742" lon="6.26725897192955">
        <ele>506.75</ele>
        <time>2013-07-15T08:58:52Z</time>
      </trkpt>
      <trkpt lat="50.663898903876543" lon="6.267063925042749">
        <ele>506.26999999999998</ele>
        <time>2013-07-15T08:59:04Z</time>
      </trkpt>
      <trkpt lat="50.663890102878213" lon="6.267040790989995">
        <ele>506.26999999999998</ele>
        <time>2013-07-15T08:59:05Z</time>
      </trkpt>
      <trkpt lat="50.663756160065532" lon="6.266833757981658">
        <ele>505.31</ele>
        <time>2013-07-15T08:59:20Z</time>
      </trkpt>
      <trkpt lat="50.663586761802435" lon="6.266600908711553">
        <ele>505.31</ele>
        <time>2013-07-15T08:59:37Z</time>
      </trkpt>
      <trkpt lat="50.663459356874228" lon="6.266422709450126">
        <ele>504.82999999999998</ele>
        <time>2013-07-15T08:59:50Z</time>
      </trkpt>
      <trkpt lat="50.663448292762041" lon="6.26640778966248">
        <ele>504.82999999999998</ele>
        <time>2013-07-15T08:59:51Z</time>
      </trkpt>
      <trkpt lat="50.663439491763711" lon="6.266396474093199">
        <ele>504.82999999999998</ele>
        <time>2013-07-15T08:59:52Z</time>
      </trkpt>
      <trkpt lat="50.663430104032159" lon="6.266383985057473">
        <ele>504.82999999999998</ele>
        <time>2013-07-15T08:59:53Z</time>
      </trkpt>
      <trkpt lat="50.663421051576734" lon="6.266368394717574">
        <ele>504.82999999999998</ele>
        <time>2013-07-15T08:59:54Z</time>
      </trkpt>
      <trkpt lat="50.663413507863879" lon="6.266352385282517">
        <ele>504.82999999999998</ele>
        <time>2013-07-15T08:59:55Z</time>
      </trkpt>
      <trkpt lat="50.663405461236835" lon="6.266339728608728">
        <ele>504.82999999999998</ele>
        <time>2013-07-15T08:59:56Z</time>
      </trkpt>
      <trkpt lat="50.663398252800107" lon="6.266326904296875">
        <ele>504.82999999999998</ele>
        <time>2013-07-15T08:59:57Z</time>
      </trkpt>
      <trkpt lat="50.663252240046859" lon="6.26610578969121">
        <ele>504.82999999999998</ele>
        <time>2013-07-15T09:00:13Z</time>
      </trkpt>
      <trkpt lat="50.663089044392109" lon="6.265873275697231">
        <ele>504.82999999999998</ele>
        <time>2013-07-15T09:00:25Z</time>
      </trkpt>
      <trkpt lat="50.662746895104647" lon="6.265407325699925">
        <ele>504.82999999999998</ele>
        <time>2013-07-15T09:00:40Z</time>
      </trkpt>
      <trkpt lat="50.662422934547067" lon="6.264929221943021">
        <ele>505.31</ele>
        <time>2013-07-15T09:00:54Z</time>
      </trkpt>
      <trkpt lat="50.662152534350753" lon="6.26453191973269">
        <ele>506.26999999999998</ele>
        <time>2013-07-15T09:01:06Z</time>
      </trkpt>
      <trkpt lat="50.66187534481287" lon="6.264102095738053">
        <ele>507.70999999999998</ele>
        <time>2013-07-15T09:01:19Z</time>
      </trkpt>
      <trkpt lat="50.661768307909369" lon="6.263933954760432">
        <ele>507.70999999999998</ele>
        <time>2013-07-15T09:01:27Z</time>
      </trkpt>
      <trkpt lat="50.661804350093007" lon="6.263764640316367">
        <ele>508.19</ele>
        <time>2013-07-15T09:01:37Z</time>
      </trkpt>
      <trkpt lat="50.661811390891671" lon="6.263750307261944">
        <ele>506.75</ele>
        <time>2013-07-15T09:01:38Z</time>
      </trkpt>
      <trkpt lat="50.661821784451604" lon="6.263733878731728">
        <ele>506.75</ele>
        <time>2013-07-15T09:01:39Z</time>
      </trkpt>
      <trkpt lat="50.661939298734069" lon="6.263594906777144">
        <ele>504.82999999999998</ele>
        <time>2013-07-15T09:01:50Z</time>
      </trkpt>
      <trkpt lat="50.661949524655938" lon="6.263584345579147">
        <ele>504.82999999999998</ele>
        <time>2013-07-15T09:01:51Z</time>
      </trkpt>
      <trkpt lat="50.66201071254909" lon="6.263494994491339">
        <ele>504.35000000000002</ele>
        <time>2013-07-15T09:02:03Z</time>
      </trkpt>
      <trkpt lat="50.662027392536402" lon="6.26346867531538">
        <ele>503.87</ele>
        <time>2013-07-15T09:02:06Z</time>
      </trkpt>
      <trkpt lat="50.662071481347084" lon="6.263403631746769">
        <ele>503.38999999999999</ele>
        <time>2013-07-15T09:02:13Z</time>
      </trkpt>
      <trkpt lat="50.662081958726048" lon="6.263389885425568">
        <ele>503.38999999999999</ele>
        <time>2013-07-15T09:02:14Z</time>
      </trkpt>
      <trkpt lat="50.662097632884979" lon="6.263377480208874">
        <ele>502.43000000000001</ele>
        <time>2013-07-15T09:02:15Z</time>
      </trkpt>
      <trkpt lat="50.662109199911356" lon="6.263364907354116">
        <ele>502.43000000000001</ele>
        <time>2013-07-15T09:02:16Z</time>
      </trkpt>
      <trkpt lat="50.662185307592154" lon="6.263283602893353">
        <ele>501.45999999999998</ele>
        <time>2013-07-15T09:02:24Z</time>
      </trkpt>
      <trkpt lat="50.662258230149746" lon="6.26316818408668">
        <ele>500.5</ele>
        <time>2013-07-15T09:02:33Z</time>
      </trkpt>
      <trkpt lat="50.662282286211848" lon="6.263120323419571">
        <ele>500.5</ele>
        <time>2013-07-15T09:02:37Z</time>
      </trkpt>
      <trkpt lat="50.662293015047908" lon="6.26310758292675">
        <ele>500.5</ele>
        <time>2013-07-15T09:02:38Z</time>
      </trkpt>
      <trkpt lat="50.66233417019248" lon="6.263029631227255">
        <ele>499.54000000000002</ele>
        <time>2013-07-15T09:02:44Z</time>
      </trkpt>
      <trkpt lat="50.662432322278619" lon="6.262922678142786">
        <ele>498.57999999999998</ele>
        <time>2013-07-15T09:02:53Z</time>
      </trkpt>
      <trkpt lat="50.662453193217516" lon="6.262893006205559">
        <ele>498.10000000000002</ele>
        <time>2013-07-15T09:02:55Z</time>
      </trkpt>
      <trkpt lat="50.662498120218515" lon="6.262860903516412">
        <ele>497.62</ele>
        <time>2013-07-15T09:02:59Z</time>
      </trkpt>
      <trkpt lat="50.662630805745721" lon="6.262746322900057">
        <ele>496.18000000000001</ele>
        <time>2013-07-15T09:03:14Z</time>
      </trkpt>
      <trkpt lat="50.662740273401141" lon="6.26263752579689">
        <ele>495.69999999999999</ele>
        <time>2013-07-15T09:03:32Z</time>
      </trkpt>
      <trkpt lat="50.662767430767417" lon="6.262600226327777">
        <ele>495.22000000000003</ele>
        <time>2013-07-15T09:03:36Z</time>
      </trkpt>
      <trkpt lat="50.66284722648561" lon="6.262574326246977">
        <ele>495.22000000000003</ele>
        <time>2013-07-15T09:03:45Z</time>
      </trkpt>
      <trkpt lat="50.66300212405622" lon="6.262449938803911">
        <ele>494.25999999999999</ele>
        <time>2013-07-15T09:03:58Z</time>
      </trkpt>
      <trkpt lat="50.663029700517654" lon="6.262417584657669">
        <ele>493.76999999999998</ele>
        <time>2013-07-15T09:04:01Z</time>
      </trkpt>
      <trkpt lat="50.663223154842854" lon="6.262275343760848">
        <ele>492.32999999999998</ele>
        <time>2013-07-15T09:04:18Z</time>
      </trkpt>
      <trkpt lat="50.663295658305287" lon="6.262210551649332">
        <ele>492.32999999999998</ele>
        <time>2013-07-15T09:04:24Z</time>
      </trkpt>
      <trkpt lat="50.663318205624819" lon="6.262202253565192">
        <ele>492.32999999999998</ele>
        <time>2013-07-15T09:04:26Z</time>
      </trkpt>
      <trkpt lat="50.663334717974067" lon="6.262182807549834">
        <ele>492.32999999999998</ele>
        <time>2013-07-15T09:04:28Z</time>
      </trkpt>
      <trkpt lat="50.663497410714626" lon="6.262023467570543">
        <ele>490.88999999999999</ele>
        <time>2013-07-15T09:04:45Z</time>
      </trkpt>
      <trkpt lat="50.66357770934701" lon="6.261938055977225">
        <ele>489.93000000000001</ele>
        <time>2013-07-15T09:04:54Z</time>
      </trkpt>
      <trkpt lat="50.663666725158691" lon="6.261866977438331">
        <ele>489.93000000000001</ele>
        <time>2013-07-15T09:05:01Z</time>
      </trkpt>
      <trkpt lat="50.663716681301594" lon="6.261822804808617">
        <ele>489.44999999999999</ele>
        <time>2013-07-15T09:05:06Z</time>
      </trkpt>
      <trkpt lat="50.663765715435147" lon="6.261758850887418">
        <ele>489.44999999999999</ele>
        <time>2013-07-15T09:05:13Z</time>
      </trkpt>
      <trkpt lat="50.663858167827129" lon="6.261657765135169">
        <ele>488.49000000000001</ele>
        <time>2013-07-15T09:05:21Z</time>
      </trkpt>
      <trkpt lat="50.663949279114604" lon="6.261562965810299">
        <ele>488.00999999999999</ele>
        <time>2013-07-15T09:05:30Z</time>
      </trkpt>
      <trkpt lat="50.663983142003417" lon="6.26150387339294">
        <ele>488.00999999999999</ele>
        <time>2013-07-15T09:05:43Z</time>
      </trkpt>
      <trkpt lat="50.664018681272864" lon="6.261439248919487">
        <ele>488.00999999999999</ele>
        <time>2013-07-15T09:05:53Z</time>
      </trkpt>
      <trkpt lat="50.664034942165017" lon="6.26139641739428">
        <ele>487.52999999999997</ele>
        <time>2013-07-15T09:05:56Z</time>
      </trkpt>
      <trkpt lat="50.664204340428114" lon="6.261285273358226">
        <ele>486.07999999999998</ele>
        <time>2013-07-15T09:06:11Z</time>
      </trkpt>
      <trkpt lat="50.664297295734286" lon="6.261203130707145">
        <ele>486.07999999999998</ele>
        <time>2013-07-15T09:06:24Z</time>
      </trkpt>
      <trkpt lat="50.664368877187371" lon="6.261112606152892">
        <ele>485.60000000000002</ele>
        <time>2013-07-15T09:06:32Z</time>
      </trkpt>
      <trkpt lat="50.664433920755982" lon="6.26106021925807">
        <ele>485.12</ele>
        <time>2013-07-15T09:06:39Z</time>
      </trkpt>
      <trkpt lat="50.664465017616749" lon="6.261043874546886">
        <ele>485.12</ele>
        <time>2013-07-15T09:06:50Z</time>
      </trkpt>
      <trkpt lat="50.664540957659483" lon="6.260952763259411">
        <ele>484.63999999999999</ele>
        <time>2013-07-15T09:07:03Z</time>
      </trkpt>
      <trkpt lat="50.664587141945958" lon="6.260858131572604">
        <ele>484.63999999999999</ele>
        <time>2013-07-15T09:07:16Z</time>
      </trkpt>
      <trkpt lat="50.664655705913901" lon="6.260792668908835">
        <ele>483.68000000000001</ele>
        <time>2013-07-15T09:07:26Z</time>
      </trkpt>
      <trkpt lat="50.66478562541306" lon="6.260638860985637">
        <ele>482.72000000000003</ele>
        <time>2013-07-15T09:07:41Z</time>
      </trkpt>
      <trkpt lat="50.664920657873154" lon="6.260528219863772">
        <ele>481.75999999999999</ele>
        <time>2013-07-15T09:07:55Z</time>
      </trkpt>
      <trkpt lat="50.66498595289886" lon="6.260461332276464">
        <ele>480.80000000000001</ele>
        <time>2013-07-15T09:08:10Z</time>
      </trkpt>
      <trkpt lat="50.665064491331577" lon="6.260400395840406">
        <ele>479.83999999999997</ele>
        <time>2013-07-15T09:08:20Z</time>
      </trkpt>
      <trkpt lat="50.665158536285162" lon="6.260334262624383">
        <ele>478.87</ele>
        <time>2013-07-15T09:08:29Z</time>
      </trkpt>
      <trkpt lat="50.665265489369631" lon="6.260235775262117">
        <ele>478.87</ele>
        <time>2013-07-15T09:08:44Z</time>
      </trkpt>
      <trkpt lat="50.665285103023052" lon="6.260212892666459">
        <ele>477.91000000000003</ele>
        <time>2013-07-15T09:08:49Z</time>
      </trkpt>
      <trkpt lat="50.665367916226387" lon="6.260122200474143">
        <ele>477.43000000000001</ele>
        <time>2013-07-15T09:08:59Z</time>
      </trkpt>
      <trkpt lat="50.66547067835927" lon="6.26002480275929">
        <ele>476.47000000000003</ele>
        <time>2013-07-15T09:09:12Z</time>
      </trkpt>
      <trkpt lat="50.665573691949248" lon="6.259912652894855">
        <ele>475.50999999999999</ele>
        <time>2013-07-15T09:09:26Z</time>
      </trkpt>
      <trkpt lat="50.665713250637054" lon="6.259763455018401">
        <ele>474.06999999999999</ele>
        <time>2013-07-15T09:09:42Z</time>
      </trkpt>
      <trkpt lat="50.665743425488472" lon="6.259722383692861">
        <ele>473.58999999999997</ele>
        <time>2013-07-15T09:09:46Z</time>
      </trkpt>
      <trkpt lat="50.665863957256079" lon="6.259615933522582">
        <ele>472.63</ele>
        <time>2013-07-15T09:09:59Z</time>
      </trkpt>
      <trkpt lat="50.665901089087129" lon="6.259518787264824">
        <ele>472.63</ele>
        <time>2013-07-15T09:10:08Z</time>
      </trkpt>
      <trkpt lat="50.665966467931867" lon="6.259476458653808">
        <ele>472.13999999999999</ele>
        <time>2013-07-15T09:10:14Z</time>
      </trkpt>
      <trkpt lat="50.666016675531864" lon="6.259426502510905">
        <ele>471.18000000000001</ele>
        <time>2013-07-15T09:10:19Z</time>
      </trkpt>
      <trkpt lat="50.666121365502477" lon="6.259296331554651">
        <ele>470.22000000000003</ele>
        <time>2013-07-15T09:10:33Z</time>
      </trkpt>
      <trkpt lat="50.666251285001636" lon="6.259161131456494">
        <ele>468.77999999999997</ele>
        <time>2013-07-15T09:10:48Z</time>
      </trkpt>
      <trkpt lat="50.666376929730177" lon="6.259023416787386">
        <ele>467.33999999999997</ele>
        <time>2013-07-15T09:11:03Z</time>
      </trkpt>
      <trkpt lat="50.666526379063725" lon="6.258887629956007">
        <ele>465.89999999999998</ele>
        <time>2013-07-15T09:11:18Z</time>
      </trkpt>
      <trkpt lat="50.666684377938509" lon="6.258696941658855">
        <ele>464.44999999999999</ele>
        <time>2013-07-15T09:11:31Z</time>
      </trkpt>
      <trkpt lat="50.667272200807929" lon="6.257968889549375">
        <ele>459.17000000000002</ele>
        <time>2013-07-15T09:12:36Z</time>
      </trkpt>
      <trkpt lat="50.66730841062963" lon="6.257937122136354">
        <ele>459.17000000000002</ele>
        <time>2013-07-15T09:12:40Z</time>
      </trkpt>
      <trkpt lat="50.66740857437253" lon="6.257728496566415">
        <ele>457.24000000000001</ele>
        <time>2013-07-15T09:12:56Z</time>
      </trkpt>
      <trkpt lat="50.667418213561177" lon="6.257643839344382">
        <ele>457.72000000000003</ele>
        <time>2013-07-15T09:13:00Z</time>
      </trkpt>
      <trkpt lat="50.667418381199241" lon="6.257496569305658">
        <ele>457.24000000000001</ele>
        <time>2013-07-15T09:13:08Z</time>
      </trkpt>
      <trkpt lat="50.667412094771862" lon="6.257357010617852">
        <ele>457.24000000000001</ele>
        <time>2013-07-15T09:13:16Z</time>
      </trkpt>
      <trkpt lat="50.667397174984217" lon="6.257257768884301">
        <ele>456.75999999999999</ele>
        <time>2013-07-15T09:13:24Z</time>
      </trkpt>
      <trkpt lat="50.667363647371531" lon="6.257018130272627">
        <ele>455.80000000000001</ele>
        <time>2013-07-15T09:13:38Z</time>
      </trkpt>
      <trkpt lat="50.667339339852333" lon="6.256805900484324">
        <ele>455.31999999999999</ele>
        <time>2013-07-15T09:13:50Z</time>
      </trkpt>
      <trkpt lat="50.667318217456341" lon="6.256732977926731">
        <ele>455.31999999999999</ele>
        <time>2013-07-15T09:13:54Z</time>
      </trkpt>
      <trkpt lat="50.667346129193902" lon="6.256372388452292">
        <ele>454.83999999999997</ele>
        <time>2013-07-15T09:14:12Z</time>
      </trkpt>
      <trkpt lat="50.667426008731127" lon="6.256171138957143">
        <ele>453.88</ele>
        <time>2013-07-15T09:14:22Z</time>
      </trkpt>
      <trkpt lat="50.668386491015553" lon="6.253719767555594">
        <ele>445.70999999999998</ele>
        <time>2013-07-15T09:16:14Z</time>
      </trkpt>
      <trkpt lat="50.668842131271958" lon="6.253391616046429">
        <ele>443.31</ele>
        <time>2013-07-15T09:16:29Z</time>
      </trkpt>
      <trkpt lat="50.669010942801833" lon="6.25326563604176">
        <ele>442.81999999999999</ele>
        <time>2013-07-15T09:16:36Z</time>
      </trkpt>
      <trkpt lat="50.669033909216523" lon="6.253249542787671">
        <ele>442.81999999999999</ele>
        <time>2013-07-15T09:16:37Z</time>
      </trkpt>
      <trkpt lat="50.669055869802833" lon="6.253229258581996">
        <ele>442.33999999999997</ele>
        <time>2013-07-15T09:16:38Z</time>
      </trkpt>
      <trkpt lat="50.669356277212501" lon="6.252851318567991">
        <ele>439.94</ele>
        <time>2013-07-15T09:16:52Z</time>
      </trkpt>
      <trkpt lat="50.669594323262572" lon="6.252451334148645">
        <ele>438.5</ele>
        <time>2013-07-15T09:17:05Z</time>
      </trkpt>
      <trkpt lat="50.669833291321993" lon="6.252114297822118">
        <ele>437.06</ele>
        <time>2013-07-15T09:17:19Z</time>
      </trkpt>
      <trkpt lat="50.669923815876245" lon="6.251738201826811">
        <ele>437.06</ele>
        <time>2013-07-15T09:17:23Z</time>
      </trkpt>
      <trkpt lat="50.669513354077935" lon="6.250218814238906">
        <ele>438.98000000000002</ele>
        <time>2013-07-15T09:18:12Z</time>
      </trkpt>
      <trkpt lat="50.66959029994905" lon="6.250169612467289">
        <ele>438.01999999999998</ele>
        <time>2013-07-15T09:18:22Z</time>
      </trkpt>
      <trkpt lat="50.669639585539699" lon="6.250194422900677">
        <ele>437.06</ele>
        <time>2013-07-15T09:18:26Z</time>
      </trkpt>
      <trkpt lat="50.670330924913287" lon="6.250932533293963">
        <ele>430.32999999999998</ele>
        <time>2013-07-15T09:19:35Z</time>
      </trkpt>
      <trkpt lat="50.670661339536309" lon="6.251486744731665">
        <ele>426.95999999999998</ele>
        <time>2013-07-15T09:20:18Z</time>
      </trkpt>
      <trkpt lat="50.670700818300247" lon="6.251611467450857">
        <ele>426.48000000000002</ele>
        <time>2013-07-15T09:21:19Z</time>
      </trkpt>
      <trkpt lat="50.671113207936287" lon="6.252375058829784">
        <ele>424.07999999999998</ele>
        <time>2013-07-15T09:25:18Z</time>
      </trkpt>
      <trkpt lat="50.67114464007318" lon="6.252441611140966">
        <ele>424.07999999999998</ele>
        <time>2013-07-15T09:25:22Z</time>
      </trkpt>
      <trkpt lat="50.671150088310242" lon="6.252455357462168">
        <ele>424.07999999999998</ele>
        <time>2013-07-15T09:25:23Z</time>
      </trkpt>
      <trkpt lat="50.671154949814081" lon="6.25247354619205">
        <ele>424.07999999999998</ele>
        <time>2013-07-15T09:25:24Z</time>
      </trkpt>
      <trkpt lat="50.67122669890523" lon="6.252729613333941">
        <ele>423.12</ele>
        <time>2013-07-15T09:25:38Z</time>
      </trkpt>
      <trkpt lat="50.67135670222342" lon="6.252928851172328">
        <ele>421.19</ele>
        <time>2013-07-15T09:25:52Z</time>
      </trkpt>
      <trkpt lat="50.67143146879971" lon="6.253064973279834">
        <ele>420.70999999999998</ele>
        <time>2013-07-15T09:26:01Z</time>
      </trkpt>
      <trkpt lat="50.671441862359643" lon="6.253071930259466">
        <ele>420.23000000000002</ele>
        <time>2013-07-15T09:26:02Z</time>
      </trkpt>
      <trkpt lat="50.67242095246911" lon="6.253996202722192">
        <ele>410.62</ele>
        <time>2013-07-15T09:27:36Z</time>
      </trkpt>
      <trkpt lat="50.672572162002325" lon="6.254121847450733">
        <ele>408.69999999999999</ele>
        <time>2013-07-15T09:27:50Z</time>
      </trkpt>
      <trkpt lat="50.672737620770931" lon="6.254286719486117">
        <ele>406.76999999999998</ele>
        <time>2013-07-15T09:28:07Z</time>
      </trkpt>
      <trkpt lat="50.673724422231317" lon="6.255062632262707">
        <ele>395.72000000000003</ele>
        <time>2013-07-15T09:29:53Z</time>
      </trkpt>
      <trkpt lat="50.673875547945499" lon="6.25512189231813">
        <ele>395.24000000000001</ele>
        <time>2013-07-15T09:29:57Z</time>
      </trkpt>
      <trkpt lat="50.674927057698369" lon="6.255286764353514">
        <ele>389.47000000000003</ele>
        <time>2013-07-15T09:31:11Z</time>
      </trkpt>
      <trkpt lat="50.675112968310714" lon="6.25527243129909">
        <ele>388.99000000000001</ele>
        <time>2013-07-15T09:31:18Z</time>
      </trkpt>
      <trkpt lat="50.675114393234253" lon="6.255053915083408">
        <ele>388.50999999999999</ele>
        <time>2013-07-15T09:31:32Z</time>
      </trkpt>
      <trkpt lat="50.67516359500587" lon="6.25499096699059">
        <ele>388.50999999999999</ele>
        <time>2013-07-15T09:31:54Z</time>
      </trkpt>
      <trkpt lat="50.675167199224234" lon="6.254911255091429">
        <ele>388.50999999999999</ele>
        <time>2013-07-15T09:32:00Z</time>
      </trkpt>
      <trkpt lat="50.675166444852948" lon="6.254881247878075">
        <ele>388.50999999999999</ele>
        <time>2013-07-15T09:32:01Z</time>
      </trkpt>
      <trkpt lat="50.675169881433249" lon="6.254846546798945">
        <ele>388.50999999999999</ele>
        <time>2013-07-15T09:32:02Z</time>
      </trkpt>
      <trkpt lat="50.675179520621896" lon="6.254819305613637">
        <ele>388.50999999999999</ele>
        <time>2013-07-15T09:32:03Z</time>
      </trkpt>
      <trkpt lat="50.675193015486002" lon="6.254789885133505">
        <ele>388.50999999999999</ele>
        <time>2013-07-15T09:32:04Z</time>
      </trkpt>
      <trkpt lat="50.675205001607537" lon="6.254755854606628">
        <ele>388.50999999999999</ele>
        <time>2013-07-15T09:32:05Z</time>
      </trkpt>
      <trkpt lat="50.675380434840918" lon="6.254364084452391">
        <ele>390.91000000000003</ele>
        <time>2013-07-15T09:32:16Z</time>
      </trkpt>
      <trkpt lat="50.675666425377131" lon="6.254129139706492">
        <ele>393.80000000000001</ele>
        <time>2013-07-15T09:32:28Z</time>
      </trkpt>
      <trkpt lat="50.676035899668932" lon="6.253961753100157">
        <ele>395.24000000000001</ele>
        <time>2013-07-15T09:32:42Z</time>
      </trkpt>
      <trkpt lat="50.67619800567627" lon="6.253496054559946">
        <ele>396.68000000000001</ele>
        <time>2013-07-15T09:32:53Z</time>
      </trkpt>
      <trkpt lat="50.676211165264249" lon="6.252973023802042">
        <ele>396.68000000000001</ele>
        <time>2013-07-15T09:33:04Z</time>
      </trkpt>
      <trkpt lat="50.676207225769758" lon="6.252521742135286">
        <ele>396.19999999999999</ele>
        <time>2013-07-15T09:33:17Z</time>
      </trkpt>
      <trkpt lat="50.676207225769758" lon="6.252474300563335">
        <ele>396.19999999999999</ele>
        <time>2013-07-15T09:33:19Z</time>
      </trkpt>
      <trkpt lat="50.676208315417171" lon="6.252444544807077">
        <ele>396.19999999999999</ele>
        <time>2013-07-15T09:33:20Z</time>
      </trkpt>
      <trkpt lat="50.676240418106318" lon="6.251779440790415">
        <ele>394.75999999999999</ele>
        <time>2013-07-15T09:33:54Z</time>
      </trkpt>
      <trkpt lat="50.676263719797134" lon="6.251777848228812">
        <ele>394.75999999999999</ele>
        <time>2013-07-15T09:33:55Z</time>
      </trkpt>
      <trkpt lat="50.676289619877934" lon="6.251788828521967">
        <ele>394.27999999999997</ele>
        <time>2013-07-15T09:33:56Z</time>
      </trkpt>
      <trkpt lat="50.676312334835529" lon="6.251810286194086">
        <ele>394.27999999999997</ele>
        <time>2013-07-15T09:33:57Z</time>
      </trkpt>
      <trkpt lat="50.676332954317331" lon="6.251840041950345">
        <ele>394.27999999999997</ele>
        <time>2013-07-15T09:33:58Z</time>
      </trkpt>
      <trkpt lat="50.676350556313992" lon="6.251879017800093">
        <ele>393.80000000000001</ele>
        <time>2013-07-15T09:33:59Z</time>
      </trkpt>
      <trkpt lat="50.676366984844208" lon="6.251917323097587">
        <ele>393.80000000000001</ele>
        <time>2013-07-15T09:34:00Z</time>
      </trkpt>
      <trkpt lat="50.676383413374424" lon="6.251954203471541">
        <ele>393.80000000000001</ele>
        <time>2013-07-15T09:34:01Z</time>
      </trkpt>
      <trkpt lat="50.676621375605464" lon="6.252481928095222">
        <ele>392.36000000000001</ele>
        <time>2013-07-15T09:34:14Z</time>
      </trkpt>
      <trkpt lat="50.6768698990345" lon="6.252941340208054">
        <ele>391.87</ele>
        <time>2013-07-15T09:34:25Z</time>
      </trkpt>
      <trkpt lat="50.677178185433149" lon="6.253234539180994">
        <ele>389.94999999999999</ele>
        <time>2013-07-15T09:35:33Z</time>
      </trkpt>
      <trkpt lat="50.677202409133315" lon="6.25304619781673">
        <ele>388.50999999999999</ele>
        <time>2013-07-15T09:35:43Z</time>
      </trkpt>
      <trkpt lat="50.677265105769038" lon="6.252785688266158">
        <ele>387.55000000000001</ele>
        <time>2013-07-15T09:35:57Z</time>
      </trkpt>
      <trkpt lat="50.677366023883224" lon="6.252606315538287">
        <ele>387.06999999999999</ele>
        <time>2013-07-15T09:36:10Z</time>
      </trkpt>
      <trkpt lat="50.6775485817343" lon="6.25252777710557">
        <ele>386.58999999999997</ele>
        <time>2013-07-15T09:36:25Z</time>
      </trkpt>
      <trkpt lat="50.677667772397399" lon="6.252456195652485">
        <ele>385.63</ele>
        <time>2013-07-15T09:36:36Z</time>
      </trkpt>
      <trkpt lat="50.677844127640128" lon="6.252363324165344">
        <ele>384.66000000000003</ele>
        <time>2013-07-15T09:36:51Z</time>
      </trkpt>
      <trkpt lat="50.677929623052478" lon="6.252341363579035">
        <ele>384.18000000000001</ele>
        <time>2013-07-15T09:36:59Z</time>
      </trkpt>
      <trkpt lat="50.677940603345633" lon="6.252340944483876">
        <ele>383.69999999999999</ele>
        <time>2013-07-15T09:37:00Z</time>
      </trkpt>
      <trkpt lat="50.677953762933612" lon="6.252339016646147">
        <ele>383.69999999999999</ele>
        <time>2013-07-15T09:37:01Z</time>
      </trkpt>
      <trkpt lat="50.677980165928602" lon="6.252335915341973">
        <ele>383.69999999999999</ele>
        <time>2013-07-15T09:37:04Z</time>
      </trkpt>
      <trkpt lat="50.677991732954979" lon="6.252326276153326">
        <ele>383.69999999999999</ele>
        <time>2013-07-15T09:37:05Z</time>
      </trkpt>
      <trkpt lat="50.6780044734478" lon="6.252315295860171">
        <ele>383.69999999999999</ele>
        <time>2013-07-15T09:37:06Z</time>
      </trkpt>
      <trkpt lat="50.678160795941949" lon="6.252254610881209">
        <ele>383.22000000000003</ele>
        <time>2013-07-15T09:37:18Z</time>
      </trkpt>
      <trkpt lat="50.678210500627756" lon="6.252246061339974">
        <ele>382.74000000000001</ele>
        <time>2013-07-15T09:37:22Z</time>
      </trkpt>
      <trkpt lat="50.678224330767989" lon="6.25223801471293">
        <ele>382.74000000000001</ele>
        <time>2013-07-15T09:37:23Z</time>
      </trkpt>
      <trkpt lat="50.678322482854128" lon="6.252197781577706">
        <ele>381.77999999999997</ele>
        <time>2013-07-15T09:37:33Z</time>
      </trkpt>
      <trkpt lat="50.678492384031415" lon="6.25217548571527">
        <ele>381.30000000000001</ele>
        <time>2013-07-15T09:37:47Z</time>
      </trkpt>
      <trkpt lat="50.678641246631742" lon="6.252167355269194">
        <ele>380.33999999999997</ele>
        <time>2013-07-15T09:38:00Z</time>
      </trkpt>
      <trkpt lat="50.678775189444423" lon="6.252139192074537">
        <ele>379.38</ele>
        <time>2013-07-15T09:38:12Z</time>
      </trkpt>
      <trkpt lat="50.678814752027392" lon="6.252112789079547">
        <ele>379.38</ele>
        <time>2013-07-15T09:38:15Z</time>
      </trkpt>
      <trkpt lat="50.679015414789319" lon="6.251998711377382">
        <ele>378.42000000000002</ele>
        <time>2013-07-15T09:38:30Z</time>
      </trkpt>
      <trkpt lat="50.679200571030378" lon="6.251911539584398">
        <ele>377.94</ele>
        <time>2013-07-15T09:38:44Z</time>
      </trkpt>
      <trkpt lat="50.679363515228033" lon="6.251796036958695">
        <ele>376.97000000000003</ele>
        <time>2013-07-15T09:38:58Z</time>
      </trkpt>
      <trkpt lat="50.679531069472432" lon="6.251677768304944">
        <ele>375.52999999999997</ele>
        <time>2013-07-15T09:39:14Z</time>
      </trkpt>
      <trkpt lat="50.679702311754227" lon="6.251554638147354">
        <ele>375.05000000000001</ele>
        <time>2013-07-15T09:39:31Z</time>
      </trkpt>
      <trkpt lat="50.679862573742867" lon="6.251480206847191">
        <ele>374.08999999999997</ele>
        <time>2013-07-15T09:39:46Z</time>
      </trkpt>
      <trkpt lat="50.679873805493116" lon="6.251470316201448">
        <ele>374.08999999999997</ele>
        <time>2013-07-15T09:39:47Z</time>
      </trkpt>
      <trkpt lat="50.679884115234017" lon="6.251460425555706">
        <ele>374.08999999999997</ele>
        <time>2013-07-15T09:39:48Z</time>
      </trkpt>
      <trkpt lat="50.679914206266403" lon="6.251450115814805">
        <ele>373.61000000000001</ele>
        <time>2013-07-15T09:39:51Z</time>
      </trkpt>
      <trkpt lat="50.679925438016653" lon="6.251448439434171">
        <ele>373.61000000000001</ele>
        <time>2013-07-15T09:39:52Z</time>
      </trkpt>
      <trkpt lat="50.680094081908464" lon="6.251468975096941">
        <ele>372.64999999999998</ele>
        <time>2013-07-15T09:40:06Z</time>
      </trkpt>
      <trkpt lat="50.680265575647354" lon="6.251498395577073">
        <ele>372.17000000000002</ele>
        <time>2013-07-15T09:40:19Z</time>
      </trkpt>
      <trkpt lat="50.68046766333282" lon="6.251579616218805">
        <ele>371.69</ele>
        <time>2013-07-15T09:40:35Z</time>
      </trkpt>
      <trkpt lat="50.680703530088067" lon="6.251699142158032">
        <ele>370.24000000000001</ele>
        <time>2013-07-15T09:40:53Z</time>
      </trkpt>
      <trkpt lat="50.680789528414607" lon="6.251747589558363">
        <ele>370.24000000000001</ele>
        <time>2013-07-15T09:40:58Z</time>
      </trkpt>
      <trkpt lat="50.680808052420616" lon="6.251766448840499">
        <ele>370.24000000000001</ele>
        <time>2013-07-15T09:40:59Z</time>
      </trkpt>
      <trkpt lat="50.680823223665357" lon="6.251769717782736">
        <ele>370.24000000000001</ele>
        <time>2013-07-15T09:41:00Z</time>
      </trkpt>
      <trkpt lat="50.680927829816937" lon="6.251775333657861">
        <ele>369.75999999999999</ele>
        <time>2013-07-15T09:41:14Z</time>
      </trkpt>
      <trkpt lat="50.680956412106752" lon="6.251774160191417">
        <ele>369.75999999999999</ele>
        <time>2013-07-15T09:41:19Z</time>
      </trkpt>
      <trkpt lat="50.680967560037971" lon="6.251772819086909">
        <ele>369.75999999999999</ele>
        <time>2013-07-15T09:41:20Z</time>
      </trkpt>
      <trkpt lat="50.681211808696389" lon="6.251764101907611">
        <ele>368.31999999999999</ele>
        <time>2013-07-15T09:41:32Z</time>
      </trkpt>
      <trkpt lat="50.681390427052975" lon="6.251725796610117">
        <ele>367.36000000000001</ele>
        <time>2013-07-15T09:41:44Z</time>
      </trkpt>
      <trkpt lat="50.681590083986521" lon="6.251658741384745">
        <ele>366.39999999999998</ele>
        <time>2013-07-15T09:41:59Z</time>
      </trkpt>
      <trkpt lat="50.681774904951453" lon="6.251608030870557">
        <ele>365.44</ele>
        <time>2013-07-15T09:42:14Z</time>
      </trkpt>
      <trkpt lat="50.681981351226568" lon="6.251634769141674">
        <ele>364.48000000000002</ele>
        <time>2013-07-15T09:42:30Z</time>
      </trkpt>
      <trkpt lat="50.682129375636578" lon="6.251692268997431">
        <ele>364</ele>
        <time>2013-07-15T09:42:42Z</time>
      </trkpt>
      <trkpt lat="50.682139936834574" lon="6.251700399443507">
        <ele>363.51999999999998</ele>
        <time>2013-07-15T09:42:43Z</time>
      </trkpt>
      <trkpt lat="50.68230195902288" lon="6.251844316720963">
        <ele>362.06999999999999</ele>
        <time>2013-07-15T09:42:58Z</time>
      </trkpt>
      <trkpt lat="50.682469848543406" lon="6.252041459083557">
        <ele>360.63</ele>
        <time>2013-07-15T09:43:14Z</time>
      </trkpt>
      <trkpt lat="50.682623740285635" lon="6.252157296985388">
        <ele>359.19</ele>
        <time>2013-07-15T09:43:29Z</time>
      </trkpt>
      <trkpt lat="50.682763969525695" lon="6.252208175137639">
        <ele>359.19</ele>
        <time>2013-07-15T09:43:43Z</time>
      </trkpt>
      <trkpt lat="50.682921633124352" lon="6.252312194555998">
        <ele>358.70999999999998</ele>
        <time>2013-07-15T09:43:58Z</time>
      </trkpt>
      <trkpt lat="50.683082062751055" lon="6.252477150410414">
        <ele>357.26999999999998</ele>
        <time>2013-07-15T09:44:14Z</time>
      </trkpt>
      <trkpt lat="50.683260345831513" lon="6.252640513703227">
        <ele>356.31</ele>
        <time>2013-07-15T09:44:30Z</time>
      </trkpt>
      <trkpt lat="50.683430163189769" lon="6.252783760428429">
        <ele>355.33999999999997</ele>
        <time>2013-07-15T09:44:45Z</time>
      </trkpt>
      <trkpt lat="50.683589335530996" lon="6.252893395721912">
        <ele>354.38</ele>
        <time>2013-07-15T09:45:01Z</time>
      </trkpt>
      <trkpt lat="50.683612553402781" lon="6.252917954698205">
        <ele>354.38</ele>
        <time>2013-07-15T09:45:04Z</time>
      </trkpt>
      <trkpt lat="50.683622108772397" lon="6.252932203933597">
        <ele>354.38</ele>
        <time>2013-07-15T09:45:05Z</time>
      </trkpt>
      <trkpt lat="50.683727134019136" lon="6.253024823963642">
        <ele>353.42000000000002</ele>
        <time>2013-07-15T09:45:15Z</time>
      </trkpt>
      <trkpt lat="50.683769294992089" lon="6.253053657710552">
        <ele>352.94</ele>
        <time>2013-07-15T09:45:19Z</time>
      </trkpt>
      <trkpt lat="50.683778431266546" lon="6.25306430272758">
        <ele>352.94</ele>
        <time>2013-07-15T09:45:20Z</time>
      </trkpt>
      <trkpt lat="50.683788489550352" lon="6.253073941916227">
        <ele>352.94</ele>
        <time>2013-07-15T09:45:21Z</time>
      </trkpt>
      <trkpt lat="50.683798212558031" lon="6.253085592761636">
        <ele>352.94</ele>
        <time>2013-07-15T09:45:22Z</time>
      </trkpt>
      <trkpt lat="50.684045311063528" lon="6.253235209733248">
        <ele>351.98000000000002</ele>
        <time>2013-07-15T09:45:35Z</time>
      </trkpt>
      <trkpt lat="50.684446888044477" lon="6.25353679060936">
        <ele>351.01999999999998</ele>
        <time>2013-07-15T09:45:48Z</time>
      </trkpt>
      <trkpt lat="50.684872940182686" lon="6.253635948523879">
        <ele>350.54000000000002</ele>
        <time>2013-07-15T09:46:01Z</time>
      </trkpt>
      <trkpt lat="50.685348277911544" lon="6.253859410062432">
        <ele>348.13</ele>
        <time>2013-07-15T09:46:16Z</time>
      </trkpt>
      <trkpt lat="50.685670645907521" lon="6.254102317616344">
        <ele>347.64999999999998</ele>
        <time>2013-07-15T09:46:27Z</time>
      </trkpt>
      <trkpt lat="50.685897879302502" lon="6.25431613996625">
        <ele>347.17000000000002</ele>
        <time>2013-07-15T09:46:35Z</time>
      </trkpt>
      <trkpt lat="50.685932245105505" lon="6.254334663972259">
        <ele>347.17000000000002</ele>
        <time>2013-07-15T09:46:36Z</time>
      </trkpt>
      <trkpt lat="50.685961665585637" lon="6.254360899329186">
        <ele>346.69</ele>
        <time>2013-07-15T09:46:37Z</time>
      </trkpt>
      <trkpt lat="50.685987733304501" lon="6.254389649257064">
        <ele>346.69</ele>
        <time>2013-07-15T09:46:38Z</time>
      </trkpt>
      <trkpt lat="50.686013465747237" lon="6.254417225718498">
        <ele>346.69</ele>
        <time>2013-07-15T09:46:39Z</time>
      </trkpt>
      <trkpt lat="50.686040036380291" lon="6.254444969817996">
        <ele>346.69</ele>
        <time>2013-07-15T09:46:40Z</time>
      </trkpt>
      <trkpt lat="50.686064762994647" lon="6.254476653411984">
        <ele>346.20999999999998</ele>
        <time>2013-07-15T09:46:41Z</time>
      </trkpt>
      <trkpt lat="50.686280177906156" lon="6.254787957295775">
        <ele>346.20999999999998</ele>
        <time>2013-07-15T09:46:53Z</time>
      </trkpt>
      <trkpt lat="50.686550410464406" lon="6.25523672439158">
        <ele>345.73000000000002</ele>
        <time>2013-07-15T09:47:05Z</time>
      </trkpt>
      <trkpt lat="50.68689314648509" lon="6.255713906139135">
        <ele>345.73000000000002</ele>
        <time>2013-07-15T09:47:19Z</time>
      </trkpt>
      <trkpt lat="50.687197744846344" lon="6.256171222776175">
        <ele>344.76999999999998</ele>
        <time>2013-07-15T09:47:33Z</time>
      </trkpt>
      <trkpt lat="50.687470911070704" lon="6.256527872756124">
        <ele>342.85000000000002</ele>
        <time>2013-07-15T09:47:45Z</time>
      </trkpt>
      <trkpt lat="50.687724044546485" lon="6.256822161376476">
        <ele>342.37</ele>
        <time>2013-07-15T09:47:56Z</time>
      </trkpt>
      <trkpt lat="50.688052615150809" lon="6.257200855761766">
        <ele>341.88999999999999</ele>
        <time>2013-07-15T09:48:09Z</time>
      </trkpt>
      <trkpt lat="50.688454527407885" lon="6.257588686421514">
        <ele>340.44</ele>
        <time>2013-07-15T09:48:24Z</time>
      </trkpt>
      <trkpt lat="50.688807321712375" lon="6.257997052744031">
        <ele>339.95999999999998</ele>
        <time>2013-07-15T09:48:38Z</time>
      </trkpt>
      <trkpt lat="50.689107645303011" lon="6.258345320820808">
        <ele>338.51999999999998</ele>
        <time>2013-07-15T09:48:50Z</time>
      </trkpt>
      <trkpt lat="50.689309230074286" lon="6.258511785417795">
        <ele>337.07999999999998</ele>
        <time>2013-07-15T09:49:02Z</time>
      </trkpt>
      <trkpt lat="50.689457170665264" lon="6.258536344394088">
        <ele>336.60000000000002</ele>
        <time>2013-07-15T09:49:16Z</time>
      </trkpt>
      <trkpt lat="50.689567560330033" lon="6.258526118472219">
        <ele>336.60000000000002</ele>
        <time>2013-07-15T09:49:26Z</time>
      </trkpt>
      <trkpt lat="50.689706448465586" lon="6.258530057966709">
        <ele>336.60000000000002</ele>
        <time>2013-07-15T09:49:40Z</time>
      </trkpt>
      <trkpt lat="50.689736539497972" lon="6.258525950834155">
        <ele>336.60000000000002</ele>
        <time>2013-07-15T09:49:42Z</time>
      </trkpt>
      <trkpt lat="50.689783981069922" lon="6.258535590022802">
        <ele>336.60000000000002</ele>
        <time>2013-07-15T09:49:45Z</time>
      </trkpt>
      <trkpt lat="50.689890431240201" lon="6.258605998009443">
        <ele>337.56</ele>
        <time>2013-07-15T09:49:56Z</time>
      </trkpt>
      <trkpt lat="50.68996075540781" lon="6.258697109296918">
        <ele>338.04000000000002</ele>
        <time>2013-07-15T09:50:03Z</time>
      </trkpt>
      <trkpt lat="50.689969221130013" lon="6.258712448179722">
        <ele>338.04000000000002</ele>
        <time>2013-07-15T09:50:04Z</time>
      </trkpt>
      <trkpt lat="50.690033258870244" lon="6.258842283859849">
        <ele>338.04000000000002</ele>
        <time>2013-07-15T09:50:12Z</time>
      </trkpt>
      <trkpt lat="50.690039629116654" lon="6.258859299123287">
        <ele>338.04000000000002</ele>
        <time>2013-07-15T09:50:13Z</time>
      </trkpt>
      <trkpt lat="50.690046418458223" lon="6.258874135091901">
        <ele>338.04000000000002</ele>
        <time>2013-07-15T09:50:14Z</time>
      </trkpt>
      <trkpt lat="50.690053626894951" lon="6.258889138698578">
        <ele>338.04000000000002</ele>
        <time>2013-07-15T09:50:15Z</time>
      </trkpt>
      <trkpt lat="50.6900614220649" lon="6.258903807029128">
        <ele>338.04000000000002</ele>
        <time>2013-07-15T09:50:16Z</time>
      </trkpt>
      <trkpt lat="50.690070474520326" lon="6.258917301893234">
        <ele>338.04000000000002</ele>
        <time>2013-07-15T09:50:17Z</time>
      </trkpt>
      <trkpt lat="50.690151276066899" lon="6.259131710976362">
        <ele>338.04000000000002</ele>
        <time>2013-07-15T09:50:29Z</time>
      </trkpt>
      <trkpt lat="50.69015764631331" lon="6.25915115699172">
        <ele>338.04000000000002</ele>
        <time>2013-07-15T09:50:30Z</time>
      </trkpt>
      <trkpt lat="50.69016451947391" lon="6.259169513359666">
        <ele>338.04000000000002</ele>
        <time>2013-07-15T09:50:31Z</time>
      </trkpt>
      <trkpt lat="50.690171727910638" lon="6.259188540279865">
        <ele>338.04000000000002</ele>
        <time>2013-07-15T09:50:32Z</time>
      </trkpt>
      <trkpt lat="50.69017868489027" lon="6.259207064285874">
        <ele>338.04000000000002</ele>
        <time>2013-07-15T09:50:33Z</time>
      </trkpt>
      <trkpt lat="50.690183965489268" lon="6.259225755929947">
        <ele>338.04000000000002</ele>
        <time>2013-07-15T09:50:34Z</time>
      </trkpt>
      <trkpt lat="50.6901874858886" lon="6.25924595631659">
        <ele>338.04000000000002</ele>
        <time>2013-07-15T09:50:35Z</time>
      </trkpt>
      <trkpt lat="50.690193939954042" lon="6.259263223037124">
        <ele>338.04000000000002</ele>
        <time>2013-07-15T09:50:36Z</time>
      </trkpt>
      <trkpt lat="50.690201902762055" lon="6.259279567748308">
        <ele>338.04000000000002</ele>
        <time>2013-07-15T09:50:37Z</time>
      </trkpt>
      <trkpt lat="50.690212463960052" lon="6.259297421202064">
        <ele>338.04000000000002</ele>
        <time>2013-07-15T09:50:38Z</time>
      </trkpt>
      <trkpt lat="50.690311454236507" lon="6.259470172226429">
        <ele>338.04000000000002</ele>
        <time>2013-07-15T09:50:49Z</time>
      </trkpt>
      <trkpt lat="50.690318159759045" lon="6.259484505280852">
        <ele>338.04000000000002</ele>
        <time>2013-07-15T09:50:50Z</time>
      </trkpt>
      <trkpt lat="50.690326457843184" lon="6.259500849992037">
        <ele>338.04000000000002</ele>
        <time>2013-07-15T09:50:51Z</time>
      </trkpt>
      <trkpt lat="50.690441038459539" lon="6.259772591292858">
        <ele>336.60000000000002</ele>
        <time>2013-07-15T09:51:07Z</time>
      </trkpt>
      <trkpt lat="50.690572885796428" lon="6.26003067009151">
        <ele>336.60000000000002</ele>
        <time>2013-07-15T09:51:23Z</time>
      </trkpt>
      <trkpt lat="50.690639857202768" lon="6.260144328698516">
        <ele>336.60000000000002</ele>
        <time>2013-07-15T09:51:30Z</time>
      </trkpt>
      <trkpt lat="50.690646478906274" lon="6.260163271799684">
        <ele>336.60000000000002</ele>
        <time>2013-07-15T09:51:31Z</time>
      </trkpt>
      <trkpt lat="50.690653771162033" lon="6.260181795805693">
        <ele>336.60000000000002</ele>
        <time>2013-07-15T09:51:32Z</time>
      </trkpt>
      <trkpt lat="50.690660895779729" lon="6.260198811069131">
        <ele>336.60000000000002</ele>
        <time>2013-07-15T09:51:33Z</time>
      </trkpt>
      <trkpt lat="50.69066877476871" lon="6.260214233770967">
        <ele>336.60000000000002</ele>
        <time>2013-07-15T09:51:34Z</time>
      </trkpt>
      <trkpt lat="50.690676486119628" lon="6.260231668129563">
        <ele>336.60000000000002</ele>
        <time>2013-07-15T09:51:35Z</time>
      </trkpt>
      <trkpt lat="50.690684281289577" lon="6.260249856859446">
        <ele>336.60000000000002</ele>
        <time>2013-07-15T09:51:36Z</time>
      </trkpt>
      <trkpt lat="50.69069224409759" lon="6.260268297046423">
        <ele>336.60000000000002</ele>
        <time>2013-07-15T09:51:37Z</time>
      </trkpt>
      <trkpt lat="50.690699452534318" lon="6.260286485776305">
        <ele>336.60000000000002</ele>
        <time>2013-07-15T09:51:38Z</time>
      </trkpt>
      <trkpt lat="50.690702134743333" lon="6.260311799123883">
        <ele>336.60000000000002</ele>
        <time>2013-07-15T09:51:39Z</time>
      </trkpt>
      <trkpt lat="50.690702805295587" lon="6.260336274281144">
        <ele>336.60000000000002</ele>
        <time>2013-07-15T09:51:40Z</time>
      </trkpt>
      <trkpt lat="50.690706241875887" lon="6.260354379191995">
        <ele>336.60000000000002</ele>
        <time>2013-07-15T09:51:41Z</time>
      </trkpt>
      <trkpt lat="50.690770866349339" lon="6.260539116337895">
        <ele>336.60000000000002</ele>
        <time>2013-07-15T09:51:51Z</time>
      </trkpt>
      <trkpt lat="50.690774219110608" lon="6.260558646172285">
        <ele>336.60000000000002</ele>
        <time>2013-07-15T09:51:52Z</time>
      </trkpt>
      <trkpt lat="50.690781846642494" lon="6.260576164349914">
        <ele>336.60000000000002</ele>
        <time>2013-07-15T09:51:53Z</time>
      </trkpt>
      <trkpt lat="50.690840017050505" lon="6.260732235386968">
        <ele>336.12</ele>
        <time>2013-07-15T09:52:02Z</time>
      </trkpt>
      <trkpt lat="50.690846052020788" lon="6.260750340297818">
        <ele>336.12</ele>
        <time>2013-07-15T09:52:03Z</time>
      </trkpt>
      <trkpt lat="50.690851416438818" lon="6.260768361389637">
        <ele>336.12</ele>
        <time>2013-07-15T09:52:04Z</time>
      </trkpt>
      <trkpt lat="50.690857702866197" lon="6.260786801576614">
        <ele>336.12</ele>
        <time>2013-07-15T09:52:05Z</time>
      </trkpt>
      <trkpt lat="50.690863067284226" lon="6.260805493220687">
        <ele>336.12</ele>
        <time>2013-07-15T09:52:06Z</time>
      </trkpt>
      <trkpt lat="50.690975300967693" lon="6.261124005541205">
        <ele>336.12</ele>
        <time>2013-07-15T09:52:24Z</time>
      </trkpt>
      <trkpt lat="50.690999440848827" lon="6.261176140978932">
        <ele>336.12</ele>
        <time>2013-07-15T09:52:27Z</time>
      </trkpt>
      <trkpt lat="50.691007152199745" lon="6.261192569509149">
        <ele>336.12</ele>
        <time>2013-07-15T09:52:28Z</time>
      </trkpt>
      <trkpt lat="50.691012516617775" lon="6.261211512610316">
        <ele>336.12</ele>
        <time>2013-07-15T09:52:29Z</time>
      </trkpt>
      <trkpt lat="50.691015450283885" lon="6.261230288073421">
        <ele>335.16000000000003</ele>
        <time>2013-07-15T09:52:30Z</time>
      </trkpt>
      <trkpt lat="50.6910215690732" lon="6.2612468842417">
        <ele>335.16000000000003</ele>
        <time>2013-07-15T09:52:31Z</time>
      </trkpt>
      <trkpt lat="50.691123576834798" lon="6.261514937505126">
        <ele>334.68000000000001</ele>
        <time>2013-07-15T09:52:46Z</time>
      </trkpt>
      <trkpt lat="50.691145537421107" lon="6.261577969416976">
        <ele>334.68000000000001</ele>
        <time>2013-07-15T09:52:49Z</time>
      </trkpt>
      <trkpt lat="50.69115542806685" lon="6.261594984680414">
        <ele>334.68000000000001</ele>
        <time>2013-07-15T09:52:50Z</time>
      </trkpt>
      <trkpt lat="50.691163642331958" lon="6.261610155925155">
        <ele>334.68000000000001</ele>
        <time>2013-07-15T09:52:51Z</time>
      </trkpt>
      <trkpt lat="50.691213849931955" lon="6.26173697412014">
        <ele>334.19999999999999</ele>
        <time>2013-07-15T09:52:58Z</time>
      </trkpt>
      <trkpt lat="50.69122139364481" lon="6.261759186163545">
        <ele>334.19999999999999</ele>
        <time>2013-07-15T09:52:59Z</time>
      </trkpt>
      <trkpt lat="50.691229859367013" lon="6.261779218912125">
        <ele>334.19999999999999</ele>
        <time>2013-07-15T09:53:00Z</time>
      </trkpt>
      <trkpt lat="50.691236229613423" lon="6.261797994375229">
        <ele>334.19999999999999</ele>
        <time>2013-07-15T09:53:01Z</time>
      </trkpt>
      <trkpt lat="50.691241342574358" lon="6.261817188933492">
        <ele>334.19999999999999</ele>
        <time>2013-07-15T09:53:02Z</time>
      </trkpt>
      <trkpt lat="50.691332956776023" lon="6.262148609384894">
        <ele>333.70999999999998</ele>
        <time>2013-07-15T09:53:20Z</time>
      </trkpt>
      <trkpt lat="50.691390372812748" lon="6.262351032346487">
        <ele>333.23000000000002</ele>
        <time>2013-07-15T09:53:31Z</time>
      </trkpt>
      <trkpt lat="50.691395988687873" lon="6.262368801981211">
        <ele>333.23000000000002</ele>
        <time>2013-07-15T09:53:32Z</time>
      </trkpt>
      <trkpt lat="50.691400682553649" lon="6.262389840558171">
        <ele>333.23000000000002</ele>
        <time>2013-07-15T09:53:33Z</time>
      </trkpt>
      <trkpt lat="50.69140856154263" lon="6.262409370392561">
        <ele>333.23000000000002</ele>
        <time>2013-07-15T09:53:34Z</time>
      </trkpt>
      <trkpt lat="50.691416440531611" lon="6.262426720932126">
        <ele>333.23000000000002</ele>
        <time>2013-07-15T09:53:35Z</time>
      </trkpt>
      <trkpt lat="50.691422475501895" lon="6.262445999309421">
        <ele>333.23000000000002</ele>
        <time>2013-07-15T09:53:36Z</time>
      </trkpt>
      <trkpt lat="50.691456506028771" lon="6.262542139738798">
        <ele>332.75</ele>
        <time>2013-07-15T09:53:41Z</time>
      </trkpt>
      <trkpt lat="50.691458517685533" lon="6.262561921030283">
        <ele>332.75</ele>
        <time>2013-07-15T09:53:42Z</time>
      </trkpt>
      <trkpt lat="50.691461870446801" lon="6.262579523026943">
        <ele>332.75</ele>
        <time>2013-07-15T09:53:43Z</time>
      </trkpt>
      <trkpt lat="50.69157226011157" lon="6.262833159416914">
        <ele>332.26999999999998</ele>
        <time>2013-07-15T09:53:58Z</time>
      </trkpt>
      <trkpt lat="50.691612493246794" lon="6.262924270704389">
        <ele>331.79000000000002</ele>
        <time>2013-07-15T09:54:03Z</time>
      </trkpt>
      <trkpt lat="50.691619282588363" lon="6.262944303452969">
        <ele>331.79000000000002</ele>
        <time>2013-07-15T09:54:04Z</time>
      </trkpt>
      <trkpt lat="50.691627329215407" lon="6.262962492182851">
        <ele>331.31</ele>
        <time>2013-07-15T09:54:05Z</time>
      </trkpt>
      <trkpt lat="50.691636549308896" lon="6.262980848550797">
        <ele>331.31</ele>
        <time>2013-07-15T09:54:06Z</time>
      </trkpt>
      <trkpt lat="50.691644512116909" lon="6.263000126928091">
        <ele>331.31</ele>
        <time>2013-07-15T09:54:07Z</time>
      </trkpt>
      <trkpt lat="50.691728247329593" lon="6.26321847550571">
        <ele>331.31</ele>
        <time>2013-07-15T09:54:19Z</time>
      </trkpt>
      <trkpt lat="50.691730510443449" lon="6.263237083330751">
        <ele>331.31</ele>
        <time>2013-07-15T09:54:20Z</time>
      </trkpt>
      <trkpt lat="50.691831680014729" lon="6.263521146029234">
        <ele>330.82999999999998</ele>
        <time>2013-07-15T09:54:36Z</time>
      </trkpt>
      <trkpt lat="50.691930837929249" lon="6.263720467686653">
        <ele>330.82999999999998</ele>
        <time>2013-07-15T09:54:48Z</time>
      </trkpt>
      <trkpt lat="50.691937208175659" lon="6.263734549283981">
        <ele>330.82999999999998</ele>
        <time>2013-07-15T09:54:49Z</time>
      </trkpt>
      <trkpt lat="50.692068971693516" lon="6.263957004994154">
        <ele>330.35000000000002</ele>
        <time>2013-07-15T09:55:05Z</time>
      </trkpt>
      <trkpt lat="50.692209368571639" lon="6.264165630564094">
        <ele>330.35000000000002</ele>
        <time>2013-07-15T09:55:20Z</time>
      </trkpt>
      <trkpt lat="50.692339539527893" lon="6.264375429600477">
        <ele>329.87</ele>
        <time>2013-07-15T09:55:34Z</time>
      </trkpt>
      <trkpt lat="50.69241757504642" lon="6.264503421261907">
        <ele>329.87</ele>
        <time>2013-07-15T09:55:42Z</time>
      </trkpt>
      <trkpt lat="50.692447917535901" lon="6.264566872268915">
        <ele>329.38999999999999</ele>
        <time>2013-07-15T09:55:46Z</time>
      </trkpt>
      <trkpt lat="50.692455712705851" lon="6.264585563912988">
        <ele>329.38999999999999</ele>
        <time>2013-07-15T09:55:47Z</time>
      </trkpt>
      <trkpt lat="50.692465184256434" lon="6.264605680480599">
        <ele>329.38999999999999</ele>
        <time>2013-07-15T09:55:48Z</time>
      </trkpt>
      <trkpt lat="50.692473482340574" lon="6.26462428830564">
        <ele>329.38999999999999</ele>
        <time>2013-07-15T09:55:49Z</time>
      </trkpt>
      <trkpt lat="50.692483875900507" lon="6.264639878645539">
        <ele>329.38999999999999</ele>
        <time>2013-07-15T09:55:50Z</time>
      </trkpt>
      <trkpt lat="50.692614549770951" lon="6.26483048312366">
        <ele>329.38999999999999</ele>
        <time>2013-07-15T09:56:03Z</time>
      </trkpt>
      <trkpt lat="50.692623434588313" lon="6.264842636883259">
        <ele>329.38999999999999</ele>
        <time>2013-07-15T09:56:04Z</time>
      </trkpt>
      <trkpt lat="50.692633576691151" lon="6.26485638320446">
        <ele>329.38999999999999</ele>
        <time>2013-07-15T09:56:05Z</time>
      </trkpt>
      <trkpt lat="50.69264036603272" lon="6.264873566105962">
        <ele>329.38999999999999</ele>
        <time>2013-07-15T09:56:06Z</time>
      </trkpt>
      <trkpt lat="50.692696776241064" lon="6.264956463128328">
        <ele>328.43000000000001</ele>
        <time>2013-07-15T09:56:19Z</time>
      </trkpt>
      <trkpt lat="50.692700296640396" lon="6.264958307147026">
        <ele>328.43000000000001</ele>
        <time>2013-07-15T09:56:31Z</time>
      </trkpt>
      <trkpt lat="50.692735249176621" lon="6.264983704313636">
        <ele>328.43000000000001</ele>
        <time>2013-07-15T09:56:42Z</time>
      </trkpt>
      <trkpt lat="50.692749414592981" lon="6.265027541667223">
        <ele>327.94999999999999</ele>
        <time>2013-07-15T09:56:56Z</time>
      </trkpt>
      <trkpt lat="50.692780008539557" lon="6.265083448961377">
        <ele>327.94999999999999</ele>
        <time>2013-07-15T09:57:08Z</time>
      </trkpt>
      <trkpt lat="50.692876484245062" lon="6.265214206650853">
        <ele>327.94999999999999</ele>
        <time>2013-07-15T09:57:19Z</time>
      </trkpt>
      <trkpt lat="50.692899115383625" lon="6.265243962407112">
        <ele>327.94999999999999</ele>
        <time>2013-07-15T09:57:20Z</time>
      </trkpt>
      <trkpt lat="50.692922752350569" lon="6.265264330431819">
        <ele>327.94999999999999</ele>
        <time>2013-07-15T09:57:21Z</time>
      </trkpt>
      <trkpt lat="50.692944880574942" lon="6.265283860266209">
        <ele>327.94999999999999</ele>
        <time>2013-07-15T09:57:22Z</time>
      </trkpt>
      <trkpt lat="50.692964075133204" lon="6.265303390100598">
        <ele>327.94999999999999</ele>
        <time>2013-07-15T09:57:23Z</time>
      </trkpt>
      <trkpt lat="50.693115033209324" lon="6.265521235764027">
        <ele>327.94999999999999</ele>
        <time>2013-07-15T09:57:37Z</time>
      </trkpt>
      <trkpt lat="50.693268338218331" lon="6.265740087255836">
        <ele>326.5</ele>
        <time>2013-07-15T09:57:52Z</time>
      </trkpt>
      <trkpt lat="50.693393312394619" lon="6.265936475247145">
        <ele>325.54000000000002</ele>
        <time>2013-07-15T09:58:06Z</time>
      </trkpt>
      <trkpt lat="50.693405214697123" lon="6.265949299558997">
        <ele>325.54000000000002</ele>
        <time>2013-07-15T09:58:07Z</time>
      </trkpt>
      <trkpt lat="50.693415524438024" lon="6.26596312969923">
        <ele>325.54000000000002</ele>
        <time>2013-07-15T09:58:08Z</time>
      </trkpt>
      <trkpt lat="50.693427426740527" lon="6.265976959839463">
        <ele>325.54000000000002</ele>
        <time>2013-07-15T09:58:09Z</time>
      </trkpt>
      <trkpt lat="50.693437401205301" lon="6.265990622341633">
        <ele>325.54000000000002</ele>
        <time>2013-07-15T09:58:10Z</time>
      </trkpt>
      <trkpt lat="50.693450644612312" lon="6.26599975861609">
        <ele>325.54000000000002</ele>
        <time>2013-07-15T09:58:11Z</time>
      </trkpt>
      <trkpt lat="50.693464558571577" lon="6.266004703938961">
        <ele>325.54000000000002</ele>
        <time>2013-07-15T09:58:12Z</time>
      </trkpt>
      <trkpt lat="50.693492721766233" lon="6.266024820506573">
        <ele>325.54000000000002</ele>
        <time>2013-07-15T09:58:15Z</time>
      </trkpt>
      <trkpt lat="50.693504037335515" lon="6.266073854640126">
        <ele>325.54000000000002</ele>
        <time>2013-07-15T09:58:18Z</time>
      </trkpt>
      <trkpt lat="50.69360981695354" lon="6.266231266781688">
        <ele>325.06</ele>
        <time>2013-07-15T09:58:30Z</time>
      </trkpt>
      <trkpt lat="50.69404517300427" lon="6.266714315861464">
        <ele>324.57999999999998</ele>
        <time>2013-07-15T09:59:05Z</time>
      </trkpt>
      <trkpt lat="50.694061517715454" lon="6.266724206507206">
        <ele>324.57999999999998</ele>
        <time>2013-07-15T09:59:06Z</time>
      </trkpt>
      <trkpt lat="50.694075096398592" lon="6.26673761755228">
        <ele>324.57999999999998</ele>
        <time>2013-07-15T09:59:07Z</time>
      </trkpt>
      <trkpt lat="50.694088926538825" lon="6.266751950606704">
        <ele>324.10000000000002</ele>
        <time>2013-07-15T09:59:08Z</time>
      </trkpt>
      <trkpt lat="50.694103259593248" lon="6.266763098537922">
        <ele>324.10000000000002</ele>
        <time>2013-07-15T09:59:09Z</time>
      </trkpt>
      <trkpt lat="50.694117592647672" lon="6.266773995012045">
        <ele>324.10000000000002</ele>
        <time>2013-07-15T09:59:10Z</time>
      </trkpt>
      <trkpt lat="50.694130333140492" lon="6.266785562038422">
        <ele>324.10000000000002</ele>
        <time>2013-07-15T09:59:11Z</time>
      </trkpt>
      <trkpt lat="50.694144079461694" lon="6.26679670996964">
        <ele>324.10000000000002</ele>
        <time>2013-07-15T09:59:12Z</time>
      </trkpt>
      <trkpt lat="50.694180121645331" lon="6.26684800721705">
        <ele>324.10000000000002</ele>
        <time>2013-07-15T09:59:16Z</time>
      </trkpt>
      <trkpt lat="50.694188168272376" lon="6.266863010823727">
        <ele>324.10000000000002</ele>
        <time>2013-07-15T09:59:17Z</time>
      </trkpt>
      <trkpt lat="50.694573651999235" lon="6.267384281381965">
        <ele>322.18000000000001</ele>
        <time>2013-07-15T09:59:54Z</time>
      </trkpt>
      <trkpt lat="50.694611705839634" lon="6.267451588064432">
        <ele>322.18000000000001</ele>
        <time>2013-07-15T09:59:58Z</time>
      </trkpt>
      <trkpt lat="50.694749336689711" lon="6.267665661871433">
        <ele>321.69999999999999</ele>
        <time>2013-07-15T10:00:15Z</time>
      </trkpt>
      <trkpt lat="50.694785881787539" lon="6.267549069598317">
        <ele>323.13999999999999</ele>
        <time>2013-07-15T10:00:23Z</time>
      </trkpt>
      <trkpt lat="50.694772303104401" lon="6.267508501186967">
        <ele>323.62</ele>
        <time>2013-07-15T10:00:26Z</time>
      </trkpt>
      <trkpt lat="50.694718407467008" lon="6.267343377694488">
        <ele>324.57999999999998</ele>
        <time>2013-07-15T10:00:37Z</time>
      </trkpt>
      <trkpt lat="50.694713294506073" lon="6.267325021326542">
        <ele>324.57999999999998</ele>
        <time>2013-07-15T10:00:38Z</time>
      </trkpt>
      <trkpt lat="50.694672558456659" lon="6.267082281410694">
        <ele>326.99000000000001</ele>
        <time>2013-07-15T10:00:52Z</time>
      </trkpt>
      <trkpt lat="50.694644646719098" lon="6.266809282824397">
        <ele>328.43000000000001</ele>
        <time>2013-07-15T10:01:06Z</time>
      </trkpt>
      <trkpt lat="50.694607766345143" lon="6.266497559845448">
        <ele>329.38999999999999</ele>
        <time>2013-07-15T10:01:22Z</time>
      </trkpt>
      <trkpt lat="50.694601815193892" lon="6.266458835452795">
        <ele>329.87</ele>
        <time>2013-07-15T10:01:24Z</time>
      </trkpt>
      <trkpt lat="50.694598294794559" lon="6.266392031684518">
        <ele>330.35000000000002</ele>
        <time>2013-07-15T10:01:28Z</time>
      </trkpt>
      <trkpt lat="50.694575160741806" lon="6.266272589564323">
        <ele>331.31</ele>
        <time>2013-07-15T10:01:36Z</time>
      </trkpt>
      <trkpt lat="50.694515984505415" lon="6.266025742515922">
        <ele>332.75</ele>
        <time>2013-07-15T10:01:52Z</time>
      </trkpt>
      <trkpt lat="50.694422693923116" lon="6.265775039792061">
        <ele>333.70999999999998</ele>
        <time>2013-07-15T10:02:07Z</time>
      </trkpt>
      <trkpt lat="50.69439897313714" lon="6.265738662332296">
        <ele>333.70999999999998</ele>
        <time>2013-07-15T10:02:09Z</time>
      </trkpt>
      <trkpt lat="50.694351447746158" lon="6.265536993741989">
        <ele>335.16000000000003</ele>
        <time>2013-07-15T10:02:21Z</time>
      </trkpt>
      <trkpt lat="50.694271735846996" lon="6.265320992097259">
        <ele>336.12</ele>
        <time>2013-07-15T10:02:35Z</time>
      </trkpt>
      <trkpt lat="50.69420350715518" lon="6.265107924118638">
        <ele>337.56</ele>
        <time>2013-07-15T10:02:48Z</time>
      </trkpt>
      <trkpt lat="50.69419814273715" lon="6.265094513073564">
        <ele>337.56</ele>
        <time>2013-07-15T10:02:49Z</time>
      </trkpt>
      <trkpt lat="50.694160927087069" lon="6.264886055141687">
        <ele>339</ele>
        <time>2013-07-15T10:03:01Z</time>
      </trkpt>
      <trkpt lat="50.694145085290074" lon="6.264772145077586">
        <ele>339.48000000000002</ele>
        <time>2013-07-15T10:03:07Z</time>
      </trkpt>
      <trkpt lat="50.694113820791245" lon="6.264552036300302">
        <ele>341.41000000000003</ele>
        <time>2013-07-15T10:03:19Z</time>
      </trkpt>
      <trkpt lat="50.694093536585569" lon="6.264357324689627">
        <ele>342.37</ele>
        <time>2013-07-15T10:03:31Z</time>
      </trkpt>
      <trkpt lat="50.694074258208275" lon="6.264267051592469">
        <ele>343.32999999999998</ele>
        <time>2013-07-15T10:03:36Z</time>
      </trkpt>
      <trkpt lat="50.694040395319462" lon="6.264020372182131">
        <ele>345.25</ele>
        <time>2013-07-15T10:03:50Z</time>
      </trkpt>
      <trkpt lat="50.694005023688078" lon="6.263762963935733">
        <ele>346.69</ele>
        <time>2013-07-15T10:04:05Z</time>
      </trkpt>
      <trkpt lat="50.69395674392581" lon="6.263507902622223">
        <ele>348.13</ele>
        <time>2013-07-15T10:04:19Z</time>
      </trkpt>
      <trkpt lat="50.693901423364878" lon="6.26332500949502">
        <ele>349.10000000000002</ele>
        <time>2013-07-15T10:04:30Z</time>
      </trkpt>
      <trkpt lat="50.69389178417623" lon="6.263307994231582">
        <ele>349.10000000000002</ele>
        <time>2013-07-15T10:04:31Z</time>
      </trkpt>
      <trkpt lat="50.693880720064044" lon="6.263276226818562">
        <ele>349.10000000000002</ele>
        <time>2013-07-15T10:04:33Z</time>
      </trkpt>
      <trkpt lat="50.693875271826982" lon="6.263257786631584">
        <ele>349.57999999999998</ele>
        <time>2013-07-15T10:04:34Z</time>
      </trkpt>
      <trkpt lat="50.693818693980575" lon="6.263082018122077">
        <ele>350.06</ele>
        <time>2013-07-15T10:04:45Z</time>
      </trkpt>
      <trkpt lat="50.693803858011961" lon="6.263013454154134">
        <ele>350.06</ele>
        <time>2013-07-15T10:04:49Z</time>
      </trkpt>
      <trkpt lat="50.693800505250692" lon="6.262996438890696">
        <ele>350.06</ele>
        <time>2013-07-15T10:04:50Z</time>
      </trkpt>
      <trkpt lat="50.69374468177557" lon="6.262789992615581">
        <ele>351.01999999999998</ele>
        <time>2013-07-15T10:05:02Z</time>
      </trkpt>
      <trkpt lat="50.693729342892766" lon="6.262691924348474">
        <ele>351.5</ele>
        <time>2013-07-15T10:05:08Z</time>
      </trkpt>
      <trkpt lat="50.69372464902699" lon="6.262674406170845">
        <ele>351.5</ele>
        <time>2013-07-15T10:05:09Z</time>
      </trkpt>
      <trkpt lat="50.693719116970897" lon="6.26265655271709">
        <ele>351.5</ele>
        <time>2013-07-15T10:05:10Z</time>
      </trkpt>
      <trkpt lat="50.693710735067725" lon="6.262637274339795">
        <ele>351.5</ele>
        <time>2013-07-15T10:05:11Z</time>
      </trkpt>
      <trkpt lat="50.693668406456709" lon="6.262505510821939">
        <ele>351.98000000000002</ele>
        <time>2013-07-15T10:05:18Z</time>
      </trkpt>
      <trkpt lat="50.693663712590933" lon="6.26248556189239">
        <ele>351.98000000000002</ele>
        <time>2013-07-15T10:05:19Z</time>
      </trkpt>
      <trkpt lat="50.693661281839013" lon="6.262468714267016">
        <ele>351.98000000000002</ele>
        <time>2013-07-15T10:05:20Z</time>
      </trkpt>
      <trkpt lat="50.693655917420983" lon="6.262450441718102">
        <ele>351.98000000000002</ele>
        <time>2013-07-15T10:05:21Z</time>
      </trkpt>
      <trkpt lat="50.693646781146526" lon="6.262427810579538">
        <ele>351.98000000000002</ele>
        <time>2013-07-15T10:05:22Z</time>
      </trkpt>
      <trkpt lat="50.693642841652036" lon="6.262407526373863">
        <ele>351.98000000000002</ele>
        <time>2013-07-15T10:05:23Z</time>
      </trkpt>
      <trkpt lat="50.693613085895777" lon="6.262199738994241">
        <ele>352.45999999999998</ele>
        <time>2013-07-15T10:05:33Z</time>
      </trkpt>
      <trkpt lat="50.69357804954052" lon="6.261946521699429">
        <ele>352.94</ele>
        <time>2013-07-15T10:05:47Z</time>
      </trkpt>
      <trkpt lat="50.693488866090775" lon="6.261706883087754">
        <ele>353.89999999999998</ele>
        <time>2013-07-15T10:06:01Z</time>
      </trkpt>
      <trkpt lat="50.693452404811978" lon="6.261590626090765">
        <ele>354.38</ele>
        <time>2013-07-15T10:06:08Z</time>
      </trkpt>
      <trkpt lat="50.693452153354883" lon="6.261567575857043">
        <ele>354.38</ele>
        <time>2013-07-15T10:06:09Z</time>
      </trkpt>
      <trkpt lat="50.693446286022663" lon="6.261544190347195">
        <ele>354.38</ele>
        <time>2013-07-15T10:06:10Z</time>
      </trkpt>
      <trkpt lat="50.69343538954854" lon="6.261480236425996">
        <ele>354.38</ele>
        <time>2013-07-15T10:06:13Z</time>
      </trkpt>
      <trkpt lat="50.693424912169576" lon="6.261440087109804">
        <ele>354.38</ele>
        <time>2013-07-15T10:06:15Z</time>
      </trkpt>
      <trkpt lat="50.693416530266404" lon="6.261414773762226">
        <ele>354.38</ele>
        <time>2013-07-15T10:06:16Z</time>
      </trkpt>
      <trkpt lat="50.693410998210311" lon="6.26139490865171">
        <ele>354.38</ele>
        <time>2013-07-15T10:06:17Z</time>
      </trkpt>
      <trkpt lat="50.693401359021664" lon="6.261326679959893">
        <ele>354.38</ele>
        <time>2013-07-15T10:06:20Z</time>
      </trkpt>
      <trkpt lat="50.69340311922133" lon="6.261300276964903">
        <ele>354.38</ele>
        <time>2013-07-15T10:06:21Z</time>
      </trkpt>
      <trkpt lat="50.693397335708141" lon="6.261030295863748">
        <ele>355.33999999999997</ele>
        <time>2013-07-15T10:06:37Z</time>
      </trkpt>
      <trkpt lat="50.693412339314818" lon="6.260801805183291">
        <ele>355.82999999999998</ele>
        <time>2013-07-15T10:06:49Z</time>
      </trkpt>
      <trkpt lat="50.693439245223999" lon="6.260571805760264">
        <ele>355.82999999999998</ele>
        <time>2013-07-15T10:07:00Z</time>
      </trkpt>
      <trkpt lat="50.693451818078756" lon="6.260513635352254">
        <ele>356.31</ele>
        <time>2013-07-15T10:07:03Z</time>
      </trkpt>
      <trkpt lat="50.693507976830006" lon="6.260244995355606">
        <ele>356.31</ele>
        <time>2013-07-15T10:07:16Z</time>
      </trkpt>
      <trkpt lat="50.693578217178583" lon="6.260016420856118">
        <ele>356.31</ele>
        <time>2013-07-15T10:07:28Z</time>
      </trkpt>
      <trkpt lat="50.693601435050368" lon="6.259937882423401">
        <ele>356.79000000000002</ele>
        <time>2013-07-15T10:07:32Z</time>
      </trkpt>
      <trkpt lat="50.693609565496445" lon="6.259924806654453">
        <ele>356.79000000000002</ele>
        <time>2013-07-15T10:07:33Z</time>
      </trkpt>
      <trkpt lat="50.69361861795187" lon="6.259914161637425">
        <ele>356.79000000000002</ele>
        <time>2013-07-15T10:07:34Z</time>
      </trkpt>
      <trkpt lat="50.693626580759883" lon="6.259901421144605">
        <ele>356.79000000000002</ele>
        <time>2013-07-15T10:07:35Z</time>
      </trkpt>
      <trkpt lat="50.69363571703434" lon="6.259883651509881">
        <ele>356.79000000000002</ele>
        <time>2013-07-15T10:07:36Z</time>
      </trkpt>
      <trkpt lat="50.69364108145237" lon="6.259865211322904">
        <ele>356.79000000000002</ele>
        <time>2013-07-15T10:07:37Z</time>
      </trkpt>
      <trkpt lat="50.693752309307456" lon="6.259666727855802">
        <ele>357.75</ele>
        <time>2013-07-15T10:07:50Z</time>
      </trkpt>
      <trkpt lat="50.693834451958537" lon="6.259534796699882">
        <ele>358.23000000000002</ele>
        <time>2013-07-15T10:08:01Z</time>
      </trkpt>
      <trkpt lat="50.694000916555524" lon="6.259311335161328">
        <ele>358.70999999999998</ele>
        <time>2013-07-15T10:08:14Z</time>
      </trkpt>
      <trkpt lat="50.694284811615944" lon="6.259036408737302">
        <ele>358.70999999999998</ele>
        <time>2013-07-15T10:08:25Z</time>
      </trkpt>
      <trkpt lat="50.694625452160835" lon="6.258877906948328">
        <ele>358.70999999999998</ele>
        <time>2013-07-15T10:08:37Z</time>
      </trkpt>
      <trkpt lat="50.694896019995213" lon="6.258940603584051">
        <ele>357.26999999999998</ele>
        <time>2013-07-15T10:08:45Z</time>
      </trkpt>
      <trkpt lat="50.695247640833259" lon="6.259237742051482">
        <ele>356.31</ele>
        <time>2013-07-15T10:08:57Z</time>
      </trkpt>
      <trkpt lat="50.69555894471705" lon="6.259515434503555">
        <ele>354.38</ele>
        <time>2013-07-15T10:09:10Z</time>
      </trkpt>
      <trkpt lat="50.69592104293406" lon="6.259804693982005">
        <ele>352.94</ele>
        <time>2013-07-15T10:09:23Z</time>
      </trkpt>
      <trkpt lat="50.696030929684639" lon="6.259812070056796">
        <ele>352.94</ele>
        <time>2013-07-15T10:09:27Z</time>
      </trkpt>
      <trkpt lat="50.696057165041566" lon="6.25978734344244">
        <ele>352.94</ele>
        <time>2013-07-15T10:09:28Z</time>
      </trkpt>
      <trkpt lat="50.696085328236222" lon="6.259754654020071">
        <ele>352.94</ele>
        <time>2013-07-15T10:09:29Z</time>
      </trkpt>
      <trkpt lat="50.69611256942153" lon="6.259714253246784">
        <ele>352.94</ele>
        <time>2013-07-15T10:09:30Z</time>
      </trkpt>
      <trkpt lat="50.696138050407171" lon="6.259676031768322">
        <ele>352.94</ele>
        <time>2013-07-15T10:09:31Z</time>
      </trkpt>
      <trkpt lat="50.696162525564432" lon="6.259639235213399">
        <ele>352.94</ele>
        <time>2013-07-15T10:09:32Z</time>
      </trkpt>
      <trkpt lat="50.696223126724362" lon="6.259536221623421">
        <ele>354.38</ele>
        <time>2013-07-15T10:09:35Z</time>
      </trkpt>
      <trkpt lat="50.696294456720352" lon="6.259396579116583">
        <ele>355.33999999999997</ele>
        <time>2013-07-15T10:09:39Z</time>
      </trkpt>
      <trkpt lat="50.696309627965093" lon="6.259359363466501">
        <ele>355.33999999999997</ele>
        <time>2013-07-15T10:09:40Z</time>
      </trkpt>
      <trkpt lat="50.698167979717255" lon="6.256049014627934">
        <ele>369.27999999999997</ele>
        <time>2013-07-15T10:11:25Z</time>
      </trkpt>
      <trkpt lat="50.698275351896882" lon="6.255905851721764">
        <ele>369.27999999999997</ele>
        <time>2013-07-15T10:11:34Z</time>
      </trkpt>
      <trkpt lat="50.698472242802382" lon="6.255188193172216">
        <ele>369.27999999999997</ele>
        <time>2013-07-15T10:12:00Z</time>
      </trkpt>
      <trkpt lat="50.698561677709222" lon="6.254937574267387">
        <ele>369.27999999999997</ele>
        <time>2013-07-15T10:12:15Z</time>
      </trkpt>
      <trkpt lat="50.698646754026413" lon="6.254680166020989">
        <ele>369.27999999999997</ele>
        <time>2013-07-15T10:12:29Z</time>
      </trkpt>
      <trkpt lat="50.698681958019733" lon="6.25453214161098">
        <ele>369.27999999999997</ele>
        <time>2013-07-15T10:12:36Z</time>
      </trkpt>
      <trkpt lat="50.698780361562967" lon="6.254285126924515">
        <ele>367.36000000000001</ele>
        <time>2013-07-15T10:12:51Z</time>
      </trkpt>
      <trkpt lat="50.6988615822047" lon="6.253987401723862">
        <ele>367.36000000000001</ele>
        <time>2013-07-15T10:13:06Z</time>
      </trkpt>
      <trkpt lat="50.69891631603241" lon="6.25369998626411">
        <ele>366.88</ele>
        <time>2013-07-15T10:13:21Z</time>
      </trkpt>
      <trkpt lat="50.699003571644425" lon="6.253420533612371">
        <ele>365.92000000000002</ele>
        <time>2013-07-15T10:13:37Z</time>
      </trkpt>
      <trkpt lat="50.699096862226725" lon="6.253074947744608">
        <ele>365.44</ele>
        <time>2013-07-15T10:13:53Z</time>
      </trkpt>
      <trkpt lat="50.699192583560944" lon="6.252784011885524">
        <ele>364.95999999999998</ele>
        <time>2013-07-15T10:14:09Z</time>
      </trkpt>
      <trkpt lat="50.699198953807354" lon="6.252769259735942">
        <ele>364.95999999999998</ele>
        <time>2013-07-15T10:14:10Z</time>
      </trkpt>
      <trkpt lat="50.699217226356268" lon="6.252660043537617">
        <ele>364.95999999999998</ele>
        <time>2013-07-15T10:14:16Z</time>
      </trkpt>
      <trkpt lat="50.699232900515199" lon="6.252609752118588">
        <ele>364.95999999999998</ele>
        <time>2013-07-15T10:14:19Z</time>
      </trkpt>
      <trkpt lat="50.699237929657102" lon="6.25259131193161">
        <ele>364.48000000000002</ele>
        <time>2013-07-15T10:14:20Z</time>
      </trkpt>
      <trkpt lat="50.699312528595328" lon="6.252350164577365">
        <ele>364.48000000000002</ele>
        <time>2013-07-15T10:14:34Z</time>
      </trkpt>
      <trkpt lat="50.699367262423038" lon="6.252044141292572">
        <ele>364</ele>
        <time>2013-07-15T10:14:50Z</time>
      </trkpt>
      <trkpt lat="50.699419900774956" lon="6.251781703904271">
        <ele>363.51999999999998</ele>
        <time>2013-07-15T10:15:04Z</time>
      </trkpt>
      <trkpt lat="50.69948511198163" lon="6.251509711146355">
        <ele>363.04000000000002</ele>
        <time>2013-07-15T10:15:19Z</time>
      </trkpt>
      <trkpt lat="50.699557447806001" lon="6.251279963180423">
        <ele>362.55000000000001</ele>
        <time>2013-07-15T10:15:33Z</time>
      </trkpt>
      <trkpt lat="50.699643194675446" lon="6.251037390902638">
        <ele>361.58999999999997</ele>
        <time>2013-07-15T10:15:47Z</time>
      </trkpt>
      <trkpt lat="50.699714943766594" lon="6.250749556347728">
        <ele>361.58999999999997</ele>
        <time>2013-07-15T10:16:02Z</time>
      </trkpt>
      <trkpt lat="50.69971720688045" lon="6.250724829733372">
        <ele>361.58999999999997</ele>
        <time>2013-07-15T10:16:03Z</time>
      </trkpt>
      <trkpt lat="50.699777724221349" lon="6.250517126172781">
        <ele>360.63</ele>
        <time>2013-07-15T10:16:14Z</time>
      </trkpt>
      <trkpt lat="50.699843857437372" lon="6.250202637165785">
        <ele>359.67000000000002</ele>
        <time>2013-07-15T10:16:31Z</time>
      </trkpt>
      <trkpt lat="50.699927760288119" lon="6.249899296090007">
        <ele>359.19</ele>
        <time>2013-07-15T10:16:46Z</time>
      </trkpt>
      <trkpt lat="50.699936728924513" lon="6.249882699921727">
        <ele>358.70999999999998</ele>
        <time>2013-07-15T10:16:47Z</time>
      </trkpt>
      <trkpt lat="50.699944607913494" lon="6.249863924458623">
        <ele>358.70999999999998</ele>
        <time>2013-07-15T10:16:48Z</time>
      </trkpt>
      <trkpt lat="50.700022643432021" lon="6.2495525367558">
        <ele>358.23000000000002</ele>
        <time>2013-07-15T10:17:05Z</time>
      </trkpt>
      <trkpt lat="50.700119119137526" lon="6.249271491542459">
        <ele>357.75</ele>
        <time>2013-07-15T10:17:12Z</time>
      </trkpt>
      <trkpt lat="50.70009539835155" lon="6.249168142676354">
        <ele>357.75</ele>
        <time>2013-07-15T10:17:13Z</time>
      </trkpt>
      <trkpt lat="50.700086178258061" lon="6.249076193198562">
        <ele>357.75</ele>
        <time>2013-07-15T10:17:14Z</time>
      </trkpt>
      <trkpt lat="50.699677476659417" lon="6.246864041313529">
        <ele>351.01999999999998</ele>
        <time>2013-07-15T10:19:21Z</time>
      </trkpt>
      <trkpt lat="50.699631711468101" lon="6.246579643338919">
        <ele>350.54000000000002</ele>
        <time>2013-07-15T10:19:36Z</time>
      </trkpt>
      <trkpt lat="50.699563734233379" lon="6.246301447972655">
        <ele>350.06</ele>
        <time>2013-07-15T10:19:50Z</time>
      </trkpt>
      <trkpt lat="50.69955836981535" lon="6.246267082169652">
        <ele>350.06</ele>
        <time>2013-07-15T10:19:52Z</time>
      </trkpt>
      <trkpt lat="50.699465582147241" lon="6.245989389717579">
        <ele>349.57999999999998</ele>
        <time>2013-07-15T10:20:11Z</time>
      </trkpt>
      <trkpt lat="50.69937321357429" lon="6.245757965371013">
        <ele>349.10000000000002</ele>
        <time>2013-07-15T10:20:26Z</time>
      </trkpt>
      <trkpt lat="50.699253687635064" lon="6.245519500225782">
        <ele>348.62</ele>
        <time>2013-07-15T10:20:44Z</time>
      </trkpt>
      <trkpt lat="50.699120834469795" lon="6.245265193283558">
        <ele>347.64999999999998</ele>
        <time>2013-07-15T10:21:01Z</time>
      </trkpt>
      <trkpt lat="50.699038691818714" lon="6.245052628219128">
        <ele>346.20999999999998</ele>
        <time>2013-07-15T10:21:15Z</time>
      </trkpt>
      <trkpt lat="50.698888739570975" lon="6.244840146973729">
        <ele>345.25</ele>
        <time>2013-07-15T10:21:34Z</time>
      </trkpt>
      <trkpt lat="50.698800561949611" lon="6.244766637682915">
        <ele>344.76999999999998</ele>
        <time>2013-07-15T10:21:43Z</time>
      </trkpt>
      <trkpt lat="50.698096062988043" lon="6.244098013266921">
        <ele>339.48000000000002</ele>
        <time>2013-07-15T10:22:51Z</time>
      </trkpt>
      <trkpt lat="50.697918366640806" lon="6.243865499272943">
        <ele>338.51999999999998</ele>
        <time>2013-07-15T10:23:07Z</time>
      </trkpt>
      <trkpt lat="50.697813173756003" lon="6.243758797645569">
        <ele>338.04000000000002</ele>
        <time>2013-07-15T10:23:19Z</time>
      </trkpt>
      <trkpt lat="50.697355521842837" lon="6.243265103548765">
        <ele>337.07999999999998</ele>
        <time>2013-07-15T10:24:06Z</time>
      </trkpt>
      <trkpt lat="50.697191236540675" lon="6.242990177124739">
        <ele>336.60000000000002</ele>
        <time>2013-07-15T10:24:21Z</time>
      </trkpt>
      <trkpt lat="50.697144465520978" lon="6.242743162438273">
        <ele>335.63999999999999</ele>
        <time>2013-07-15T10:24:35Z</time>
      </trkpt>
      <trkpt lat="50.697095850482583" lon="6.24263746663928">
        <ele>335.63999999999999</ele>
        <time>2013-07-15T10:24:41Z</time>
      </trkpt>
      <trkpt lat="50.697091575711966" lon="6.242615841329098">
        <ele>335.16000000000003</ele>
        <time>2013-07-15T10:24:42Z</time>
      </trkpt>
      <trkpt lat="50.69708495400846" lon="6.242594383656979">
        <ele>335.16000000000003</ele>
        <time>2013-07-15T10:24:43Z</time>
      </trkpt>
      <trkpt lat="50.697079757228494" lon="6.242576111108065">
        <ele>335.16000000000003</ele>
        <time>2013-07-15T10:24:44Z</time>
      </trkpt>
      <trkpt lat="50.6970742251724" lon="6.242557419463992">
        <ele>335.16000000000003</ele>
        <time>2013-07-15T10:24:45Z</time>
      </trkpt>
      <trkpt lat="50.69705662317574" lon="6.242522047832608">
        <ele>334.68000000000001</ele>
        <time>2013-07-15T10:24:47Z</time>
      </trkpt>
      <trkpt lat="50.696982024237514" lon="6.242071185261011">
        <ele>333.23000000000002</ele>
        <time>2013-07-15T10:25:13Z</time>
      </trkpt>
      <trkpt lat="50.696801729500294" lon="6.241898685693741">
        <ele>332.75</ele>
        <time>2013-07-15T10:25:29Z</time>
      </trkpt>
      <trkpt lat="50.696755042299628" lon="6.241859961301088">
        <ele>332.26999999999998</ele>
        <time>2013-07-15T10:25:42Z</time>
      </trkpt>
      <trkpt lat="50.696699302643538" lon="6.241857530549169">
        <ele>332.26999999999998</ele>
        <time>2013-07-15T10:25:43Z</time>
      </trkpt>
      <trkpt lat="50.696714641526341" lon="6.241552513092756">
        <ele>332.26999999999998</ele>
        <time>2013-07-15T10:25:52Z</time>
      </trkpt>
      <trkpt lat="50.69684992544353" lon="6.2413015589118">
        <ele>332.26999999999998</ele>
        <time>2013-07-15T10:26:07Z</time>
      </trkpt>
      <trkpt lat="50.696935588493943" lon="6.241079187020659">
        <ele>331.79000000000002</ele>
        <time>2013-07-15T10:26:22Z</time>
      </trkpt>
      <trkpt lat="50.696942377835512" lon="6.241066697984934">
        <ele>331.79000000000002</ele>
        <time>2013-07-15T10:26:23Z</time>
      </trkpt>
      <trkpt lat="50.696948915719986" lon="6.24105672352016">
        <ele>331.79000000000002</ele>
        <time>2013-07-15T10:26:24Z</time>
      </trkpt>
      <trkpt lat="50.696955118328333" lon="6.241046162322164">
        <ele>331.79000000000002</ele>
        <time>2013-07-15T10:26:25Z</time>
      </trkpt>
      <trkpt lat="50.696961907669902" lon="6.241033338010311">
        <ele>331.79000000000002</ele>
        <time>2013-07-15T10:26:26Z</time>
      </trkpt>
      <trkpt lat="50.696967607364058" lon="6.241023112088442">
        <ele>331.79000000000002</ele>
        <time>2013-07-15T10:26:27Z</time>
      </trkpt>
      <trkpt lat="50.697032399475574" lon="6.24086712487042">
        <ele>330.82999999999998</ele>
        <time>2013-07-15T10:26:37Z</time>
      </trkpt>
      <trkpt lat="50.697045139968395" lon="6.240835608914495">
        <ele>330.82999999999998</ele>
        <time>2013-07-15T10:26:39Z</time>
      </trkpt>
      <trkpt lat="50.697050420567393" lon="6.240815408527851">
        <ele>330.35000000000002</ele>
        <time>2013-07-15T10:26:40Z</time>
      </trkpt>
      <trkpt lat="50.697055449709296" lon="6.240793112665415">
        <ele>330.35000000000002</ele>
        <time>2013-07-15T10:26:41Z</time>
      </trkpt>
      <trkpt lat="50.697132730856538" lon="6.240540985018015">
        <ele>328.91000000000003</ele>
        <time>2013-07-15T10:26:55Z</time>
      </trkpt>
      <trkpt lat="50.697192745283246" lon="6.24026077799499">
        <ele>327.94999999999999</ele>
        <time>2013-07-15T10:27:10Z</time>
      </trkpt>
      <trkpt lat="50.697373291477561" lon="6.239733556285501">
        <ele>325.06</ele>
        <time>2013-07-15T10:27:46Z</time>
      </trkpt>
      <trkpt lat="50.697479574009776" lon="6.239509927108884">
        <ele>324.57999999999998</ele>
        <time>2013-07-15T10:27:59Z</time>
      </trkpt>
      <trkpt lat="50.697948038578033" lon="6.238967953249812">
        <ele>319.30000000000001</ele>
        <time>2013-07-15T10:28:55Z</time>
      </trkpt>
      <trkpt lat="50.698891002684832" lon="6.238447185605764">
        <ele>315.44999999999999</ele>
        <time>2013-07-15T10:30:08Z</time>
      </trkpt>
      <trkpt lat="50.699202558025718" lon="6.23836437240243">
        <ele>314.49000000000001</ele>
        <time>2013-07-15T10:30:28Z</time>
      </trkpt>
      <trkpt lat="50.699317557737231" lon="6.238353224471211">
        <ele>314.00999999999999</ele>
        <time>2013-07-15T10:30:36Z</time>
      </trkpt>
      <trkpt lat="50.699402634054422" lon="6.23835607431829">
        <ele>313.52999999999997</ele>
        <time>2013-07-15T10:30:41Z</time>
      </trkpt>
      <trkpt lat="50.699557112529874" lon="6.238394379615784">
        <ele>313.05000000000001</ele>
        <time>2013-07-15T10:30:55Z</time>
      </trkpt>
      <trkpt lat="50.699813347309828" lon="6.238595545291901">
        <ele>311.60000000000002</ele>
        <time>2013-07-15T10:31:23Z</time>
      </trkpt>
      <trkpt lat="50.699879983440042" lon="6.238629827275872">
        <ele>310.63999999999999</ele>
        <time>2013-07-15T10:31:34Z</time>
      </trkpt>
      <trkpt lat="50.700234537944198" lon="6.23887742869556">
        <ele>308.72000000000003</ele>
        <time>2013-07-15T10:32:12Z</time>
      </trkpt>
      <trkpt lat="50.700615663081408" lon="6.239256374537945">
        <ele>306.31999999999999</ele>
        <time>2013-07-15T10:33:00Z</time>
      </trkpt>
      <trkpt lat="50.700625637546182" lon="6.239269031211734">
        <ele>306.31999999999999</ele>
        <time>2013-07-15T10:33:01Z</time>
      </trkpt>
      <trkpt lat="50.700765196233988" lon="6.239351006224752">
        <ele>305.36000000000001</ele>
        <time>2013-07-15T10:33:13Z</time>
      </trkpt>
      <trkpt lat="50.701315132901073" lon="6.239513782784343">
        <ele>301.99000000000001</ele>
        <time>2013-07-15T10:34:18Z</time>
      </trkpt>
      <trkpt lat="50.701383613049984" lon="6.23954689130187">
        <ele>301.99000000000001</ele>
        <time>2013-07-15T10:34:54Z</time>
      </trkpt>
      <trkpt lat="50.70146357640624" lon="6.239500623196363">
        <ele>301.99000000000001</ele>
        <time>2013-07-15T10:35:07Z</time>
      </trkpt>
      <trkpt lat="50.701560890302062" lon="6.239494504407048">
        <ele>301.50999999999999</ele>
        <time>2013-07-15T10:35:18Z</time>
      </trkpt>
      <trkpt lat="50.701573379337788" lon="6.23949215747416">
        <ele>301.50999999999999</ele>
        <time>2013-07-15T10:35:19Z</time>
      </trkpt>
      <trkpt lat="50.701587460935116" lon="6.239484949037433">
        <ele>301.02999999999997</ele>
        <time>2013-07-15T10:35:20Z</time>
      </trkpt>
      <trkpt lat="50.701603973284364" lon="6.239482099190354">
        <ele>301.02999999999997</ele>
        <time>2013-07-15T10:35:21Z</time>
      </trkpt>
      <trkpt lat="50.701716626062989" lon="6.239466676488519">
        <ele>300.55000000000001</ele>
        <time>2013-07-15T10:35:32Z</time>
      </trkpt>
      <trkpt lat="50.703524854034185" lon="6.239291662350297">
        <ele>288.52999999999997</ele>
        <time>2013-07-15T10:39:16Z</time>
      </trkpt>
      <trkpt lat="50.70364530198276" lon="6.239296523854137">
        <ele>291.89999999999998</ele>
        <time>2013-07-15T10:43:33Z</time>
      </trkpt>
      <trkpt lat="50.703683607280254" lon="6.23950338922441">
        <ele>291.89999999999998</ele>
        <time>2013-07-15T10:43:45Z</time>
      </trkpt>
      <trkpt lat="50.703865578398108" lon="6.239552423357964">
        <ele>291.89999999999998</ele>
        <time>2013-07-15T10:44:01Z</time>
      </trkpt>
      <trkpt lat="50.703874630853534" lon="6.239559212699533">
        <ele>291.89999999999998</ele>
        <time>2013-07-15T10:44:02Z</time>
      </trkpt>
      <trkpt lat="50.704042688012123" lon="6.239694412797689">
        <ele>291.89999999999998</ele>
        <time>2013-07-15T10:44:18Z</time>
      </trkpt>
      <trkpt lat="50.704087447375059" lon="6.239742105826736">
        <ele>290.45999999999998</ele>
        <time>2013-07-15T10:44:25Z</time>
      </trkpt>
      <trkpt lat="50.704221474006772" lon="6.239826679229736">
        <ele>289.97000000000003</ele>
        <time>2013-07-15T10:44:39Z</time>
      </trkpt>
      <trkpt lat="50.704252319410443" lon="6.239821817725897">
        <ele>289.49000000000001</ele>
        <time>2013-07-15T10:44:42Z</time>
      </trkpt>
      <trkpt lat="50.704389531165361" lon="6.239819470793009">
        <ele>288.05000000000001</ele>
        <time>2013-07-15T10:44:53Z</time>
      </trkpt>
      <trkpt lat="50.704558091238141" lon="6.239782674238086">
        <ele>287.08999999999997</ele>
        <time>2013-07-15T10:45:07Z</time>
      </trkpt>
      <trkpt lat="50.704710222780704" lon="6.239835731685162">
        <ele>287.08999999999997</ele>
        <time>2013-07-15T10:45:21Z</time>
      </trkpt>
      <trkpt lat="50.704817762598395" lon="6.239858362823725">
        <ele>288.52999999999997</ele>
        <time>2013-07-15T10:45:31Z</time>
      </trkpt>
      <trkpt lat="50.704944245517254" lon="6.239933799952269">
        <ele>288.05000000000001</ele>
        <time>2013-07-15T10:45:44Z</time>
      </trkpt>
      <trkpt lat="50.705006355419755" lon="6.239954922348261">
        <ele>288.05000000000001</ele>
        <time>2013-07-15T10:45:47Z</time>
      </trkpt>
      <trkpt lat="50.705076260492206" lon="6.239911252632737">
        <ele>287.08999999999997</ele>
        <time>2013-07-15T10:45:50Z</time>
      </trkpt>
      <trkpt lat="50.705124121159315" lon="6.239843443036079">
        <ele>287.08999999999997</ele>
        <time>2013-07-15T10:45:54Z</time>
      </trkpt>
      <trkpt lat="50.705157145857811" lon="6.239910665899515">
        <ele>286.61000000000001</ele>
        <time>2013-07-15T10:46:11Z</time>
      </trkpt>
      <trkpt lat="50.705292094498873" lon="6.23999590985477">
        <ele>285.17000000000002</ele>
        <time>2013-07-15T10:46:17Z</time>
      </trkpt>
      <trkpt lat="50.705487728118896" lon="6.239606151357293">
        <ele>285.17000000000002</ele>
        <time>2013-07-15T10:46:20Z</time>
      </trkpt>
      <trkpt lat="50.705575989559293" lon="6.23937682248652">
        <ele>283.73000000000002</ele>
        <time>2013-07-15T10:46:39Z</time>
      </trkpt>
      <trkpt lat="50.705656204372644" lon="6.239143218845129">
        <ele>283.25</ele>
        <time>2013-07-15T10:46:56Z</time>
      </trkpt>
      <trkpt lat="50.705668777227402" lon="6.238832417875528">
        <ele>282.27999999999997</ele>
        <time>2013-07-15T10:47:13Z</time>
      </trkpt>
      <trkpt lat="50.705519998446107" lon="6.238711215555668">
        <ele>282.27999999999997</ele>
        <time>2013-07-15T10:47:15Z</time>
      </trkpt>
      <trkpt lat="50.705478088930249" lon="6.238605687394738">
        <ele>282.27999999999997</ele>
        <time>2013-07-15T10:47:22Z</time>
      </trkpt>
      <trkpt lat="50.70527533069253" lon="6.238372083753347">
        <ele>282.27999999999997</ele>
        <time>2013-07-15T10:47:43Z</time>
      </trkpt>
      <trkpt lat="50.705130742862821" lon="6.238167900592089">
        <ele>283.73000000000002</ele>
        <time>2013-07-15T10:47:58Z</time>
      </trkpt>
      <trkpt lat="50.705032926052809" lon="6.237912755459547">
        <ele>283.73000000000002</ele>
        <time>2013-07-15T10:48:13Z</time>
      </trkpt>
      <trkpt lat="50.704913232475519" lon="6.237620897591114">
        <ele>283.73000000000002</ele>
        <time>2013-07-15T10:48:30Z</time>
      </trkpt>
      <trkpt lat="50.704803178086877" lon="6.237321496009827">
        <ele>284.69</ele>
        <time>2013-07-15T10:48:47Z</time>
      </trkpt>
      <trkpt lat="50.704613998532295" lon="6.236869543790817">
        <ele>284.69</ele>
        <time>2013-07-15T10:48:58Z</time>
      </trkpt>
      <trkpt lat="50.704403277486563" lon="6.236354727298021">
        <ele>284.20999999999998</ele>
        <time>2013-07-15T10:49:11Z</time>
      </trkpt>
      <trkpt lat="50.704187275841832" lon="6.235669422894716">
        <ele>285.17000000000002</ele>
        <time>2013-07-15T10:49:26Z</time>
      </trkpt>
      <trkpt lat="50.703993486240506" lon="6.235024183988571">
        <ele>286.13</ele>
        <time>2013-07-15T10:49:40Z</time>
      </trkpt>
      <trkpt lat="50.703478250652552" lon="6.232982100918889">
        <ele>287.56999999999999</ele>
        <time>2013-07-15T10:50:30Z</time>
      </trkpt>
      <trkpt lat="50.70342443883419" lon="6.232489664107561">
        <ele>288.52999999999997</ele>
        <time>2013-07-15T10:50:42Z</time>
      </trkpt>
      <trkpt lat="50.703394850715995" lon="6.232421854510903">
        <ele>288.52999999999997</ele>
        <time>2013-07-15T10:50:43Z</time>
      </trkpt>
      <trkpt lat="50.703100729733706" lon="6.231671422719955">
        <ele>289.97000000000003</ele>
        <time>2013-07-15T10:50:55Z</time>
      </trkpt>
      <trkpt lat="50.703037697821856" lon="6.231442429125309">
        <ele>290.45999999999998</ele>
        <time>2013-07-15T10:51:06Z</time>
      </trkpt>
      <trkpt lat="50.702984975650907" lon="6.231176387518644">
        <ele>291.42000000000002</ele>
        <time>2013-07-15T10:51:21Z</time>
      </trkpt>
      <trkpt lat="50.702941725030541" lon="6.231027441099286">
        <ele>291.89999999999998</ele>
        <time>2013-07-15T10:51:30Z</time>
      </trkpt>
      <trkpt lat="50.702893612906337" lon="6.23083415441215">
        <ele>292.38</ele>
        <time>2013-07-15T10:51:42Z</time>
      </trkpt>
      <trkpt lat="50.702816750854254" lon="6.230598790571094">
        <ele>292.86000000000001</ele>
        <time>2013-07-15T10:51:54Z</time>
      </trkpt>
      <trkpt lat="50.702761262655258" lon="6.230416232720017">
        <ele>293.33999999999997</ele>
        <time>2013-07-15T10:52:05Z</time>
      </trkpt>
      <trkpt lat="50.702702589333057" lon="6.230242559686303">
        <ele>293.81999999999999</ele>
        <time>2013-07-15T10:52:17Z</time>
      </trkpt>
      <trkpt lat="50.702635031193495" lon="6.230047177523375">
        <ele>294.77999999999997</ele>
        <time>2013-07-15T10:52:31Z</time>
      </trkpt>
      <trkpt lat="50.70256445556879" lon="6.229843581095338">
        <ele>295.25999999999999</ele>
        <time>2013-07-15T10:52:45Z</time>
      </trkpt>
      <trkpt lat="50.702534029260278" lon="6.229656077921391">
        <ele>296.22000000000003</ele>
        <time>2013-07-15T10:52:56Z</time>
      </trkpt>
      <trkpt lat="50.702509889379144" lon="6.229524733498693">
        <ele>296.22000000000003</ele>
        <time>2013-07-15T10:53:03Z</time>
      </trkpt>
      <trkpt lat="50.702448114752769" lon="6.229291465133429">
        <ele>296.69999999999999</ele>
        <time>2013-07-15T10:53:16Z</time>
      </trkpt>
      <trkpt lat="50.702360104769468" lon="6.229015197604895">
        <ele>298.14999999999998</ele>
        <time>2013-07-15T10:53:31Z</time>
      </trkpt>
      <trkpt lat="50.702346442267299" lon="6.228973371908069">
        <ele>298.14999999999998</ele>
        <time>2013-07-15T10:53:34Z</time>
      </trkpt>
      <trkpt lat="50.702328672632575" lon="6.228891480714083">
        <ele>298.63</ele>
        <time>2013-07-15T10:53:39Z</time>
      </trkpt>
      <trkpt lat="50.702213253825903" lon="6.228655194863677">
        <ele>298.63</ele>
        <time>2013-07-15T10:53:55Z</time>
      </trkpt>
      <trkpt lat="50.702000772580504" lon="6.227788925170898">
        <ele>299.11000000000001</ele>
        <time>2013-07-15T10:54:48Z</time>
      </trkpt>
      <trkpt lat="50.701937070116401" lon="6.227597063407302">
        <ele>299.11000000000001</ele>
        <time>2013-07-15T10:55:01Z</time>
      </trkpt>
      <trkpt lat="50.701876133680344" lon="6.227441998198628">
        <ele>299.58999999999997</ele>
        <time>2013-07-15T10:55:12Z</time>
      </trkpt>
      <trkpt lat="50.701753674075007" lon="6.227260613813996">
        <ele>299.58999999999997</ele>
        <time>2013-07-15T10:55:25Z</time>
      </trkpt>
      <trkpt lat="50.701628867536783" lon="6.227034302428365">
        <ele>298.14999999999998</ele>
        <time>2013-07-15T10:55:37Z</time>
      </trkpt>
      <trkpt lat="50.70071985013783" lon="6.22360342182219">
        <ele>289.97000000000003</ele>
        <time>2013-07-15T10:58:57Z</time>
      </trkpt>
      <trkpt lat="50.700152898207307" lon="6.221372410655022">
        <ele>291.89999999999998</ele>
        <time>2013-07-15T11:00:54Z</time>
      </trkpt>
      <trkpt lat="50.69949634373188" lon="6.219841120764613">
        <ele>296.22000000000003</ele>
        <time>2013-07-15T11:02:40Z</time>
      </trkpt>
      <trkpt lat="50.699441945180297" lon="6.219690497964621">
        <ele>296.22000000000003</ele>
        <time>2013-07-15T11:03:01Z</time>
      </trkpt>
      <trkpt lat="50.699305403977633" lon="6.219707764685154">
        <ele>296.22000000000003</ele>
        <time>2013-07-15T11:03:14Z</time>
      </trkpt>
      <trkpt lat="50.699302554130554" lon="6.219732239842415">
        <ele>294.77999999999997</ele>
        <time>2013-07-15T11:03:16Z</time>
      </trkpt>
      <trkpt lat="50.699296100065112" lon="6.219756714999676">
        <ele>294.30000000000001</ele>
        <time>2013-07-15T11:03:18Z</time>
      </trkpt>
      <trkpt lat="50.699152518063784" lon="6.219948576763272">
        <ele>293.33999999999997</ele>
        <time>2013-07-15T11:03:31Z</time>
      </trkpt>
      <trkpt lat="50.69909518584609" lon="6.220050249248743">
        <ele>292.86000000000001</ele>
        <time>2013-07-15T11:03:38Z</time>
      </trkpt>
      <trkpt lat="50.698944479227066" lon="6.220201626420021">
        <ele>291.89999999999998</ele>
        <time>2013-07-15T11:03:52Z</time>
      </trkpt>
      <trkpt lat="50.698786396533251" lon="6.220375131815672">
        <ele>291.89999999999998</ele>
        <time>2013-07-15T11:04:07Z</time>
      </trkpt>
      <trkpt lat="50.698524881154299" lon="6.220600437372923">
        <ele>291.42000000000002</ele>
        <time>2013-07-15T11:13:27Z</time>
      </trkpt>
      <trkpt lat="50.698465621098876" lon="6.220314279198647">
        <ele>291.89999999999998</ele>
        <time>2013-07-15T11:13:43Z</time>
      </trkpt>
      <trkpt lat="50.698405019938946" lon="6.220014626160264">
        <ele>294.30000000000001</ele>
        <time>2013-07-15T11:14:00Z</time>
      </trkpt>
      <trkpt lat="50.698345173150301" lon="6.219930136576295">
        <ele>294.77999999999997</ele>
        <time>2013-07-15T11:14:09Z</time>
      </trkpt>
      <trkpt lat="50.698179714381695" lon="6.220010854303837">
        <ele>294.77999999999997</ele>
        <time>2013-07-15T11:14:25Z</time>
      </trkpt>
      <trkpt lat="50.698090447112918" lon="6.220066342502832">
        <ele>294.77999999999997</ele>
        <time>2013-07-15T11:14:32Z</time>
      </trkpt>
      <trkpt lat="50.697988942265511" lon="6.220132978633046">
        <ele>294.77999999999997</ele>
        <time>2013-07-15T11:14:41Z</time>
      </trkpt>
      <trkpt lat="50.697903949767351" lon="6.22016591951251">
        <ele>293.33999999999997</ele>
        <time>2013-07-15T11:14:48Z</time>
      </trkpt>
      <trkpt lat="50.697770593687892" lon="6.22003398835659">
        <ele>292.86000000000001</ele>
        <time>2013-07-15T11:15:00Z</time>
      </trkpt>
      <trkpt lat="50.697648217901587" lon="6.219840114936233">
        <ele>292.86000000000001</ele>
        <time>2013-07-15T11:15:13Z</time>
      </trkpt>
      <trkpt lat="50.697501031681895" lon="6.219502575695515">
        <ele>292.86000000000001</ele>
        <time>2013-07-15T11:15:31Z</time>
      </trkpt>
      <trkpt lat="50.697361892089248" lon="6.219169311225414">
        <ele>292.86000000000001</ele>
        <time>2013-07-15T11:15:49Z</time>
      </trkpt>
      <trkpt lat="50.697273882105947" lon="6.218865383416414">
        <ele>292.86000000000001</ele>
        <time>2013-07-15T11:16:05Z</time>
      </trkpt>
      <trkpt lat="50.69720322266221" lon="6.218694979324937">
        <ele>293.81999999999999</ele>
        <time>2013-07-15T11:16:15Z</time>
      </trkpt>
      <trkpt lat="50.697117475792766" lon="6.218682574108243">
        <ele>293.81999999999999</ele>
        <time>2013-07-15T11:16:23Z</time>
      </trkpt>
      <trkpt lat="50.697063580155373" lon="6.218767734244466">
        <ele>293.81999999999999</ele>
        <time>2013-07-15T11:16:30Z</time>
      </trkpt>
      <trkpt lat="50.697008343413472" lon="6.218871921300888">
        <ele>293.81999999999999</ele>
        <time>2013-07-15T11:16:38Z</time>
      </trkpt>
      <trkpt lat="50.697013037279248" lon="6.218958841636777">
        <ele>293.81999999999999</ele>
        <time>2013-07-15T11:16:43Z</time>
      </trkpt>
      <trkpt lat="50.697107836604118" lon="6.21916763484478">
        <ele>293.81999999999999</ele>
        <time>2013-07-15T11:17:00Z</time>
      </trkpt>
      <trkpt lat="50.697170365601778" lon="6.219231840223074">
        <ele>293.81999999999999</ele>
        <time>2013-07-15T11:17:17Z</time>
      </trkpt>
      <trkpt lat="50.697289053350687" lon="6.219350779429078">
        <ele>293.81999999999999</ele>
        <time>2013-07-15T11:17:29Z</time>
      </trkpt>
      <trkpt lat="50.697428276762366" lon="6.219524368643761">
        <ele>293.81999999999999</ele>
        <time>2013-07-15T11:17:43Z</time>
      </trkpt>
      <trkpt lat="50.697483345866203" lon="6.219632746651769">
        <ele>293.81999999999999</ele>
        <time>2013-07-15T11:17:50Z</time>
      </trkpt>
      <trkpt lat="50.697520393878222" lon="6.219701394438744">
        <ele>293.81999999999999</ele>
        <time>2013-07-15T11:17:54Z</time>
      </trkpt>
      <trkpt lat="50.69760144688189" lon="6.219760151579976">
        <ele>293.81999999999999</ele>
        <time>2013-07-15T11:18:01Z</time>
      </trkpt>
      <trkpt lat="50.697648720815778" lon="6.219843048602343">
        <ele>293.81999999999999</ele>
        <time>2013-07-15T11:18:05Z</time>
      </trkpt>
      <trkpt lat="50.697667663916945" lon="6.219883449375629">
        <ele>293.81999999999999</ele>
        <time>2013-07-15T11:18:06Z</time>
      </trkpt>
      <trkpt lat="50.697921551764011" lon="6.220195759087801">
        <ele>293.33999999999997</ele>
        <time>2013-07-15T11:18:17Z</time>
      </trkpt>
      <trkpt lat="50.698046525940299" lon="6.22011655010283">
        <ele>293.33999999999997</ele>
        <time>2013-07-15T11:18:28Z</time>
      </trkpt>
      <trkpt lat="50.698159681633115" lon="6.219960395246744">
        <ele>293.33999999999997</ele>
        <time>2013-07-15T11:18:42Z</time>
      </trkpt>
      <trkpt lat="50.698327403515577" lon="6.219849586486816">
        <ele>293.81999999999999</ele>
        <time>2013-07-15T11:18:56Z</time>
      </trkpt>
      <trkpt lat="50.698581961914897" lon="6.219637524336577">
        <ele>294.30000000000001</ele>
        <time>2013-07-15T11:19:17Z</time>
      </trkpt>
      <trkpt lat="50.698850182816386" lon="6.219446333125234">
        <ele>296.22000000000003</ele>
        <time>2013-07-15T11:19:40Z</time>
      </trkpt>
      <trkpt lat="50.698932576924562" lon="6.219375254586339">
        <ele>296.69999999999999</ele>
        <time>2013-07-15T11:19:49Z</time>
      </trkpt>
      <trkpt lat="50.699026538059115" lon="6.219306355342269">
        <ele>297.67000000000002</ele>
        <time>2013-07-15T11:19:59Z</time>
      </trkpt>
      <trkpt lat="50.699133826419711" lon="6.219208957627416">
        <ele>298.63</ele>
        <time>2013-07-15T11:20:14Z</time>
      </trkpt>
      <trkpt lat="50.699241617694497" lon="6.219099406152964">
        <ele>299.11000000000001</ele>
        <time>2013-07-15T11:20:27Z</time>
      </trkpt>
      <trkpt lat="50.699388887733221" lon="6.218992788344622">
        <ele>300.55000000000001</ele>
        <time>2013-07-15T11:20:41Z</time>
      </trkpt>
      <trkpt lat="50.699500953778625" lon="6.218887344002724">
        <ele>301.02999999999997</ele>
        <time>2013-07-15T11:20:53Z</time>
      </trkpt>
      <trkpt lat="50.699663395062089" lon="6.218823222443461">
        <ele>302.47000000000003</ele>
        <time>2013-07-15T11:21:06Z</time>
      </trkpt>
      <trkpt lat="50.699885850772262" lon="6.218751473352313">
        <ele>303.91000000000003</ele>
        <time>2013-07-15T11:21:22Z</time>
      </trkpt>
      <trkpt lat="50.700063295662403" lon="6.218721466138959">
        <ele>305.36000000000001</ele>
        <time>2013-07-15T11:21:36Z</time>
      </trkpt>
      <trkpt lat="50.700266975909472" lon="6.218757256865501">
        <ele>306.80000000000001</ele>
        <time>2013-07-15T11:21:50Z</time>
      </trkpt>
      <trkpt lat="50.700417850166559" lon="6.218834705650806">
        <ele>307.75999999999999</ele>
        <time>2013-07-15T11:22:02Z</time>
      </trkpt>
      <trkpt lat="50.700604598969221" lon="6.218930091708899">
        <ele>308.72000000000003</ele>
        <time>2013-07-15T11:22:16Z</time>
      </trkpt>
      <trkpt lat="50.70073451846838" lon="6.219026735052466">
        <ele>309.68000000000001</ele>
        <time>2013-07-15T11:22:27Z</time>
      </trkpt>
      <trkpt lat="50.700745331123471" lon="6.219039056450129">
        <ele>309.68000000000001</ele>
        <time>2013-07-15T11:22:28Z</time>
      </trkpt>
      <trkpt lat="50.700904754921794" lon="6.219205018132925">
        <ele>311.12</ele>
        <time>2013-07-15T11:22:45Z</time>
      </trkpt>
      <trkpt lat="50.701008019968867" lon="6.219343319535255">
        <ele>312.08999999999997</ele>
        <time>2013-07-15T11:22:59Z</time>
      </trkpt>
      <trkpt lat="50.701100388541818" lon="6.219445997849107">
        <ele>313.05000000000001</ele>
        <time>2013-07-15T11:23:09Z</time>
      </trkpt>
      <trkpt lat="50.701236594468355" lon="6.219623107463121">
        <ele>314.00999999999999</ele>
        <time>2013-07-15T11:23:21Z</time>
      </trkpt>
      <trkpt lat="50.701429545879364" lon="6.219851681962609">
        <ele>315.44999999999999</ele>
        <time>2013-07-15T11:23:40Z</time>
      </trkpt>
      <trkpt lat="50.701615624129772" lon="6.220052512362599">
        <ele>316.41000000000003</ele>
        <time>2013-07-15T11:23:57Z</time>
      </trkpt>
      <trkpt lat="50.701778400689363" lon="6.220244374126196">
        <ele>317.37</ele>
        <time>2013-07-15T11:24:13Z</time>
      </trkpt>
      <trkpt lat="50.701834978535771" lon="6.220307573676109">
        <ele>317.85000000000002</ele>
        <time>2013-07-15T11:24:18Z</time>
      </trkpt>
      <trkpt lat="50.701867835596204" lon="6.220347555354238">
        <ele>317.85000000000002</ele>
        <time>2013-07-15T11:24:22Z</time>
      </trkpt>
      <trkpt lat="50.702055506408215" lon="6.220501363277435">
        <ele>319.30000000000001</ele>
        <time>2013-07-15T11:24:39Z</time>
      </trkpt>
      <trkpt lat="50.702245440334082" lon="6.220562551170588">
        <ele>320.74000000000001</ele>
        <time>2013-07-15T11:24:57Z</time>
      </trkpt>
      <trkpt lat="50.702391285449266" lon="6.22054360806942">
        <ele>321.69999999999999</ele>
        <time>2013-07-15T11:25:10Z</time>
      </trkpt>
      <trkpt lat="50.702572418376803" lon="6.220489963889122">
        <ele>323.13999999999999</ele>
        <time>2013-07-15T11:25:26Z</time>
      </trkpt>
      <trkpt lat="50.702756568789482" lon="6.220401367172599">
        <ele>324.10000000000002</ele>
        <time>2013-07-15T11:25:42Z</time>
      </trkpt>
      <trkpt lat="50.702930660918355" lon="6.220324086025357">
        <ele>325.06</ele>
        <time>2013-07-15T11:25:57Z</time>
      </trkpt>
      <trkpt lat="50.703115062788129" lon="6.220227107405663">
        <ele>326.01999999999998</ele>
        <time>2013-07-15T11:26:14Z</time>
      </trkpt>
      <trkpt lat="50.703299129381776" lon="6.220134655013681">
        <ele>326.99000000000001</ele>
        <time>2013-07-15T11:26:30Z</time>
      </trkpt>
      <trkpt lat="50.703454110771418" lon="6.2200559489429">
        <ele>326.99000000000001</ele>
        <time>2013-07-15T11:26:45Z</time>
      </trkpt>
      <trkpt lat="50.703646223992109" lon="6.219948241487145">
        <ele>328.91000000000003</ele>
        <time>2013-07-15T12:13:21Z</time>
      </trkpt>
      <trkpt lat="50.70363893173635" lon="6.219958299770951">
        <ele>328.91000000000003</ele>
        <time>2013-07-15T12:13:37Z</time>
      </trkpt>
      <trkpt lat="50.703668352216482" lon="6.219963245093823">
        <ele>328.91000000000003</ele>
        <time>2013-07-15T12:13:54Z</time>
      </trkpt>
      <trkpt lat="50.703674806281924" lon="6.219958132132888">
        <ele>328.91000000000003</ele>
        <time>2013-07-15T12:14:11Z</time>
      </trkpt>
      <trkpt lat="50.703755356371403" lon="6.219812287017703">
        <ele>328.91000000000003</ele>
        <time>2013-07-15T12:15:02Z</time>
      </trkpt>
      <trkpt lat="50.703774970024824" lon="6.219722349196672">
        <ele>328.91000000000003</ele>
        <time>2013-07-15T12:15:09Z</time>
      </trkpt>
      <trkpt lat="50.703831212595105" lon="6.219470556825399">
        <ele>328.91000000000003</ele>
        <time>2013-07-15T12:15:26Z</time>
      </trkpt>
      <trkpt lat="50.703857447952032" lon="6.219412470236421">
        <ele>328.91000000000003</ele>
        <time>2013-07-15T12:15:30Z</time>
      </trkpt>
      <trkpt lat="50.703854262828827" lon="6.219786051660776">
        <ele>328.91000000000003</ele>
        <time>2013-07-15T12:15:34Z</time>
      </trkpt>
      <trkpt lat="50.70395115762949" lon="6.219750847667456">
        <ele>328.91000000000003</ele>
        <time>2013-07-15T12:15:39Z</time>
      </trkpt>
      <trkpt lat="50.704083759337664" lon="6.219606008380652">
        <ele>328.91000000000003</ele>
        <time>2013-07-15T12:15:49Z</time>
      </trkpt>
      <trkpt lat="50.704014608636498" lon="6.219180291518569">
        <ele>328.91000000000003</ele>
        <time>2013-07-15T12:15:50Z</time>
      </trkpt>
      <trkpt lat="50.703972112387419" lon="6.219081971794367">
        <ele>328.91000000000003</ele>
        <time>2013-07-15T12:15:59Z</time>
      </trkpt>
      <trkpt lat="50.703917797654867" lon="6.21893210336566">
        <ele>328.91000000000003</ele>
        <time>2013-07-15T12:16:09Z</time>
      </trkpt>
      <trkpt lat="50.703884102404118" lon="6.218856582418084">
        <ele>328.91000000000003</ele>
        <time>2013-07-15T12:16:15Z</time>
      </trkpt>
      <trkpt lat="50.703867003321648" lon="6.218796065077186">
        <ele>328.91000000000003</ele>
        <time>2013-07-15T12:16:18Z</time>
      </trkpt>
      <trkpt lat="50.70385979488492" lon="6.21877133846283">
        <ele>328.91000000000003</ele>
        <time>2013-07-15T12:16:19Z</time>
      </trkpt>
      <trkpt lat="50.703852083534002" lon="6.218755664303899">
        <ele>328.91000000000003</ele>
        <time>2013-07-15T12:16:20Z</time>
      </trkpt>
      <trkpt lat="50.703780418261886" lon="6.218605879694223">
        <ele>329.38999999999999</ele>
        <time>2013-07-15T12:16:31Z</time>
      </trkpt>
      <trkpt lat="50.703535918146372" lon="6.218023002147675">
        <ele>328.43000000000001</ele>
        <time>2013-07-15T12:17:33Z</time>
      </trkpt>
      <trkpt lat="50.703476658090949" lon="6.217952929437161">
        <ele>328.43000000000001</ele>
        <time>2013-07-15T12:17:45Z</time>
      </trkpt>
      <trkpt lat="50.703265350311995" lon="6.217785375192761">
        <ele>328.43000000000001</ele>
        <time>2013-07-15T12:18:04Z</time>
      </trkpt>
      <trkpt lat="50.703094778582454" lon="6.2176763266325">
        <ele>328.43000000000001</ele>
        <time>2013-07-15T12:18:19Z</time>
      </trkpt>
      <trkpt lat="50.702921943739057" lon="6.217493517324328">
        <ele>328.43000000000001</ele>
        <time>2013-07-15T12:18:35Z</time>
      </trkpt>
      <trkpt lat="50.702766375616193" lon="6.217240132391453">
        <ele>327.94999999999999</ele>
        <time>2013-07-15T12:18:52Z</time>
      </trkpt>
      <trkpt lat="50.702715078368783" lon="6.217163354158402">
        <ele>327.94999999999999</ele>
        <time>2013-07-15T12:18:58Z</time>
      </trkpt>
      <trkpt lat="50.702704433351755" lon="6.217150194570422">
        <ele>327.94999999999999</ele>
        <time>2013-07-15T12:18:59Z</time>
      </trkpt>
      <trkpt lat="50.702695213258266" lon="6.217132760211825">
        <ele>327.94999999999999</ele>
        <time>2013-07-15T12:19:00Z</time>
      </trkpt>
      <trkpt lat="50.702685071155429" lon="6.217112727463245">
        <ele>327.94999999999999</ele>
        <time>2013-07-15T12:19:01Z</time>
      </trkpt>
      <trkpt lat="50.702675683423877" lon="6.21709680184722">
        <ele>327.94999999999999</ele>
        <time>2013-07-15T12:19:02Z</time>
      </trkpt>
      <trkpt lat="50.70254735648632" lon="6.216899575665593">
        <ele>327.94999999999999</ele>
        <time>2013-07-15T12:19:16Z</time>
      </trkpt>
      <trkpt lat="50.702384747564793" lon="6.216659853234887">
        <ele>327.94999999999999</ele>
        <time>2013-07-15T12:19:33Z</time>
      </trkpt>
      <trkpt lat="50.702245021238923" lon="6.216477798298001">
        <ele>327.94999999999999</ele>
        <time>2013-07-15T12:19:47Z</time>
      </trkpt>
      <trkpt lat="50.702070510014892" lon="6.216250564903021">
        <ele>327.94999999999999</ele>
        <time>2013-07-15T12:20:04Z</time>
      </trkpt>
      <trkpt lat="50.701918713748455" lon="6.216088710352778">
        <ele>327.94999999999999</ele>
        <time>2013-07-15T12:20:17Z</time>
      </trkpt>
      <trkpt lat="50.701905889436603" lon="6.216077897697687">
        <ele>327.94999999999999</ele>
        <time>2013-07-15T12:20:18Z</time>
      </trkpt>
      <trkpt lat="50.701893651857972" lon="6.216065073385835">
        <ele>327.94999999999999</ele>
        <time>2013-07-15T12:20:19Z</time>
      </trkpt>
      <trkpt lat="50.701880576089025" lon="6.21605359017849">
        <ele>327.94999999999999</ele>
        <time>2013-07-15T12:20:20Z</time>
      </trkpt>
      <trkpt lat="50.701869344338775" lon="6.216042945161462">
        <ele>327.94999999999999</ele>
        <time>2013-07-15T12:20:21Z</time>
      </trkpt>
      <trkpt lat="50.701857609674335" lon="6.21603355742991">
        <ele>327.94999999999999</ele>
        <time>2013-07-15T12:20:22Z</time>
      </trkpt>
      <trkpt lat="50.701722158119082" lon="6.215893495827913">
        <ele>327.94999999999999</ele>
        <time>2013-07-15T12:20:35Z</time>
      </trkpt>
      <trkpt lat="50.70162333548069" lon="6.215768102556467">
        <ele>327.94999999999999</ele>
        <time>2013-07-15T12:20:46Z</time>
      </trkpt>
      <trkpt lat="50.701468689367175" lon="6.215576408430934">
        <ele>327.94999999999999</ele>
        <time>2013-07-15T12:21:02Z</time>
      </trkpt>
      <trkpt lat="50.701290322467685" lon="6.215259237214923">
        <ele>329.38999999999999</ele>
        <time>2013-07-15T12:21:22Z</time>
      </trkpt>
      <trkpt lat="50.70112100802362" lon="6.215004762634635">
        <ele>329.38999999999999</ele>
        <time>2013-07-15T12:21:40Z</time>
      </trkpt>
      <trkpt lat="50.701004331931472" lon="6.214820360764861">
        <ele>329.38999999999999</ele>
        <time>2013-07-15T12:21:54Z</time>
      </trkpt>
      <trkpt lat="50.700989998877048" lon="6.214793538674712">
        <ele>329.38999999999999</ele>
        <time>2013-07-15T12:21:56Z</time>
      </trkpt>
      <trkpt lat="50.700981030240655" lon="6.214781049638987">
        <ele>329.38999999999999</ele>
        <time>2013-07-15T12:21:57Z</time>
      </trkpt>
      <trkpt lat="50.700972564518452" lon="6.214769063517451">
        <ele>329.38999999999999</ele>
        <time>2013-07-15T12:21:58Z</time>
      </trkpt>
      <trkpt lat="50.700962757691741" lon="6.214757077395916">
        <ele>329.38999999999999</ele>
        <time>2013-07-15T12:21:59Z</time>
      </trkpt>
      <trkpt lat="50.700951442122459" lon="6.21474115177989">
        <ele>329.38999999999999</ele>
        <time>2013-07-15T12:22:00Z</time>
      </trkpt>
      <trkpt lat="50.700810039415956" lon="6.214539650827646">
        <ele>329.38999999999999</ele>
        <time>2013-07-15T12:22:15Z</time>
      </trkpt>
      <trkpt lat="50.700780786573887" lon="6.214506709948182">
        <ele>330.35000000000002</ele>
        <time>2013-07-15T12:22:18Z</time>
      </trkpt>
      <trkpt lat="50.700766704976559" lon="6.21449782513082">
        <ele>330.35000000000002</ele>
        <time>2013-07-15T12:22:19Z</time>
      </trkpt>
      <trkpt lat="50.700753210112453" lon="6.214485503733158">
        <ele>330.35000000000002</ele>
        <time>2013-07-15T12:22:20Z</time>
      </trkpt>
      <trkpt lat="50.700738709419966" lon="6.214472847059369">
        <ele>330.35000000000002</ele>
        <time>2013-07-15T12:22:21Z</time>
      </trkpt>
      <trkpt lat="50.700724963098764" lon="6.21446069329977">
        <ele>330.35000000000002</ele>
        <time>2013-07-15T12:22:22Z</time>
      </trkpt>
      <trkpt lat="50.700710630044341" lon="6.214447449892759">
        <ele>330.35000000000002</ele>
        <time>2013-07-15T12:22:23Z</time>
      </trkpt>
      <trkpt lat="50.700699482113123" lon="6.214434709399939">
        <ele>330.35000000000002</ele>
        <time>2013-07-15T12:22:24Z</time>
      </trkpt>
      <trkpt lat="50.700689004734159" lon="6.214419789612293">
        <ele>330.35000000000002</ele>
        <time>2013-07-15T12:22:25Z</time>
      </trkpt>
      <trkpt lat="50.700680371373892" lon="6.21440595947206">
        <ele>330.82999999999998</ele>
        <time>2013-07-15T12:22:26Z</time>
      </trkpt>
      <trkpt lat="50.70067198947072" lon="6.214397829025984">
        <ele>330.82999999999998</ele>
        <time>2013-07-15T12:22:27Z</time>
      </trkpt>
      <trkpt lat="50.700661260634661" lon="6.214387686923146">
        <ele>330.82999999999998</ele>
        <time>2013-07-15T12:22:28Z</time>
      </trkpt>
      <trkpt lat="50.700652040541172" lon="6.214375197887421">
        <ele>330.82999999999998</ele>
        <time>2013-07-15T12:22:29Z</time>
      </trkpt>
      <trkpt lat="50.700486665591598" lon="6.214183671399951">
        <ele>330.82999999999998</ele>
        <time>2013-07-15T12:22:46Z</time>
      </trkpt>
      <trkpt lat="50.700308047235012" lon="6.213994910940528">
        <ele>331.31</ele>
        <time>2013-07-15T12:23:02Z</time>
      </trkpt>
      <trkpt lat="50.700113419443369" lon="6.213787123560906">
        <ele>332.75</ele>
        <time>2013-07-15T12:23:21Z</time>
      </trkpt>
      <trkpt lat="50.699949050322175" lon="6.213629376143217">
        <ele>332.26999999999998</ele>
        <time>2013-07-15T12:23:37Z</time>
      </trkpt>
      <trkpt lat="50.699801025912166" lon="6.213503228500485">
        <ele>333.23000000000002</ele>
        <time>2013-07-15T12:23:51Z</time>
      </trkpt>
      <trkpt lat="50.699645457789302" lon="6.21335537172854">
        <ele>333.70999999999998</ele>
        <time>2013-07-15T12:24:07Z</time>
      </trkpt>
      <trkpt lat="50.699467845261097" lon="6.21317314915359">
        <ele>334.19999999999999</ele>
        <time>2013-07-15T12:24:23Z</time>
      </trkpt>
      <trkpt lat="50.699356365948915" lon="6.213037446141243">
        <ele>334.68000000000001</ele>
        <time>2013-07-15T12:24:35Z</time>
      </trkpt>
      <trkpt lat="50.699347984045744" lon="6.213021101430059">
        <ele>334.68000000000001</ele>
        <time>2013-07-15T12:24:36Z</time>
      </trkpt>
      <trkpt lat="50.699340021237731" lon="6.213007858023047">
        <ele>334.68000000000001</ele>
        <time>2013-07-15T12:24:37Z</time>
      </trkpt>
      <trkpt lat="50.699330801144242" lon="6.212995955720544">
        <ele>334.68000000000001</ele>
        <time>2013-07-15T12:24:38Z</time>
      </trkpt>
      <trkpt lat="50.699321832507849" lon="6.212981706485152">
        <ele>334.68000000000001</ele>
        <time>2013-07-15T12:24:39Z</time>
      </trkpt>
      <trkpt lat="50.699313534423709" lon="6.21296837925911">
        <ele>334.68000000000001</ele>
        <time>2013-07-15T12:24:40Z</time>
      </trkpt>
      <trkpt lat="50.699306158348918" lon="6.212955638766289">
        <ele>334.68000000000001</ele>
        <time>2013-07-15T12:24:41Z</time>
      </trkpt>
      <trkpt lat="50.699175987392664" lon="6.212758412584662">
        <ele>334.68000000000001</ele>
        <time>2013-07-15T12:24:56Z</time>
      </trkpt>
      <trkpt lat="50.699014803394675" lon="6.212516846135259">
        <ele>335.16000000000003</ele>
        <time>2013-07-15T12:25:14Z</time>
      </trkpt>
      <trkpt lat="50.698854038491845" lon="6.212269244715571">
        <ele>335.16000000000003</ele>
        <time>2013-07-15T12:25:32Z</time>
      </trkpt>
      <trkpt lat="50.698713306337595" lon="6.212047040462494">
        <ele>335.16000000000003</ele>
        <time>2013-07-15T12:25:49Z</time>
      </trkpt>
      <trkpt lat="50.698657147586346" lon="6.2119793985039">
        <ele>335.16000000000003</ele>
        <time>2013-07-15T12:25:56Z</time>
      </trkpt>
      <trkpt lat="50.698589337989688" lon="6.211883844807744">
        <ele>335.16000000000003</ele>
        <time>2013-07-15T12:26:07Z</time>
      </trkpt>
      <trkpt lat="50.698581291362643" lon="6.211864901706576">
        <ele>335.16000000000003</ele>
        <time>2013-07-15T12:26:08Z</time>
      </trkpt>
      <trkpt lat="50.698571735993028" lon="6.21184453368187">
        <ele>335.16000000000003</ele>
        <time>2013-07-15T12:26:09Z</time>
      </trkpt>
      <trkpt lat="50.69852689281106" lon="6.21180304326117">
        <ele>335.16000000000003</ele>
        <time>2013-07-15T12:26:19Z</time>
      </trkpt>
      <trkpt lat="50.698515828698874" lon="6.211830200627446">
        <ele>335.63999999999999</ele>
        <time>2013-07-15T12:26:21Z</time>
      </trkpt>
      <trkpt lat="50.698432512581348" lon="6.211965484544635">
        <ele>335.63999999999999</ele>
        <time>2013-07-15T12:26:32Z</time>
      </trkpt>
      <trkpt lat="50.698356740176678" lon="6.212069420143962">
        <ele>335.63999999999999</ele>
        <time>2013-07-15T12:26:44Z</time>
      </trkpt>
      <trkpt lat="50.698274178430438" lon="6.212183078750968">
        <ele>335.63999999999999</ele>
        <time>2013-07-15T12:26:56Z</time>
      </trkpt>
      <trkpt lat="50.698159597814083" lon="6.212282739579678">
        <ele>336.12</ele>
        <time>2013-07-15T12:27:09Z</time>
      </trkpt>
      <trkpt lat="50.69756431505084" lon="6.213163929060102">
        <ele>336.60000000000002</ele>
        <time>2013-07-15T12:28:42Z</time>
      </trkpt>
      <trkpt lat="50.696764262393117" lon="6.214543422684073">
        <ele>335.63999999999999</ele>
        <time>2013-07-15T12:28:52Z</time>
      </trkpt>
      <trkpt lat="50.696221031248569" lon="6.213058736175299">
        <ele>335.63999999999999</ele>
        <time>2013-07-15T12:29:09Z</time>
      </trkpt>
      <trkpt lat="50.695794811472297" lon="6.211616462096572">
        <ele>315.44999999999999</ele>
        <time>2013-07-15T12:31:51Z</time>
      </trkpt>
      <trkpt lat="50.695775616914034" lon="6.211490565910935">
        <ele>312.08999999999997</ele>
        <time>2013-07-15T12:32:01Z</time>
      </trkpt>
      <trkpt lat="50.695645529776812" lon="6.211271965876222">
        <ele>312.56999999999999</ele>
        <time>2013-07-15T12:32:12Z</time>
      </trkpt>
      <trkpt lat="50.695546204224229" lon="6.211121259257197">
        <ele>315.93000000000001</ele>
        <time>2013-07-15T12:32:26Z</time>
      </trkpt>
      <trkpt lat="50.695436904206872" lon="6.211023610085249">
        <ele>318.32999999999998</ele>
        <time>2013-07-15T12:32:40Z</time>
      </trkpt>
      <trkpt lat="50.695314696058631" lon="6.210842477157712">
        <ele>319.30000000000001</ele>
        <time>2013-07-15T12:32:54Z</time>
      </trkpt>
      <trkpt lat="50.695198774337769" lon="6.210683304816485">
        <ele>322.18000000000001</ele>
        <time>2013-07-15T12:33:06Z</time>
      </trkpt>
      <trkpt lat="50.695094587281346" lon="6.21058389544487">
        <ele>324.57999999999998</ele>
        <time>2013-07-15T12:33:19Z</time>
      </trkpt>
      <trkpt lat="50.695016048848629" lon="6.210454311221838">
        <ele>326.5</ele>
        <time>2013-07-15T12:33:31Z</time>
      </trkpt>
      <trkpt lat="50.694931978359818" lon="6.210343083366752">
        <ele>327.94999999999999</ele>
        <time>2013-07-15T12:33:45Z</time>
      </trkpt>
      <trkpt lat="50.694764759391546" lon="6.210149377584457">
        <ele>328.91000000000003</ele>
        <time>2013-07-15T12:33:59Z</time>
      </trkpt>
      <trkpt lat="50.694638947024941" lon="6.210074946284294">
        <ele>329.87</ele>
        <time>2013-07-15T12:34:09Z</time>
      </trkpt>
      <trkpt lat="50.694517074152827" lon="6.210014680400491">
        <ele>330.35000000000002</ele>
        <time>2013-07-15T12:34:19Z</time>
      </trkpt>
      <trkpt lat="50.69450399838388" lon="6.210001688450575">
        <ele>330.35000000000002</ele>
        <time>2013-07-15T12:34:20Z</time>
      </trkpt>
      <trkpt lat="50.694323871284723" lon="6.209858693182468">
        <ele>330.35000000000002</ele>
        <time>2013-07-15T12:34:36Z</time>
      </trkpt>
      <trkpt lat="50.694281458854675" lon="6.209821728989482">
        <ele>330.35000000000002</ele>
        <time>2013-07-15T12:34:40Z</time>
      </trkpt>
      <trkpt lat="50.694273496046662" lon="6.209810329601169">
        <ele>330.35000000000002</ele>
        <time>2013-07-15T12:34:41Z</time>
      </trkpt>
      <trkpt lat="50.694222450256348" lon="6.209774790331721">
        <ele>330.82999999999998</ele>
        <time>2013-07-15T12:34:47Z</time>
      </trkpt>
      <trkpt lat="50.694147432222962" lon="6.209739670157433">
        <ele>330.82999999999998</ele>
        <time>2013-07-15T12:34:52Z</time>
      </trkpt>
      <trkpt lat="50.694129578769207" lon="6.209733970463276">
        <ele>330.82999999999998</ele>
        <time>2013-07-15T12:34:53Z</time>
      </trkpt>
      <trkpt lat="50.694113820791245" lon="6.20973028242588">
        <ele>330.82999999999998</ele>
        <time>2013-07-15T12:34:54Z</time>
      </trkpt>
      <trkpt lat="50.694075934588909" lon="6.209716117009521">
        <ele>331.31</ele>
        <time>2013-07-15T12:34:57Z</time>
      </trkpt>
      <trkpt lat="50.693953391164541" lon="6.209646631032229">
        <ele>331.31</ele>
        <time>2013-07-15T12:35:08Z</time>
      </trkpt>
      <trkpt lat="50.69386295042932" lon="6.209564739838243">
        <ele>331.31</ele>
        <time>2013-07-15T12:35:17Z</time>
      </trkpt>
      <trkpt lat="50.693854065611959" lon="6.20955090969801">
        <ele>331.79000000000002</ele>
        <time>2013-07-15T12:35:18Z</time>
      </trkpt>
      <trkpt lat="50.693775024265051" lon="6.209504054859281">
        <ele>331.79000000000002</ele>
        <time>2013-07-15T12:35:25Z</time>
      </trkpt>
      <trkpt lat="50.69364451803267" lon="6.209441861137748">
        <ele>331.79000000000002</ele>
        <time>2013-07-15T12:35:34Z</time>
      </trkpt>
      <trkpt lat="50.693460702896118" lon="6.209360975772142">
        <ele>331.79000000000002</ele>
        <time>2013-07-15T12:35:48Z</time>
      </trkpt>
      <trkpt lat="50.69330396130681" lon="6.209309007972479">
        <ele>331.79000000000002</ele>
        <time>2013-07-15T12:36:01Z</time>
      </trkpt>
      <trkpt lat="50.693156439810991" lon="6.209198953583837">
        <ele>331.79000000000002</ele>
        <time>2013-07-15T12:36:15Z</time>
      </trkpt>
      <trkpt lat="50.693103214725852" lon="6.209161570295692">
        <ele>332.26999999999998</ele>
        <time>2013-07-15T12:36:19Z</time>
      </trkpt>
      <trkpt lat="50.692977486178279" lon="6.209059059619904">
        <ele>332.75</ele>
        <time>2013-07-15T12:36:30Z</time>
      </trkpt>
      <trkpt lat="50.692789060994983" lon="6.20898948982358">
        <ele>332.75</ele>
        <time>2013-07-15T12:36:45Z</time>
      </trkpt>
      <trkpt lat="50.692624691873789" lon="6.20886443182826">
        <ele>332.75</ele>
        <time>2013-07-15T12:36:57Z</time>
      </trkpt>
      <trkpt lat="50.692560402676463" lon="6.208812380209565">
        <ele>332.75</ele>
        <time>2013-07-15T12:37:03Z</time>
      </trkpt>
      <trkpt lat="50.692398883402348" lon="6.208742894232273">
        <ele>332.75</ele>
        <time>2013-07-15T12:37:16Z</time>
      </trkpt>
      <trkpt lat="50.692279608920217" lon="6.208703415468335">
        <ele>332.75</ele>
        <time>2013-07-15T12:37:28Z</time>
      </trkpt>
      <trkpt lat="50.692126303911209" lon="6.208637785166502">
        <ele>332.75</ele>
        <time>2013-07-15T12:37:41Z</time>
      </trkpt>
      <trkpt lat="50.691983224824071" lon="6.208528149873018">
        <ele>334.19999999999999</ele>
        <time>2013-07-15T12:37:54Z</time>
      </trkpt>
      <trkpt lat="50.691836038604379" lon="6.208378113806248">
        <ele>334.68000000000001</ele>
        <time>2013-07-15T12:38:07Z</time>
      </trkpt>
      <trkpt lat="50.691723302006721" lon="6.208285242319107">
        <ele>336.60000000000002</ele>
        <time>2013-07-15T12:38:22Z</time>
      </trkpt>
      <trkpt lat="50.69164945743978" lon="6.208287086337805">
        <ele>338.04000000000002</ele>
        <time>2013-07-15T12:38:35Z</time>
      </trkpt>
      <trkpt lat="50.691559435799718" lon="6.208248613402247">
        <ele>338.04000000000002</ele>
        <time>2013-07-15T12:38:49Z</time>
      </trkpt>
      <trkpt lat="50.691394815221429" lon="6.208159849047661">
        <ele>339.48000000000002</ele>
        <time>2013-07-15T12:39:05Z</time>
      </trkpt>
      <trkpt lat="50.691270343959332" lon="6.208096565678716">
        <ele>339.48000000000002</ele>
        <time>2013-07-15T12:39:17Z</time>
      </trkpt>
      <trkpt lat="50.691163809970021" lon="6.208033617585897">
        <ele>339.48000000000002</ele>
        <time>2013-07-15T12:39:25Z</time>
      </trkpt>
      <trkpt lat="50.691135646775365" lon="6.208020877093077">
        <ele>339.48000000000002</ele>
        <time>2013-07-15T12:39:26Z</time>
      </trkpt>
      <trkpt lat="50.691111674532294" lon="6.208002520725131">
        <ele>339.48000000000002</ele>
        <time>2013-07-15T12:39:27Z</time>
      </trkpt>
      <trkpt lat="50.691081751137972" lon="6.207985254004598">
        <ele>339.48000000000002</ele>
        <time>2013-07-15T12:39:28Z</time>
      </trkpt>
      <trkpt lat="50.69105233065784" lon="6.207965472713113">
        <ele>339.48000000000002</ele>
        <time>2013-07-15T12:39:29Z</time>
      </trkpt>
      <trkpt lat="50.69102399982512" lon="6.20794577524066">
        <ele>339.48000000000002</ele>
        <time>2013-07-15T12:39:30Z</time>
      </trkpt>
      <trkpt lat="50.691001117229462" lon="6.207924736663699">
        <ele>339.48000000000002</ele>
        <time>2013-07-15T12:39:31Z</time>
      </trkpt>
      <trkpt lat="50.69097463041544" lon="6.207904033362865">
        <ele>339.48000000000002</ele>
        <time>2013-07-15T12:39:32Z</time>
      </trkpt>
      <trkpt lat="50.690793078392744" lon="6.207754667848349">
        <ele>339.48000000000002</ele>
        <time>2013-07-15T12:39:41Z</time>
      </trkpt>
      <trkpt lat="50.690522594377398" lon="6.20757688768208">
        <ele>339.48000000000002</ele>
        <time>2013-07-15T12:39:50Z</time>
      </trkpt>
      <trkpt lat="50.690211374312639" lon="6.207399861887097">
        <ele>339.48000000000002</ele>
        <time>2013-07-15T12:40:03Z</time>
      </trkpt>
      <trkpt lat="50.690116658806801" lon="6.207418804988265">
        <ele>339.48000000000002</ele>
        <time>2013-07-15T12:40:13Z</time>
      </trkpt>
      <trkpt lat="50.690104085952044" lon="6.207407573238015">
        <ele>339.48000000000002</ele>
        <time>2013-07-15T12:40:14Z</time>
      </trkpt>
      <trkpt lat="50.689964778721333" lon="6.207286790013313">
        <ele>340.44</ele>
        <time>2013-07-15T12:40:20Z</time>
      </trkpt>
      <trkpt lat="50.68972178734839" lon="6.207126276567578">
        <ele>341.41000000000003</ele>
        <time>2013-07-15T12:40:31Z</time>
      </trkpt>
      <trkpt lat="50.689515843987465" lon="6.207079170271754">
        <ele>342.37</ele>
        <time>2013-07-15T12:40:43Z</time>
      </trkpt>
      <trkpt lat="50.689308391883969" lon="6.207074476405978">
        <ele>340.92000000000002</ele>
        <time>2013-07-15T12:40:57Z</time>
      </trkpt>
      <trkpt lat="50.688819475471973" lon="6.206819331273437">
        <ele>341.41000000000003</ele>
        <time>2013-07-15T12:43:25Z</time>
      </trkpt>
      <trkpt lat="50.688719730824232" lon="6.20674766600132">
        <ele>341.41000000000003</ele>
        <time>2013-07-15T12:43:39Z</time>
      </trkpt>
      <trkpt lat="50.688594086095691" lon="6.206677258014679">
        <ele>340.44</ele>
        <time>2013-07-15T12:43:54Z</time>
      </trkpt>
      <trkpt lat="50.688471961766481" lon="6.206615986302495">
        <ele>339.48000000000002</ele>
        <time>2013-07-15T12:44:06Z</time>
      </trkpt>
      <trkpt lat="50.68829158321023" lon="6.206536358222365">
        <ele>339.48000000000002</ele>
        <time>2013-07-15T12:44:19Z</time>
      </trkpt>
      <trkpt lat="50.688207261264324" lon="6.206491347402334">
        <ele>338.51999999999998</ele>
        <time>2013-07-15T12:44:26Z</time>
      </trkpt>
      <trkpt lat="50.688077928498387" lon="6.206441642716527">
        <ele>338.04000000000002</ele>
        <time>2013-07-15T12:44:38Z</time>
      </trkpt>
      <trkpt lat="50.68801648914814" lon="6.206411886960268">
        <ele>337.56</ele>
        <time>2013-07-15T12:44:51Z</time>
      </trkpt>
      <trkpt lat="50.687922947108746" lon="6.206361344084144">
        <ele>336.60000000000002</ele>
        <time>2013-07-15T12:45:03Z</time>
      </trkpt>
      <trkpt lat="50.687874080613256" lon="6.206322703510523">
        <ele>336.12</ele>
        <time>2013-07-15T12:45:08Z</time>
      </trkpt>
      <trkpt lat="50.68785916082561" lon="6.206315578892827">
        <ele>335.63999999999999</ele>
        <time>2013-07-15T12:45:09Z</time>
      </trkpt>
      <trkpt lat="50.685909949243069" lon="6.205352917313576">
        <ele>316.88999999999999</ele>
        <time>2013-07-15T12:48:27Z</time>
      </trkpt>
      <trkpt lat="50.685274852439761" lon="6.2049959320575">
        <ele>317.85000000000002</ele>
        <time>2013-07-15T12:50:56Z</time>
      </trkpt>
      <trkpt lat="50.685200840234756" lon="6.204890152439475">
        <ele>317.85000000000002</ele>
        <time>2013-07-15T12:51:06Z</time>
      </trkpt>
      <trkpt lat="50.685043511912227" lon="6.204761993139982">
        <ele>317.85000000000002</ele>
        <time>2013-07-15T12:51:20Z</time>
      </trkpt>
      <trkpt lat="50.685031022876501" lon="6.204759897664189">
        <ele>317.85000000000002</ele>
        <time>2013-07-15T12:51:21Z</time>
      </trkpt>
      <trkpt lat="50.684849387034774" lon="6.204550852999091">
        <ele>317.85000000000002</ele>
        <time>2013-07-15T12:51:38Z</time>
      </trkpt>
      <trkpt lat="50.68475685082376" lon="6.204422526061535">
        <ele>317.85000000000002</ele>
        <time>2013-07-15T12:51:53Z</time>
      </trkpt>
      <trkpt lat="50.684678228572011" lon="6.204266119748354">
        <ele>318.32999999999998</ele>
        <time>2013-07-15T12:52:06Z</time>
      </trkpt>
      <trkpt lat="50.684558702632785" lon="6.20406461879611">
        <ele>318.32999999999998</ele>
        <time>2013-07-15T12:52:20Z</time>
      </trkpt>
      <trkpt lat="50.684472536668181" lon="6.203884994611144">
        <ele>318.32999999999998</ele>
        <time>2013-07-15T12:52:34Z</time>
      </trkpt>
      <trkpt lat="50.684442110359669" lon="6.203827997669578">
        <ele>318.32999999999998</ele>
        <time>2013-07-15T12:52:38Z</time>
      </trkpt>
      <trkpt lat="50.684298276901245" lon="6.203635046258569">
        <ele>319.30000000000001</ele>
        <time>2013-07-15T12:52:53Z</time>
      </trkpt>
      <trkpt lat="50.684176906943321" lon="6.203526668250561">
        <ele>319.30000000000001</ele>
        <time>2013-07-15T12:53:08Z</time>
      </trkpt>
      <trkpt lat="50.68401706404984" lon="6.203339667990804">
        <ele>318.81</ele>
        <time>2013-07-15T12:53:23Z</time>
      </trkpt>
      <trkpt lat="50.683857137337327" lon="6.203239923343062">
        <ele>318.81</ele>
        <time>2013-07-15T12:53:36Z</time>
      </trkpt>
      <trkpt lat="50.683779185637832" lon="6.203098269179463">
        <ele>318.81</ele>
        <time>2013-07-15T12:53:50Z</time>
      </trkpt>
      <trkpt lat="50.683692013844848" lon="6.202937923371792">
        <ele>319.30000000000001</ele>
        <time>2013-07-15T12:54:03Z</time>
      </trkpt>
      <trkpt lat="50.683553544804454" lon="6.202531987801194">
        <ele>319.77999999999997</ele>
        <time>2013-07-15T12:54:29Z</time>
      </trkpt>
      <trkpt lat="50.683581624180079" lon="6.202332749962807">
        <ele>320.25999999999999</ele>
        <time>2013-07-15T12:54:42Z</time>
      </trkpt>
      <trkpt lat="50.683586904779077" lon="6.202287403866649">
        <ele>320.25999999999999</ele>
        <time>2013-07-15T12:54:44Z</time>
      </trkpt>
      <trkpt lat="50.683573074638844" lon="6.202070228755474">
        <ele>320.25999999999999</ele>
        <time>2013-07-15T12:54:57Z</time>
      </trkpt>
      <trkpt lat="50.683487830683589" lon="6.20184475556016">
        <ele>320.74000000000001</ele>
        <time>2013-07-15T12:55:10Z</time>
      </trkpt>
      <trkpt lat="50.683375345543027" lon="6.201692624017596">
        <ele>320.25999999999999</ele>
        <time>2013-07-15T12:55:24Z</time>
      </trkpt>
      <trkpt lat="50.683192452415824" lon="6.201579216867685">
        <ele>320.25999999999999</ele>
        <time>2013-07-15T12:55:40Z</time>
      </trkpt>
      <trkpt lat="50.682734716683626" lon="6.201019557192922">
        <ele>320.74000000000001</ele>
        <time>2013-07-15T12:56:38Z</time>
      </trkpt>
      <trkpt lat="50.682721305638552" lon="6.200999272987247">
        <ele>320.74000000000001</ele>
        <time>2013-07-15T12:56:40Z</time>
      </trkpt>
      <trkpt lat="50.682619046419859" lon="6.200860301032662">
        <ele>320.74000000000001</ele>
        <time>2013-07-15T12:56:51Z</time>
      </trkpt>
      <trkpt lat="50.682488791644573" lon="6.200653770938516">
        <ele>321.22000000000003</ele>
        <time>2013-07-15T12:57:07Z</time>
      </trkpt>
      <trkpt lat="50.682424083352089" lon="6.20057724416256">
        <ele>321.22000000000003</ele>
        <time>2013-07-15T12:57:12Z</time>
      </trkpt>
      <trkpt lat="50.682316878810525" lon="6.200437350198627">
        <ele>321.22000000000003</ele>
        <time>2013-07-15T12:57:26Z</time>
      </trkpt>
      <trkpt lat="50.682256948202848" lon="6.200395943596959">
        <ele>321.69999999999999</ele>
        <time>2013-07-15T12:57:33Z</time>
      </trkpt>
      <trkpt lat="50.681967185810208" lon="6.200158903375268">
        <ele>320.25999999999999</ele>
        <time>2013-07-15T12:58:49Z</time>
      </trkpt>
      <trkpt lat="50.682038767263293" lon="6.199970562011004">
        <ele>321.69999999999999</ele>
        <time>2013-07-15T12:59:02Z</time>
      </trkpt>
      <trkpt lat="50.682085370644927" lon="6.199730336666107">
        <ele>322.66000000000003</ele>
        <time>2013-07-15T12:59:17Z</time>
      </trkpt>
      <trkpt lat="50.682100122794509" lon="6.199580552056432">
        <ele>323.13999999999999</ele>
        <time>2013-07-15T12:59:29Z</time>
      </trkpt>
      <trkpt lat="50.682163489982486" lon="6.199351055547595">
        <ele>325.06</ele>
        <time>2013-07-15T12:59:43Z</time>
      </trkpt>
      <trkpt lat="50.682242950424552" lon="6.199155254289508">
        <ele>326.01999999999998</ele>
        <time>2013-07-15T12:59:51Z</time>
      </trkpt>
      <trkpt lat="50.682382425293326" lon="6.198925590142608">
        <ele>328.43000000000001</ele>
        <time>2013-07-15T13:00:05Z</time>
      </trkpt>
      <trkpt lat="50.682428861036897" lon="6.198778655380011">
        <ele>330.82999999999998</ele>
        <time>2013-07-15T13:00:19Z</time>
      </trkpt>
      <trkpt lat="50.682414527982473" lon="6.198584949597716">
        <ele>332.75</ele>
        <time>2013-07-15T13:00:33Z</time>
      </trkpt>
      <trkpt lat="50.682416288182139" lon="6.198412952944636">
        <ele>334.68000000000001</ele>
        <time>2013-07-15T13:00:45Z</time>
      </trkpt>
      <trkpt lat="50.682405978441238" lon="6.198349166661501">
        <ele>335.16000000000003</ele>
        <time>2013-07-15T13:00:51Z</time>
      </trkpt>
      <trkpt lat="50.682355351746082" lon="6.19816392660141">
        <ele>337.07999999999998</ele>
        <time>2013-07-15T13:01:04Z</time>
      </trkpt>
      <trkpt lat="50.682281171903014" lon="6.197968628257513">
        <ele>338.04000000000002</ele>
        <time>2013-07-15T13:01:17Z</time>
      </trkpt>
      <trkpt lat="50.682244459167123" lon="6.197792189195752">
        <ele>339</ele>
        <time>2013-07-15T13:01:27Z</time>
      </trkpt>
      <trkpt lat="50.682186372578144" lon="6.197545425966382">
        <ele>339.95999999999998</ele>
        <time>2013-07-15T13:01:40Z</time>
      </trkpt>
      <trkpt lat="50.682176733389497" lon="6.197350462898612">
        <ele>340.92000000000002</ele>
        <time>2013-07-15T13:01:56Z</time>
      </trkpt>
      <trkpt lat="50.682068020105362" lon="6.197191793471575">
        <ele>340.92000000000002</ele>
        <time>2013-07-15T13:02:09Z</time>
      </trkpt>
      <trkpt lat="50.68203080445528" lon="6.197105878964067">
        <ele>340.92000000000002</ele>
        <time>2013-07-15T13:02:15Z</time>
      </trkpt>
      <trkpt lat="50.682017393410206" lon="6.196969002485275">
        <ele>342.37</ele>
        <time>2013-07-15T13:02:27Z</time>
      </trkpt>
      <trkpt lat="50.682017225772142" lon="6.196769094094634">
        <ele>342.85000000000002</ele>
        <time>2013-07-15T13:02:39Z</time>
      </trkpt>
      <trkpt lat="50.681985458359122" lon="6.196616208180785">
        <ele>342.85000000000002</ele>
        <time>2013-07-15T13:02:47Z</time>
      </trkpt>
      <trkpt lat="50.681799799203873" lon="6.196478577330709">
        <ele>342.85000000000002</ele>
        <time>2013-07-15T13:03:04Z</time>
      </trkpt>
      <trkpt lat="50.681653870269656" lon="6.196380006149411">
        <ele>341.88999999999999</ele>
        <time>2013-07-15T13:03:19Z</time>
      </trkpt>
      <trkpt lat="50.681514060124755" lon="6.196215050294995">
        <ele>341.41000000000003</ele>
        <time>2013-07-15T13:03:34Z</time>
      </trkpt>
      <trkpt lat="50.681359833106399" lon="6.196071300655603">
        <ele>340.92000000000002</ele>
        <time>2013-07-15T13:03:49Z</time>
      </trkpt>
      <trkpt lat="50.681200409308076" lon="6.195997036993504">
        <ele>340.44</ele>
        <time>2013-07-15T13:04:02Z</time>
      </trkpt>
      <trkpt lat="50.681189345195889" lon="6.195992762222886">
        <ele>340.44</ele>
        <time>2013-07-15T13:04:03Z</time>
      </trkpt>
      <trkpt lat="50.68117031827569" lon="6.195973148569465">
        <ele>340.44</ele>
        <time>2013-07-15T13:04:05Z</time>
      </trkpt>
      <trkpt lat="50.681010643020272" lon="6.195859657600522">
        <ele>339.48000000000002</ele>
        <time>2013-07-15T13:04:21Z</time>
      </trkpt>
      <trkpt lat="50.680811740458012" lon="6.195787573233247">
        <ele>339</ele>
        <time>2013-07-15T13:04:36Z</time>
      </trkpt>
      <trkpt lat="50.680643767118454" lon="6.195716997608542">
        <ele>338.51999999999998</ele>
        <time>2013-07-15T13:04:49Z</time>
      </trkpt>
      <trkpt lat="50.680471016094089" lon="6.195642314851284">
        <ele>338.51999999999998</ele>
        <time>2013-07-15T13:05:04Z</time>
      </trkpt>
      <trkpt lat="50.680363727733493" lon="6.195607781410217">
        <ele>338.51999999999998</ele>
        <time>2013-07-15T13:05:17Z</time>
      </trkpt>
      <trkpt lat="50.680338833481073" lon="6.195583725348115">
        <ele>338.51999999999998</ele>
        <time>2013-07-15T13:05:27Z</time>
      </trkpt>
      <trkpt lat="50.680297762155533" lon="6.195574505254626">
        <ele>338.51999999999998</ele>
        <time>2013-07-15T13:05:42Z</time>
      </trkpt>
      <trkpt lat="50.680279238149524" lon="6.195551790297031">
        <ele>338.51999999999998</ele>
        <time>2013-07-15T13:05:45Z</time>
      </trkpt>
      <trkpt lat="50.680228276178241" lon="6.195470821112394">
        <ele>338.51999999999998</ele>
        <time>2013-07-15T13:05:53Z</time>
      </trkpt>
      <trkpt lat="50.680070528760552" lon="6.195487165823579">
        <ele>339.95999999999998</ele>
        <time>2013-07-15T13:06:09Z</time>
      </trkpt>
      <trkpt lat="50.679973633959889" lon="6.195414494723082">
        <ele>341.41000000000003</ele>
        <time>2013-07-15T13:06:23Z</time>
      </trkpt>
      <trkpt lat="50.680043958127499" lon="6.195450956001878">
        <ele>340.92000000000002</ele>
        <time>2013-07-15T13:06:37Z</time>
      </trkpt>
      <trkpt lat="50.680076060816646" lon="6.195424888283014">
        <ele>339.95999999999998</ele>
        <time>2013-07-15T13:06:40Z</time>
      </trkpt>
      <trkpt lat="50.680107325315475" lon="6.195258507505059">
        <ele>340.92000000000002</ele>
        <time>2013-07-15T13:06:53Z</time>
      </trkpt>
      <trkpt lat="50.680104643106461" lon="6.195245515555143">
        <ele>340.92000000000002</ele>
        <time>2013-07-15T13:06:54Z</time>
      </trkpt>
      <trkpt lat="50.680072540417314" lon="6.195138227194548">
        <ele>341.41000000000003</ele>
        <time>2013-07-15T13:07:05Z</time>
      </trkpt>
      <trkpt lat="50.680027026683092" lon="6.194871515035629">
        <ele>342.85000000000002</ele>
        <time>2013-07-15T13:07:18Z</time>
      </trkpt>
      <trkpt lat="50.679988553747535" lon="6.194657692685723">
        <ele>343.32999999999998</ele>
        <time>2013-07-15T13:07:30Z</time>
      </trkpt>
      <trkpt lat="50.679952008649707" lon="6.194427106529474">
        <ele>344.29000000000002</ele>
        <time>2013-07-15T13:07:44Z</time>
      </trkpt>
      <trkpt lat="50.679890485480428" lon="6.194149497896433">
        <ele>344.29000000000002</ele>
        <time>2013-07-15T13:08:00Z</time>
      </trkpt>
      <trkpt lat="50.679850000888109" lon="6.19391530752182">
        <ele>344.29000000000002</ele>
        <time>2013-07-15T13:08:11Z</time>
      </trkpt>
      <trkpt lat="50.677846558392048" lon="6.181545546278358">
        <ele>333.23000000000002</ele>
        <time>2013-07-15T13:20:12Z</time>
      </trkpt>
      <trkpt lat="50.677736084908247" lon="6.181053696200252">
        <ele>334.19999999999999</ele>
        <time>2013-07-15T13:20:22Z</time>
      </trkpt>
      <trkpt lat="50.67765167914331" lon="6.180463274940848">
        <ele>334.68000000000001</ele>
        <time>2013-07-15T13:20:35Z</time>
      </trkpt>
      <trkpt lat="50.677639944478869" lon="6.180415246635675">
        <ele>335.16000000000003</ele>
        <time>2013-07-15T13:20:36Z</time>
      </trkpt>
      <trkpt lat="50.677633741870522" lon="6.180367134511471">
        <ele>335.16000000000003</ele>
        <time>2013-07-15T13:20:37Z</time>
      </trkpt>
      <trkpt lat="50.677626114338636" lon="6.180309718474746">
        <ele>335.16000000000003</ele>
        <time>2013-07-15T13:20:38Z</time>
      </trkpt>
      <trkpt lat="50.67761748097837" lon="6.180253056809306">
        <ele>335.63999999999999</ele>
        <time>2013-07-15T13:20:39Z</time>
      </trkpt>
      <trkpt lat="50.67646773532033" lon="6.173029784113169">
        <ele>339.95999999999998</ele>
        <time>2013-07-15T13:24:12Z</time>
      </trkpt>
      <trkpt lat="50.676372013986111" lon="6.172385048121214">
        <ele>341.41000000000003</ele>
        <time>2013-07-15T13:24:26Z</time>
      </trkpt>
      <trkpt lat="50.676367739215493" lon="6.172103751450777">
        <ele>341.41000000000003</ele>
        <time>2013-07-15T13:24:37Z</time>
      </trkpt>
      <trkpt lat="50.676373522728682" lon="6.172089921310544">
        <ele>341.41000000000003</ele>
        <time>2013-07-15T13:24:38Z</time>
      </trkpt>
      <trkpt lat="50.676390873268247" lon="6.172077767550945">
        <ele>341.41000000000003</ele>
        <time>2013-07-15T13:24:40Z</time>
      </trkpt>
      <trkpt lat="50.676410067826509" lon="6.172068631276488">
        <ele>340.44</ele>
        <time>2013-07-15T13:24:42Z</time>
      </trkpt>
      <trkpt lat="50.676551219075918" lon="6.171990344300866">
        <ele>339.95999999999998</ele>
        <time>2013-07-15T13:24:54Z</time>
      </trkpt>
      <trkpt lat="50.676728412508965" lon="6.171951368451119">
        <ele>340.44</ele>
        <time>2013-07-15T13:25:02Z</time>
      </trkpt>
      <trkpt lat="50.676777111366391" lon="6.171943489462137">
        <ele>339.95999999999998</ele>
        <time>2013-07-15T13:25:04Z</time>
      </trkpt>
      <trkpt lat="50.676808124408126" lon="6.171946590766311">
        <ele>339.95999999999998</ele>
        <time>2013-07-15T13:25:05Z</time>
      </trkpt>
      <trkpt lat="50.677160667255521" lon="6.171912727877498">
        <ele>339.95999999999998</ele>
        <time>2013-07-15T13:25:16Z</time>
      </trkpt>
      <trkpt lat="50.677546402439475" lon="6.171807702630758">
        <ele>339.95999999999998</ele>
        <time>2013-07-15T13:25:29Z</time>
      </trkpt>
      <trkpt lat="50.677911434322596" lon="6.171564375981689">
        <ele>339.95999999999998</ele>
        <time>2013-07-15T13:25:41Z</time>
      </trkpt>
      <trkpt lat="50.678180912509561" lon="6.171312164515257">
        <ele>338.51999999999998</ele>
        <time>2013-07-15T13:25:52Z</time>
      </trkpt>
      <trkpt lat="50.678263641893864" lon="6.171158105134964">
        <ele>337.56</ele>
        <time>2013-07-15T13:26:05Z</time>
      </trkpt>
      <trkpt lat="50.6783826649189" lon="6.171027682721615">
        <ele>336.60000000000002</ele>
        <time>2013-07-15T13:26:19Z</time>
      </trkpt>
      <trkpt lat="50.678540328517556" lon="6.170983929187059">
        <ele>336.12</ele>
        <time>2013-07-15T13:26:32Z</time>
      </trkpt>
      <trkpt lat="50.678800921887159" lon="6.170907402411103">
        <ele>335.63999999999999</ele>
        <time>2013-07-15T13:26:47Z</time>
      </trkpt>
      <trkpt lat="50.678991107270122" lon="6.170823751017451">
        <ele>335.63999999999999</ele>
        <time>2013-07-15T13:27:01Z</time>
      </trkpt>
      <trkpt lat="50.679179280996323" lon="6.170760551467538">
        <ele>334.68000000000001</ele>
        <time>2013-07-15T13:27:15Z</time>
      </trkpt>
      <trkpt lat="50.679337866604328" lon="6.170713696628809">
        <ele>333.70999999999998</ele>
        <time>2013-07-15T13:27:27Z</time>
      </trkpt>
      <trkpt lat="50.679491255432367" lon="6.170663572847843">
        <ele>333.23000000000002</ele>
        <time>2013-07-15T13:27:40Z</time>
      </trkpt>
      <trkpt lat="50.67969024181366" lon="6.170616047456861">
        <ele>332.26999999999998</ele>
        <time>2013-07-15T13:27:54Z</time>
      </trkpt>
      <trkpt lat="50.679857209324837" lon="6.170565588399768">
        <ele>332.26999999999998</ele>
        <time>2013-07-15T13:28:08Z</time>
      </trkpt>
      <trkpt lat="50.679992996156216" lon="6.170489732176065">
        <ele>331.31</ele>
        <time>2013-07-15T13:28:19Z</time>
      </trkpt>
      <trkpt lat="50.680004814639688" lon="6.170486798509955">
        <ele>331.31</ele>
        <time>2013-07-15T13:28:20Z</time>
      </trkpt>
      <trkpt lat="50.680017806589603" lon="6.170483697205782">
        <ele>331.31</ele>
        <time>2013-07-15T13:28:21Z</time>
      </trkpt>
      <trkpt lat="50.68017203360796" lon="6.170432902872562">
        <ele>330.35000000000002</ele>
        <time>2013-07-15T13:28:36Z</time>
      </trkpt>
      <trkpt lat="50.680184355005622" lon="6.170443128794432">
        <ele>330.35000000000002</ele>
        <time>2013-07-15T13:28:37Z</time>
      </trkpt>
      <trkpt lat="50.680211680009961" lon="6.170455198734999">
        <ele>329.87</ele>
        <time>2013-07-15T13:28:39Z</time>
      </trkpt>
      <trkpt lat="50.680221235379577" lon="6.170448577031493">
        <ele>329.87</ele>
        <time>2013-07-15T13:28:40Z</time>
      </trkpt>
      <trkpt lat="50.680232802405953" lon="6.170444553717971">
        <ele>329.87</ele>
        <time>2013-07-15T13:28:41Z</time>
      </trkpt>
      <trkpt lat="50.680244034156203" lon="6.170441452413797">
        <ele>329.87</ele>
        <time>2013-07-15T13:28:42Z</time>
      </trkpt>
      <trkpt lat="50.680256271734834" lon="6.170437932014465">
        <ele>329.87</ele>
        <time>2013-07-15T13:28:43Z</time>
      </trkpt>
      <trkpt lat="50.680268341675401" lon="6.17043131031096">
        <ele>329.38999999999999</ele>
        <time>2013-07-15T13:28:44Z</time>
      </trkpt>
      <trkpt lat="50.680309748277068" lon="6.170408511534333">
        <ele>329.38999999999999</ele>
        <time>2013-07-15T13:28:48Z</time>
      </trkpt>
      <trkpt lat="50.680320393294096" lon="6.170402141287923">
        <ele>329.38999999999999</ele>
        <time>2013-07-15T13:28:49Z</time>
      </trkpt>
      <trkpt lat="50.680333133786917" lon="6.170398117974401">
        <ele>329.38999999999999</ele>
        <time>2013-07-15T13:28:50Z</time>
      </trkpt>
      <trkpt lat="50.680345874279737" lon="6.170392585918307">
        <ele>329.38999999999999</ele>
        <time>2013-07-15T13:28:51Z</time>
      </trkpt>
      <trkpt lat="50.680522061884403" lon="6.170366685837507">
        <ele>328.91000000000003</ele>
        <time>2013-07-15T13:29:07Z</time>
      </trkpt>
      <trkpt lat="50.680706715211272" lon="6.170366685837507">
        <ele>327.94999999999999</ele>
        <time>2013-07-15T13:29:22Z</time>
      </trkpt>
      <trkpt lat="50.680823223665357" lon="6.170340282842517">
        <ele>326.99000000000001</ele>
        <time>2013-07-15T13:29:30Z</time>
      </trkpt>
      <trkpt lat="50.680992370471358" lon="6.17025294341147">
        <ele>326.01999999999998</ele>
        <time>2013-07-15T13:29:43Z</time>
      </trkpt>
      <trkpt lat="50.68117962218821" lon="6.170170716941357">
        <ele>324.57999999999998</ele>
        <time>2013-07-15T13:29:59Z</time>
      </trkpt>
      <trkpt lat="50.681400150060654" lon="6.170099386945367">
        <ele>323.13999999999999</ele>
        <time>2013-07-15T13:30:17Z</time>
      </trkpt>
      <trkpt lat="50.681605758145452" lon="6.170057645067573">
        <ele>321.69999999999999</ele>
        <time>2013-07-15T13:30:34Z</time>
      </trkpt>
      <trkpt lat="50.681675411760807" lon="6.1699837166816">
        <ele>321.22000000000003</ele>
        <time>2013-07-15T13:30:41Z</time>
      </trkpt>
      <trkpt lat="50.681618079543114" lon="6.169804343953729">
        <ele>319.77999999999997</ele>
        <time>2013-07-15T13:30:54Z</time>
      </trkpt>
      <trkpt lat="50.681547336280346" lon="6.169659923762083">
        <ele>319.77999999999997</ele>
        <time>2013-07-15T13:31:05Z</time>
      </trkpt>
      <trkpt lat="50.681482795625925" lon="6.169445347040892">
        <ele>319.77999999999997</ele>
        <time>2013-07-15T13:31:20Z</time>
      </trkpt>
      <trkpt lat="50.6814547162503" lon="6.169308386743069">
        <ele>319.77999999999997</ele>
        <time>2013-07-15T13:31:30Z</time>
      </trkpt>
      <trkpt lat="50.681484220549464" lon="6.169189363718033">
        <ele>319.30000000000001</ele>
        <time>2013-07-15T13:31:35Z</time>
      </trkpt>
      <trkpt lat="50.681411633267999" lon="6.169023402035236">
        <ele>319.30000000000001</ele>
        <time>2013-07-15T13:31:45Z</time>
      </trkpt>
      <trkpt lat="50.681410627439618" lon="6.168915443122387">
        <ele>319.30000000000001</ele>
        <time>2013-07-15T13:31:50Z</time>
      </trkpt>
      <trkpt lat="50.681343320757151" lon="6.168643953278661">
        <ele>319.30000000000001</ele>
        <time>2013-07-15T13:32:04Z</time>
      </trkpt>
      <trkpt lat="50.681327562779188" lon="6.168617298826575">
        <ele>319.30000000000001</ele>
        <time>2013-07-15T13:32:06Z</time>
      </trkpt>
      <trkpt lat="50.681296046823263" lon="6.168502634391189">
        <ele>319.30000000000001</ele>
        <time>2013-07-15T13:32:13Z</time>
      </trkpt>
      <trkpt lat="50.681369639933109" lon="6.168191665783525">
        <ele>318.32999999999998</ele>
        <time>2013-07-15T13:32:28Z</time>
      </trkpt>
      <trkpt lat="50.68141121417284" lon="6.167944148182869">
        <ele>316.88999999999999</ele>
        <time>2013-07-15T13:32:43Z</time>
      </trkpt>
      <trkpt lat="50.681506432592869" lon="6.167753376066685">
        <ele>315.44999999999999</ele>
        <time>2013-07-15T13:32:58Z</time>
      </trkpt>
      <trkpt lat="50.681621767580509" lon="6.167554389685392">
        <ele>314.49000000000001</ele>
        <time>2013-07-15T13:33:12Z</time>
      </trkpt>
      <trkpt lat="50.681766020134091" lon="6.167385997250676">
        <ele>313.52999999999997</ele>
        <time>2013-07-15T13:33:27Z</time>
      </trkpt>
      <trkpt lat="50.681854197755456" lon="6.167213246226311">
        <ele>312.08999999999997</ele>
        <time>2013-07-15T13:33:40Z</time>
      </trkpt>
      <trkpt lat="50.681874733418226" lon="6.167155411094427">
        <ele>311.60000000000002</ele>
        <time>2013-07-15T13:33:45Z</time>
      </trkpt>
      <trkpt lat="50.682106660678983" lon="6.16697478108108">
        <ele>309.68000000000001</ele>
        <time>2013-07-15T13:34:05Z</time>
      </trkpt>
      <trkpt lat="50.681856544688344" lon="6.166610671207309">
        <ele>308.72000000000003</ele>
        <time>2013-07-15T13:34:19Z</time>
      </trkpt>
      <trkpt lat="50.681816646829247" lon="6.166549231857061">
        <ele>308.72000000000003</ele>
        <time>2013-07-15T13:34:23Z</time>
      </trkpt>
      <trkpt lat="50.681659486144781" lon="6.166324093937874">
        <ele>308.24000000000001</ele>
        <time>2013-07-15T13:34:40Z</time>
      </trkpt>
      <trkpt lat="50.68161447532475" lon="6.166146984323859">
        <ele>308.24000000000001</ele>
        <time>2013-07-15T13:34:53Z</time>
      </trkpt>
      <trkpt lat="50.681505426764488" lon="6.165978843346238">
        <ele>308.24000000000001</ele>
        <time>2013-07-15T13:35:08Z</time>
      </trkpt>
      <trkpt lat="50.681462846696377" lon="6.165929641574621">
        <ele>308.24000000000001</ele>
        <time>2013-07-15T13:35:12Z</time>
      </trkpt>
      <trkpt lat="50.681407945230603" lon="6.165776588022709">
        <ele>308.24000000000001</ele>
        <time>2013-07-15T13:35:20Z</time>
      </trkpt>
      <trkpt lat="50.681283976882696" lon="6.165539296343923">
        <ele>308.24000000000001</ele>
        <time>2013-07-15T13:35:35Z</time>
      </trkpt>
      <trkpt lat="50.681157493963838" lon="6.165383895859122">
        <ele>308.24000000000001</ele>
        <time>2013-07-15T13:35:48Z</time>
      </trkpt>
      <trkpt lat="50.681137042120099" lon="6.165313990786672">
        <ele>308.24000000000001</ele>
        <time>2013-07-15T13:35:51Z</time>
      </trkpt>
      <trkpt lat="50.681159673258662" lon="6.165074771270156">
        <ele>306.80000000000001</ele>
        <time>2013-07-15T13:36:07Z</time>
      </trkpt>
      <trkpt lat="50.681277438998222" lon="6.16478911601007">
        <ele>304.88</ele>
        <time>2013-07-15T13:36:23Z</time>
      </trkpt>
      <trkpt lat="50.681299567222595" lon="6.164555596187711">
        <ele>302.94999999999999</ele>
        <time>2013-07-15T13:36:39Z</time>
      </trkpt>
      <trkpt lat="50.681362682953477" lon="6.164371697232127">
        <ele>302.47000000000003</ele>
        <time>2013-07-15T13:36:50Z</time>
      </trkpt>
      <trkpt lat="50.681361425668001" lon="6.164095681160688">
        <ele>301.99000000000001</ele>
        <time>2013-07-15T13:37:03Z</time>
      </trkpt>
      <trkpt lat="50.681346924975514" lon="6.16393986158073">
        <ele>301.99000000000001</ele>
        <time>2013-07-15T13:37:12Z</time>
      </trkpt>
      <trkpt lat="50.681306021288037" lon="6.163745066151023">
        <ele>301.99000000000001</ele>
        <time>2013-07-15T13:37:25Z</time>
      </trkpt>
      <trkpt lat="50.681297471746802" lon="6.163618164137006">
        <ele>302.94999999999999</ele>
        <time>2013-07-15T13:37:42Z</time>
      </trkpt>
      <trkpt lat="50.681191105395555" lon="6.163503834977746">
        <ele>302.47000000000003</ele>
        <time>2013-07-15T13:38:52Z</time>
      </trkpt>
      <trkpt lat="50.681029418483377" lon="6.163456728681922">
        <ele>302.94999999999999</ele>
        <time>2013-07-15T13:39:31Z</time>
      </trkpt>
      <trkpt lat="50.680950712412596" lon="6.163353631272912">
        <ele>302.94999999999999</ele>
        <time>2013-07-15T13:39:44Z</time>
      </trkpt>
      <trkpt lat="50.680941827595234" lon="6.163344075903297">
        <ele>302.94999999999999</ele>
        <time>2013-07-15T13:39:45Z</time>
      </trkpt>
      <trkpt lat="50.680851973593235" lon="6.163245420902968">
        <ele>302.94999999999999</ele>
        <time>2013-07-15T13:40:00Z</time>
      </trkpt>
      <trkpt lat="50.680811572819948" lon="6.163256736472249">
        <ele>303.43000000000001</ele>
        <time>2013-07-15T13:40:07Z</time>
      </trkpt>
      <trkpt lat="50.680706296116114" lon="6.163310296833515">
        <ele>303.43000000000001</ele>
        <time>2013-07-15T13:40:19Z</time>
      </trkpt>
      <trkpt lat="50.680576544255018" lon="6.16317861713469">
        <ele>303.43000000000001</ele>
        <time>2013-07-15T13:40:35Z</time>
      </trkpt>
      <trkpt lat="50.680495072156191" lon="6.163151962682605">
        <ele>303.43000000000001</ele>
        <time>2013-07-15T13:40:43Z</time>
      </trkpt>
      <trkpt lat="50.680320477113128" lon="6.163141317665577">
        <ele>303.91000000000003</ele>
        <time>2013-07-15T13:40:58Z</time>
      </trkpt>
      <trkpt lat="50.6802908051759" lon="6.163086416199803">
        <ele>303.91000000000003</ele>
        <time>2013-07-15T13:41:02Z</time>
      </trkpt>
      <trkpt lat="50.680218385532498" lon="6.163078704848886">
        <ele>303.91000000000003</ele>
        <time>2013-07-15T13:41:08Z</time>
      </trkpt>
      <trkpt lat="50.68016909994185" lon="6.16307258605957">
        <ele>304.38999999999999</ele>
        <time>2013-07-15T13:41:13Z</time>
      </trkpt>
      <trkpt lat="50.680073881521821" lon="6.163058001548052">
        <ele>304.38999999999999</ele>
        <time>2013-07-15T13:41:24Z</time>
      </trkpt>
      <trkpt lat="50.680062230676413" lon="6.163044590502977">
        <ele>304.38999999999999</ele>
        <time>2013-07-15T13:41:29Z</time>
      </trkpt>
      <trkpt lat="50.679984865710139" lon="6.162984492257237">
        <ele>304.38999999999999</ele>
        <time>2013-07-15T13:41:39Z</time>
      </trkpt>
      <trkpt lat="50.679945470765233" lon="6.16286831907928">
        <ele>304.38999999999999</ele>
        <time>2013-07-15T13:41:53Z</time>
      </trkpt>
      <trkpt lat="50.679888976737857" lon="6.162767484784126">
        <ele>304.38999999999999</ele>
        <time>2013-07-15T13:42:08Z</time>
      </trkpt>
      <trkpt lat="50.679809348657727" lon="6.162715349346399">
        <ele>304.88</ele>
        <time>2013-07-15T13:42:23Z</time>
      </trkpt>
      <trkpt lat="50.67973910830915" lon="6.162652149796486">
        <ele>304.88</ele>
        <time>2013-07-15T13:42:37Z</time>
      </trkpt>
      <trkpt lat="50.679699629545212" lon="6.162605127319694">
        <ele>304.88</ele>
        <time>2013-07-15T13:42:52Z</time>
      </trkpt>
      <trkpt lat="50.679647410288453" lon="6.162527175620198">
        <ele>304.88</ele>
        <time>2013-07-15T13:43:05Z</time>
      </trkpt>
      <trkpt lat="50.679586725309491" lon="6.162465317174792">
        <ele>304.88</ele>
        <time>2013-07-15T13:43:13Z</time>
      </trkpt>
      <trkpt lat="50.67948991432786" lon="6.1623664945364">
        <ele>305.36000000000001</ele>
        <time>2013-07-15T13:43:26Z</time>
      </trkpt>
      <trkpt lat="50.679386146366596" lon="6.162307821214199">
        <ele>305.36000000000001</ele>
        <time>2013-07-15T13:43:38Z</time>
      </trkpt>
      <trkpt lat="50.679344991222024" lon="6.162279741838574">
        <ele>305.36000000000001</ele>
        <time>2013-07-15T13:43:53Z</time>
      </trkpt>
      <trkpt lat="50.679272236302495" lon="6.16213976405561">
        <ele>305.36000000000001</ele>
        <time>2013-07-15T13:44:07Z</time>
      </trkpt>
      <trkpt lat="50.679165283218026" lon="6.162037085741758">
        <ele>305.36000000000001</ele>
        <time>2013-07-15T13:44:19Z</time>
      </trkpt>
      <trkpt lat="50.67905355244875" lon="6.161900041624904">
        <ele>305.36000000000001</ele>
        <time>2013-07-15T13:44:31Z</time>
      </trkpt>
      <trkpt lat="50.679038045927882" lon="6.161883445456624">
        <ele>305.36000000000001</ele>
        <time>2013-07-15T13:44:33Z</time>
      </trkpt>
      <trkpt lat="50.678892787545919" lon="6.161775067448616">
        <ele>305.83999999999997</ele>
        <time>2013-07-15T13:44:47Z</time>
      </trkpt>
      <trkpt lat="50.678808046504855" lon="6.161666689440608">
        <ele>305.83999999999997</ele>
        <time>2013-07-15T13:45:03Z</time>
      </trkpt>
      <trkpt lat="50.678699500858784" lon="6.161699797958136">
        <ele>305.83999999999997</ele>
        <time>2013-07-15T13:45:14Z</time>
      </trkpt>
      <trkpt lat="50.678602606058121" lon="6.161642801016569">
        <ele>305.83999999999997</ele>
        <time>2013-07-15T13:45:28Z</time>
      </trkpt>
      <trkpt lat="50.678553571924567" lon="6.161559903994203">
        <ele>305.83999999999997</ele>
        <time>2013-07-15T13:45:39Z</time>
      </trkpt>
      <trkpt lat="50.678496574983001" lon="6.161735840141773">
        <ele>305.83999999999997</ele>
        <time>2013-07-15T13:45:51Z</time>
      </trkpt>
      <trkpt lat="50.678362799808383" lon="6.161452028900385">
        <ele>305.83999999999997</ele>
        <time>2013-07-15T13:46:09Z</time>
      </trkpt>
      <trkpt lat="50.678342431783676" lon="6.161262262612581">
        <ele>306.31999999999999</ele>
        <time>2013-07-15T13:46:24Z</time>
      </trkpt>
      <trkpt lat="50.678392387926579" lon="6.161120943725109">
        <ele>306.31999999999999</ele>
        <time>2013-07-15T13:46:39Z</time>
      </trkpt>
      <trkpt lat="50.678410492837429" lon="6.160970153287053">
        <ele>306.80000000000001</ele>
        <time>2013-07-15T13:46:53Z</time>
      </trkpt>
      <trkpt lat="50.678418455645442" lon="6.160829421132803">
        <ele>306.80000000000001</ele>
        <time>2013-07-15T13:47:04Z</time>
      </trkpt>
      <trkpt lat="50.678427256643772" lon="6.160660022869706">
        <ele>307.75999999999999</ele>
        <time>2013-07-15T13:47:15Z</time>
      </trkpt>
      <trkpt lat="50.678404038771987" lon="6.160475201904774">
        <ele>307.75999999999999</ele>
        <time>2013-07-15T13:47:28Z</time>
      </trkpt>
      <trkpt lat="50.678440248593688" lon="6.160285016521812">
        <ele>307.75999999999999</ele>
        <time>2013-07-15T13:47:44Z</time>
      </trkpt>
      <trkpt lat="50.678445613011718" lon="6.160101620480418">
        <ele>307.27999999999997</ele>
        <time>2013-07-15T13:47:56Z</time>
      </trkpt>
      <trkpt lat="50.678358608856797" lon="6.159960133954883">
        <ele>307.27999999999997</ele>
        <time>2013-07-15T13:48:08Z</time>
      </trkpt>
      <trkpt lat="50.678231790661812" lon="6.159777659922838">
        <ele>307.27999999999997</ele>
        <time>2013-07-15T13:48:24Z</time>
      </trkpt>
      <trkpt lat="50.678125256672502" lon="6.159569788724184">
        <ele>307.75999999999999</ele>
        <time>2013-07-15T13:48:38Z</time>
      </trkpt>
      <trkpt lat="50.678013106808066" lon="6.159399971365929">
        <ele>307.27999999999997</ele>
        <time>2013-07-15T13:48:52Z</time>
      </trkpt>
      <trkpt lat="50.677899699658155" lon="6.159307602792978">
        <ele>307.27999999999997</ele>
        <time>2013-07-15T13:49:05Z</time>
      </trkpt>
      <trkpt lat="50.677859466522932" lon="6.159191597253084">
        <ele>307.75999999999999</ele>
        <time>2013-07-15T13:49:19Z</time>
      </trkpt>
      <trkpt lat="50.677825603634119" lon="6.15910978987813">
        <ele>307.27999999999997</ele>
        <time>2013-07-15T13:49:30Z</time>
      </trkpt>
      <trkpt lat="50.677795428782701" lon="6.158951204270124">
        <ele>307.27999999999997</ele>
        <time>2013-07-15T13:49:42Z</time>
      </trkpt>
      <trkpt lat="50.677779586985707" lon="6.158742494881153">
        <ele>307.75999999999999</ele>
        <time>2013-07-15T13:49:55Z</time>
      </trkpt>
      <trkpt lat="50.677661569789052" lon="6.158560356125236">
        <ele>307.75999999999999</ele>
        <time>2013-07-15T13:50:08Z</time>
      </trkpt>
      <trkpt lat="50.677566099911928" lon="6.158467819914222">
        <ele>308.24000000000001</ele>
        <time>2013-07-15T13:50:18Z</time>
      </trkpt>
      <trkpt lat="50.677523352205753" lon="6.15839883685112">
        <ele>308.24000000000001</ele>
        <time>2013-07-15T13:50:24Z</time>
      </trkpt>
      <trkpt lat="50.677402401342988" lon="6.158333290368319">
        <ele>308.24000000000001</ele>
        <time>2013-07-15T13:50:37Z</time>
      </trkpt>
      <trkpt lat="50.677394773811102" lon="6.158330272883177">
        <ele>308.24000000000001</ele>
        <time>2013-07-15T13:50:38Z</time>
      </trkpt>
      <trkpt lat="50.677305087447166" lon="6.158296577632427">
        <ele>308.24000000000001</ele>
        <time>2013-07-15T13:50:50Z</time>
      </trkpt>
      <trkpt lat="50.677150608971715" lon="6.158352568745613">
        <ele>308.24000000000001</ele>
        <time>2013-07-15T13:51:04Z</time>
      </trkpt>
      <trkpt lat="50.677069807425141" lon="6.158327339217067">
        <ele>308.24000000000001</ele>
        <time>2013-07-15T13:51:13Z</time>
      </trkpt>
      <trkpt lat="50.676935696974397" lon="6.158347120508552">
        <ele>309.19999999999999</ele>
        <time>2013-07-15T13:51:28Z</time>
      </trkpt>
      <trkpt lat="50.676924046128988" lon="6.158356172963977">
        <ele>309.19999999999999</ele>
        <time>2013-07-15T13:51:30Z</time>
      </trkpt>
      <trkpt lat="50.676861517131329" lon="6.158342510461807">
        <ele>309.19999999999999</ele>
        <time>2013-07-15T13:51:36Z</time>
      </trkpt>
      <trkpt lat="50.676719024777412" lon="6.158263217657805">
        <ele>309.19999999999999</ele>
        <time>2013-07-15T13:51:51Z</time>
      </trkpt>
      <trkpt lat="50.676614670082927" lon="6.158218123018742">
        <ele>309.19999999999999</ele>
        <time>2013-07-15T13:52:04Z</time>
      </trkpt>
      <trkpt lat="50.676540154963732" lon="6.158222900703549">
        <ele>309.19999999999999</ele>
        <time>2013-07-15T13:52:16Z</time>
      </trkpt>
      <trkpt lat="50.676374109461904" lon="6.158059285953641">
        <ele>309.68000000000001</ele>
        <time>2013-07-15T13:53:12Z</time>
      </trkpt>
      <trkpt lat="50.676264306530356" lon="6.158020729199052">
        <ele>309.68000000000001</ele>
        <time>2013-07-15T13:53:24Z</time>
      </trkpt>
      <trkpt lat="50.676180403679609" lon="6.157909501343966">
        <ele>309.68000000000001</ele>
        <time>2013-07-15T13:53:37Z</time>
      </trkpt>
      <trkpt lat="50.676111085340381" lon="6.15784571506083">
        <ele>309.68000000000001</ele>
        <time>2013-07-15T13:53:49Z</time>
      </trkpt>
      <trkpt lat="50.676091890782118" lon="6.157818725332618">
        <ele>310.16000000000003</ele>
        <time>2013-07-15T13:53:54Z</time>
      </trkpt>
      <trkpt lat="50.675790729001164" lon="6.157156387344003">
        <ele>310.63999999999999</ele>
        <time>2013-07-15T13:54:53Z</time>
      </trkpt>
      <trkpt lat="50.675781928002834" lon="6.157143479213119">
        <ele>310.63999999999999</ele>
        <time>2013-07-15T13:54:54Z</time>
      </trkpt>
      <trkpt lat="50.67567908205092" lon="6.156830582767725">
        <ele>311.60000000000002</ele>
        <time>2013-07-15T13:55:22Z</time>
      </trkpt>
      <trkpt lat="50.675436677411199" lon="6.156892776489258">
        <ele>311.60000000000002</ele>
        <time>2013-07-15T13:55:35Z</time>
      </trkpt>
      <trkpt lat="50.67535319365561" lon="6.156923538073897">
        <ele>311.60000000000002</ele>
        <time>2013-07-15T13:55:36Z</time>
      </trkpt>
      <trkpt lat="50.675099892541766" lon="6.156882718205452">
        <ele>312.08999999999997</ele>
        <time>2013-07-15T13:56:06Z</time>
      </trkpt>
      <trkpt lat="50.674964943900704" lon="6.156881880015135">
        <ele>312.56999999999999</ele>
        <time>2013-07-15T13:56:18Z</time>
      </trkpt>
      <trkpt lat="50.674920603632927" lon="6.156920269131661">
        <ele>312.56999999999999</ele>
        <time>2013-07-15T13:56:23Z</time>
      </trkpt>
      <trkpt lat="50.674821780994534" lon="6.156921023502946">
        <ele>312.56999999999999</ele>
        <time>2013-07-15T13:56:37Z</time>
      </trkpt>
      <trkpt lat="50.674713905900717" lon="6.15690166130662">
        <ele>312.56999999999999</ele>
        <time>2013-07-15T13:56:46Z</time>
      </trkpt>
      <trkpt lat="50.674615167081356" lon="6.156922532245517">
        <ele>313.05000000000001</ele>
        <time>2013-07-15T13:56:59Z</time>
      </trkpt>
      <trkpt lat="50.674401428550482" lon="6.156941391527653">
        <ele>313.52999999999997</ele>
        <time>2013-07-15T13:57:30Z</time>
      </trkpt>
      <trkpt lat="50.674253990873694" lon="6.156922364607453">
        <ele>313.52999999999997</ele>
        <time>2013-07-15T13:57:45Z</time>
      </trkpt>
      <trkpt lat="50.674108481034636" lon="6.156920520588756">
        <ele>313.52999999999997</ele>
        <time>2013-07-15T13:57:57Z</time>
      </trkpt>
      <trkpt lat="50.673999097198248" lon="6.156976008787751">
        <ele>314.00999999999999</ele>
        <time>2013-07-15T13:58:10Z</time>
      </trkpt>
      <trkpt lat="50.673923240974545" lon="6.156993946060538">
        <ele>314.00999999999999</ele>
        <time>2013-07-15T13:58:23Z</time>
      </trkpt>
      <trkpt lat="50.673845959827304" lon="6.157107185572386">
        <ele>314.00999999999999</ele>
        <time>2013-07-15T13:58:45Z</time>
      </trkpt>
      <trkpt lat="50.673783933743834" lon="6.157117830589414">
        <ele>314.00999999999999</ele>
        <time>2013-07-15T13:59:01Z</time>
      </trkpt>
      <trkpt lat="50.673745879903436" lon="6.157107017934322">
        <ele>314.00999999999999</ele>
        <time>2013-07-15T13:59:15Z</time>
      </trkpt>
      <trkpt lat="50.673719728365541" lon="6.157101821154356">
        <ele>314.00999999999999</ele>
        <time>2013-07-15T13:59:30Z</time>
      </trkpt>
      <trkpt lat="50.67341479472816" lon="6.157174659892917">
        <ele>316.41000000000003</ele>
        <time>2013-07-15T14:04:40Z</time>
      </trkpt>
      <trkpt lat="50.673306751996279" lon="6.157089164480567">
        <ele>317.37</ele>
        <time>2013-07-15T14:06:48Z</time>
      </trkpt>
      <trkpt lat="50.673368694260716" lon="6.156757911667228">
        <ele>318.32999999999998</ele>
        <time>2013-07-15T14:16:26Z</time>
      </trkpt>
      <trkpt lat="50.673511438071728" lon="6.156433196738362">
        <ele>318.32999999999998</ele>
        <time>2013-07-15T14:16:38Z</time>
      </trkpt>
      <trkpt lat="50.6738565210253" lon="6.156157432124019">
        <ele>318.32999999999998</ele>
        <time>2013-07-15T14:16:51Z</time>
      </trkpt>
      <trkpt lat="50.674210237339139" lon="6.156172854825854">
        <ele>323.13999999999999</ele>
        <time>2013-07-15T14:18:59Z</time>
      </trkpt>
      <trkpt lat="50.674240915104747" lon="6.156152989715338">
        <ele>323.62</ele>
        <time>2013-07-15T14:19:04Z</time>
      </trkpt>
      <trkpt lat="50.674369661137462" lon="6.156163047999144">
        <ele>324.57999999999998</ele>
        <time>2013-07-15T14:19:18Z</time>
      </trkpt>
      <trkpt lat="50.674454402178526" lon="6.156184338033199">
        <ele>324.57999999999998</ele>
        <time>2013-07-15T14:19:26Z</time>
      </trkpt>
      <trkpt lat="50.674585830420256" lon="6.156221637502313">
        <ele>325.06</ele>
        <time>2013-07-15T14:19:39Z</time>
      </trkpt>
      <trkpt lat="50.674618603661656" lon="6.156232282519341">
        <ele>325.06</ele>
        <time>2013-07-15T14:19:43Z</time>
      </trkpt>
      <trkpt lat="50.674719605594873" lon="6.156256422400475">
        <ele>325.06</ele>
        <time>2013-07-15T14:19:56Z</time>
      </trkpt>
      <trkpt lat="50.674732932820916" lon="6.15625717677176">
        <ele>325.06</ele>
        <time>2013-07-15T14:20:06Z</time>
      </trkpt>
      <trkpt lat="50.674760509282351" lon="6.156292129307985">
        <ele>325.06</ele>
        <time>2013-07-15T14:20:22Z</time>
      </trkpt>
      <trkpt lat="50.674800490960479" lon="6.156288860365748">
        <ele>325.06</ele>
        <time>2013-07-15T14:20:34Z</time>
      </trkpt>
      <trkpt lat="50.674826810136437" lon="6.156304450705648">
        <ele>325.06</ele>
        <time>2013-07-15T14:20:37Z</time>
      </trkpt>
      <trkpt lat="50.674962932243943" lon="6.156346276402473">
        <ele>325.06</ele>
        <time>2013-07-15T14:20:51Z</time>
      </trkpt>
      <trkpt lat="50.675281025469303" lon="6.15544212050736">
        <ele>328.91000000000003</ele>
        <time>2013-07-15T14:21:52Z</time>
      </trkpt>
      <trkpt lat="50.675406670197845" lon="6.155070131644607">
        <ele>329.38999999999999</ele>
        <time>2013-07-15T14:22:09Z</time>
      </trkpt>
      <trkpt lat="50.675501385703683" lon="6.154910121113062">
        <ele>330.35000000000002</ele>
        <time>2013-07-15T14:22:22Z</time>
      </trkpt>
      <trkpt lat="50.675596771761775" lon="6.154654892161489">
        <ele>330.35000000000002</ele>
        <time>2013-07-15T14:22:39Z</time>
      </trkpt>
      <trkpt lat="50.675624180585146" lon="6.154573168605566">
        <ele>330.82999999999998</ele>
        <time>2013-07-15T14:22:43Z</time>
      </trkpt>
      <trkpt lat="50.675689391791821" lon="6.154338140040636">
        <ele>330.82999999999998</ele>
        <time>2013-07-15T14:22:56Z</time>
      </trkpt>
      <trkpt lat="50.675786035135388" lon="6.154073271900415">
        <ele>330.82999999999998</ele>
        <time>2013-07-15T14:23:09Z</time>
      </trkpt>
      <trkpt lat="50.675815120339394" lon="6.154001438990235">
        <ele>329.38999999999999</ele>
        <time>2013-07-15T14:23:15Z</time>
      </trkpt>
      <trkpt lat="50.675902292132378" lon="6.153730703517795">
        <ele>329.87</ele>
        <time>2013-07-15T14:23:28Z</time>
      </trkpt>
      <trkpt lat="50.67602701485157" lon="6.153473714366555">
        <ele>329.38999999999999</ele>
        <time>2013-07-15T14:23:42Z</time>
      </trkpt>
      <trkpt lat="50.676124580204487" lon="6.15322426892817">
        <ele>328.91000000000003</ele>
        <time>2013-07-15T14:23:59Z</time>
      </trkpt>
      <trkpt lat="50.676215775310993" lon="6.152959316968918">
        <ele>327.94999999999999</ele>
        <time>2013-07-15T14:24:13Z</time>
      </trkpt>
      <trkpt lat="50.676225582137704" lon="6.152938362210989">
        <ele>327.94999999999999</ele>
        <time>2013-07-15T14:24:14Z</time>
      </trkpt>
      <trkpt lat="50.676338905468583" lon="6.152645917609334">
        <ele>326.5</ele>
        <time>2013-07-15T14:24:31Z</time>
      </trkpt>
      <trkpt lat="50.676461365073919" lon="6.15246394649148">
        <ele>326.99000000000001</ele>
        <time>2013-07-15T14:24:47Z</time>
      </trkpt>
      <trkpt lat="50.676509141921997" lon="6.152337295934558">
        <ele>326.99000000000001</ele>
        <time>2013-07-15T14:24:57Z</time>
      </trkpt>
      <trkpt lat="50.676527246832848" lon="6.152276024222374">
        <ele>326.99000000000001</ele>
        <time>2013-07-15T14:25:01Z</time>
      </trkpt>
      <trkpt lat="50.676581393927336" lon="6.152146691456437">
        <ele>325.54000000000002</ele>
        <time>2013-07-15T14:25:08Z</time>
      </trkpt>
      <trkpt lat="50.676662111654878" lon="6.151864640414715">
        <ele>325.06</ele>
        <time>2013-07-15T14:25:25Z</time>
      </trkpt>
      <trkpt lat="50.67673210054636" lon="6.151620307937264">
        <ele>323.62</ele>
        <time>2013-07-15T14:25:39Z</time>
      </trkpt>
      <trkpt lat="50.676770573481917" lon="6.151520563289523">
        <ele>323.13999999999999</ele>
        <time>2013-07-15T14:25:45Z</time>
      </trkpt>
      <trkpt lat="50.67684642970562" lon="6.151339178904891">
        <ele>322.66000000000003</ele>
        <time>2013-07-15T14:25:57Z</time>
      </trkpt>
      <trkpt lat="50.676905019208789" lon="6.151132816448808">
        <ele>321.69999999999999</ele>
        <time>2013-07-15T14:26:09Z</time>
      </trkpt>
      <trkpt lat="50.676957238465548" lon="6.150850178673863">
        <ele>321.69999999999999</ele>
        <time>2013-07-15T14:26:23Z</time>
      </trkpt>
      <trkpt lat="50.676961177960038" lon="6.150831822305918">
        <ele>321.69999999999999</ele>
        <time>2013-07-15T14:26:24Z</time>
      </trkpt>
      <trkpt lat="50.676979618147016" lon="6.150750853121281">
        <ele>321.22000000000003</ele>
        <time>2013-07-15T14:26:29Z</time>
      </trkpt>
      <trkpt lat="50.67708388902247" lon="6.150531331077218">
        <ele>320.25999999999999</ele>
        <time>2013-07-15T14:26:43Z</time>
      </trkpt>
      <trkpt lat="50.677109118551016" lon="6.150474837049842">
        <ele>320.25999999999999</ele>
        <time>2013-07-15T14:26:48Z</time>
      </trkpt>
      <trkpt lat="50.677163098007441" lon="6.150281801819801">
        <ele>320.25999999999999</ele>
        <time>2013-07-15T14:27:00Z</time>
      </trkpt>
      <trkpt lat="50.677227973937988" lon="6.15013662725687">
        <ele>320.25999999999999</ele>
        <time>2013-07-15T14:27:11Z</time>
      </trkpt>
      <trkpt lat="50.677295364439487" lon="6.15000075660646">
        <ele>320.25999999999999</ele>
        <time>2013-07-15T14:27:22Z</time>
      </trkpt>
      <trkpt lat="50.677380273118615" lon="6.149757178500295">
        <ele>320.25999999999999</ele>
        <time>2013-07-15T14:27:36Z</time>
      </trkpt>
      <trkpt lat="50.677470210939646" lon="6.149518880993128">
        <ele>320.25999999999999</ele>
        <time>2013-07-15T14:27:51Z</time>
      </trkpt>
      <trkpt lat="50.677508180961013" lon="6.149398684501648">
        <ele>320.74000000000001</ele>
        <time>2013-07-15T14:27:58Z</time>
      </trkpt>
      <trkpt lat="50.677599627524614" lon="6.149184862151742">
        <ele>320.74000000000001</ele>
        <time>2013-07-15T14:28:12Z</time>
      </trkpt>
      <trkpt lat="50.677721751853824" lon="6.148940529674292">
        <ele>320.74000000000001</ele>
        <time>2013-07-15T14:28:24Z</time>
      </trkpt>
      <trkpt lat="50.67782074213028" lon="6.148764258250594">
        <ele>320.74000000000001</ele>
        <time>2013-07-15T14:28:36Z</time>
      </trkpt>
      <trkpt lat="50.677840858697891" lon="6.148732323199511">
        <ele>320.74000000000001</ele>
        <time>2013-07-15T14:28:39Z</time>
      </trkpt>
      <trkpt lat="50.678013525903225" lon="6.148584550246596">
        <ele>320.74000000000001</ele>
        <time>2013-07-15T14:28:55Z</time>
      </trkpt>
      <trkpt lat="50.678158532828093" lon="6.148494528606534">
        <ele>322.18000000000001</ele>
        <time>2013-07-15T14:29:09Z</time>
      </trkpt>
      <trkpt lat="50.67831963300705" lon="6.148463431745768">
        <ele>322.18000000000001</ele>
        <time>2013-07-15T14:29:23Z</time>
      </trkpt>
      <trkpt lat="50.6785121653229" lon="6.148379277437925">
        <ele>322.18000000000001</ele>
        <time>2013-07-15T14:29:38Z</time>
      </trkpt>
      <trkpt lat="50.678694555535913" lon="6.148399561643601">
        <ele>322.18000000000001</ele>
        <time>2013-07-15T14:29:53Z</time>
      </trkpt>
      <trkpt lat="50.678921286016703" lon="6.148362848907709">
        <ele>320.74000000000001</ele>
        <time>2013-07-15T14:30:11Z</time>
      </trkpt>
      <trkpt lat="50.679115494713187" lon="6.148310462012887">
        <ele>320.25999999999999</ele>
        <time>2013-07-15T14:30:26Z</time>
      </trkpt>
      <trkpt lat="50.679303836077452" lon="6.148236114531755">
        <ele>319.77999999999997</ele>
        <time>2013-07-15T14:30:41Z</time>
      </trkpt>
      <trkpt lat="50.67931498400867" lon="6.148233013227582">
        <ele>319.77999999999997</ele>
        <time>2013-07-15T14:30:42Z</time>
      </trkpt>
      <trkpt lat="50.679477760568261" lon="6.148151876404882">
        <ele>319.30000000000001</ele>
        <time>2013-07-15T14:30:56Z</time>
      </trkpt>
      <trkpt lat="50.679625617340207" lon="6.148005025461316">
        <ele>318.32999999999998</ele>
        <time>2013-07-15T14:31:11Z</time>
      </trkpt>
      <trkpt lat="50.679776491597295" lon="6.147856581956148">
        <ele>318.32999999999998</ele>
        <time>2013-07-15T14:31:25Z</time>
      </trkpt>
      <trkpt lat="50.679930550977588" lon="6.147682489827275">
        <ele>318.32999999999998</ele>
        <time>2013-07-15T14:31:41Z</time>
      </trkpt>
      <trkpt lat="50.680011352524161" lon="6.147419130429626">
        <ele>317.85000000000002</ele>
        <time>2013-07-15T14:31:56Z</time>
      </trkpt>
      <trkpt lat="50.680087627843022" lon="6.147125931456685">
        <ele>317.37</ele>
        <time>2013-07-15T14:32:12Z</time>
      </trkpt>
      <trkpt lat="50.680123502388597" lon="6.147012859582901">
        <ele>316.88999999999999</ele>
        <time>2013-07-15T14:32:19Z</time>
      </trkpt>
      <trkpt lat="50.680171865969896" lon="6.146921161562204">
        <ele>316.88999999999999</ele>
        <time>2013-07-15T14:32:24Z</time>
      </trkpt>
      <trkpt lat="50.680285021662712" lon="6.146772215142846">
        <ele>315.44999999999999</ele>
        <time>2013-07-15T14:32:40Z</time>
      </trkpt>
      <trkpt lat="50.680446038022637" lon="6.146577838808298">
        <ele>314.49000000000001</ele>
        <time>2013-07-15T14:32:57Z</time>
      </trkpt>
      <trkpt lat="50.680560534819961" lon="6.146500390022993">
        <ele>313.52999999999997</ele>
        <time>2013-07-15T14:33:10Z</time>
      </trkpt>
      <trkpt lat="50.680728172883391" lon="6.146360579878092">
        <ele>312.56999999999999</ele>
        <time>2013-07-15T14:33:26Z</time>
      </trkpt>
      <trkpt lat="50.68081702105701" lon="6.146255973726511">
        <ele>312.56999999999999</ele>
        <time>2013-07-15T14:33:32Z</time>
      </trkpt>
      <trkpt lat="50.680997986346483" lon="6.14614843390882">
        <ele>312.08999999999997</ele>
        <time>2013-07-15T14:33:46Z</time>
      </trkpt>
      <trkpt lat="50.681104268878698" lon="6.146049108356237">
        <ele>311.12</ele>
        <time>2013-07-15T14:33:56Z</time>
      </trkpt>
      <trkpt lat="50.681249443441629" lon="6.145887924358249">
        <ele>310.16000000000003</ele>
        <time>2013-07-15T14:34:13Z</time>
      </trkpt>
      <trkpt lat="50.681368047371507" lon="6.145666306838393">
        <ele>308.24000000000001</ele>
        <time>2013-07-15T14:34:28Z</time>
      </trkpt>
      <trkpt lat="50.681412303820252" lon="6.145498249679804">
        <ele>308.24000000000001</ele>
        <time>2013-07-15T14:34:38Z</time>
      </trkpt>
      <trkpt lat="50.68141951225698" lon="6.1454345472157">
        <ele>307.75999999999999</ele>
        <time>2013-07-15T14:34:42Z</time>
      </trkpt>
      <trkpt lat="50.681435856968164" lon="6.145110251381993">
        <ele>307.75999999999999</ele>
        <time>2013-07-15T14:34:59Z</time>
      </trkpt>
      <trkpt lat="50.681551778689027" lon="6.144695766270161">
        <ele>307.75999999999999</ele>
        <time>2013-07-15T14:35:19Z</time>
      </trkpt>
      <trkpt lat="50.681561501696706" lon="6.144642122089863">
        <ele>309.19999999999999</ele>
        <time>2013-07-15T14:35:22Z</time>
      </trkpt>
      <trkpt lat="50.681561669334769" lon="6.144510610029101">
        <ele>309.19999999999999</ele>
        <time>2013-07-15T14:35:28Z</time>
      </trkpt>
      <trkpt lat="50.681563848629594" lon="6.144464761018753">
        <ele>309.19999999999999</ele>
        <time>2013-07-15T14:35:30Z</time>
      </trkpt>
      <trkpt lat="50.681581869721413" lon="6.144358646124601">
        <ele>309.19999999999999</ele>
        <time>2013-07-15T14:35:35Z</time>
      </trkpt>
      <trkpt lat="50.681607769802213" lon="6.144281197339296">
        <ele>309.19999999999999</ele>
        <time>2013-07-15T14:35:40Z</time>
      </trkpt>
      <trkpt lat="50.681822262704372" lon="6.144256135448813">
        <ele>310.16000000000003</ele>
        <time>2013-07-15T14:35:58Z</time>
      </trkpt>
      <trkpt lat="50.682037845253944" lon="6.144358813762665">
        <ele>310.16000000000003</ele>
        <time>2013-07-15T14:36:15Z</time>
      </trkpt>
      <trkpt lat="50.682277148589492" lon="6.144415810704231">
        <ele>308.24000000000001</ele>
        <time>2013-07-15T14:36:33Z</time>
      </trkpt>
      <trkpt lat="50.682507902383804" lon="6.144494935870171">
        <ele>308.24000000000001</ele>
        <time>2013-07-15T14:36:52Z</time>
      </trkpt>
      <trkpt lat="50.682555260136724" lon="6.14451882429421">
        <ele>308.24000000000001</ele>
        <time>2013-07-15T14:36:56Z</time>
      </trkpt>
      <trkpt lat="50.68278132006526" lon="6.144589064642787">
        <ele>307.75999999999999</ele>
        <time>2013-07-15T14:37:15Z</time>
      </trkpt>
      <trkpt lat="50.682963458821177" lon="6.144635835662484">
        <ele>307.75999999999999</ele>
        <time>2013-07-15T14:37:30Z</time>
      </trkpt>
      <trkpt lat="50.683174934238195" lon="6.144703980535269">
        <ele>307.75999999999999</ele>
        <time>2013-07-15T14:37:48Z</time>
      </trkpt>
      <trkpt lat="50.683381967246532" lon="6.144747566431761">
        <ele>307.27999999999997</ele>
        <time>2013-07-15T14:38:05Z</time>
      </trkpt>
      <trkpt lat="50.683414069935679" lon="6.144753601402044">
        <ele>307.27999999999997</ele>
        <time>2013-07-15T14:38:09Z</time>
      </trkpt>
      <trkpt lat="50.683552203699946" lon="6.144742369651794">
        <ele>307.27999999999997</ele>
        <time>2013-07-15T14:38:24Z</time>
      </trkpt>
      <trkpt lat="50.683540971949697" lon="6.144695430994034">
        <ele>306.80000000000001</ele>
        <time>2013-07-15T14:38:43Z</time>
      </trkpt>
      <trkpt lat="50.683449525386095" lon="6.144754104316235">
        <ele>306.80000000000001</ele>
        <time>2013-07-15T14:38:56Z</time>
      </trkpt>
      <trkpt lat="50.683313403278589" lon="6.144753014668822">
        <ele>306.31999999999999</ele>
        <time>2013-07-15T14:39:13Z</time>
      </trkpt>
      <trkpt lat="50.683125397190452" lon="6.144668273627758">
        <ele>306.31999999999999</ele>
        <time>2013-07-15T14:39:31Z</time>
      </trkpt>
      <trkpt lat="50.682969829067588" lon="6.144580263644457">
        <ele>306.31999999999999</ele>
        <time>2013-07-15T14:39:46Z</time>
      </trkpt>
      <trkpt lat="50.682962201535702" lon="6.144548580050468">
        <ele>306.31999999999999</ele>
        <time>2013-07-15T14:39:48Z</time>
      </trkpt>
      <trkpt lat="50.683147190138698" lon="6.144329141825438">
        <ele>306.31999999999999</ele>
        <time>2013-07-15T14:40:04Z</time>
      </trkpt>
      <trkpt lat="50.683607188984752" lon="6.144052287563682">
        <ele>306.31999999999999</ele>
        <time>2013-07-15T14:40:18Z</time>
      </trkpt>
      <trkpt lat="50.683891754597425" lon="6.143906023353338">
        <ele>307.75999999999999</ele>
        <time>2013-07-15T14:40:27Z</time>
      </trkpt>
      <trkpt lat="50.68432392552495" lon="6.143665295094252">
        <ele>307.75999999999999</ele>
        <time>2013-07-15T14:40:41Z</time>
      </trkpt>
      <trkpt lat="50.684784092009068" lon="6.143402270972729">
        <ele>307.27999999999997</ele>
        <time>2013-07-15T14:40:56Z</time>
      </trkpt>
      <trkpt lat="50.684886854141951" lon="6.143366731703281">
        <ele>307.27999999999997</ele>
        <time>2013-07-15T14:41:04Z</time>
      </trkpt>
      <trkpt lat="50.684898840263486" lon="6.143364049494267">
        <ele>307.27999999999997</ele>
        <time>2013-07-15T14:41:05Z</time>
      </trkpt>
      <trkpt lat="50.684911664575338" lon="6.143361032009125">
        <ele>307.27999999999997</ele>
        <time>2013-07-15T14:41:06Z</time>
      </trkpt>
      <trkpt lat="50.685106962919235" lon="6.143249468877912">
        <ele>307.27999999999997</ele>
        <time>2013-07-15T14:41:23Z</time>
      </trkpt>
      <trkpt lat="50.685318186879158" lon="6.14313798956573">
        <ele>305.83999999999997</ele>
        <time>2013-07-15T14:41:41Z</time>
      </trkpt>
      <trkpt lat="50.685534439980984" lon="6.14303732290864">
        <ele>305.36000000000001</ele>
        <time>2013-07-15T14:41:58Z</time>
      </trkpt>
      <trkpt lat="50.685717668384314" lon="6.142908157780767">
        <ele>304.88</ele>
        <time>2013-07-15T14:42:14Z</time>
      </trkpt>
      <trkpt lat="50.685968203470111" lon="6.142786452546716">
        <ele>303.91000000000003</ele>
        <time>2013-07-15T14:42:35Z</time>
      </trkpt>
      <trkpt lat="50.686213541775942" lon="6.142656365409493">
        <ele>302.94999999999999</ele>
        <time>2013-07-15T14:42:55Z</time>
      </trkpt>
      <trkpt lat="50.686445385217667" lon="6.142554106190801">
        <ele>301.99000000000001</ele>
        <time>2013-07-15T14:43:14Z</time>
      </trkpt>
      <trkpt lat="50.686679407954216" lon="6.142434580251575">
        <ele>301.02999999999997</ele>
        <time>2013-07-15T14:43:34Z</time>
      </trkpt>
      <trkpt lat="50.686945114284754" lon="6.142398789525032">
        <ele>300.55000000000001</ele>
        <time>2013-07-15T14:43:54Z</time>
      </trkpt>
      <trkpt lat="50.687157930806279" lon="6.142516555264592">
        <ele>299.58999999999997</ele>
        <time>2013-07-15T14:44:11Z</time>
      </trkpt>
      <trkpt lat="50.687421793118119" lon="6.142716966569424">
        <ele>299.11000000000001</ele>
        <time>2013-07-15T14:44:33Z</time>
      </trkpt>
      <trkpt lat="50.687646511942148" lon="6.142900111153722">
        <ele>298.63</ele>
        <time>2013-07-15T14:44:52Z</time>
      </trkpt>
      <trkpt lat="50.687882462516427" lon="6.143059283494949">
        <ele>297.67000000000002</ele>
        <time>2013-07-15T14:45:12Z</time>
      </trkpt>
      <trkpt lat="50.688073821365833" lon="6.143215773627162">
        <ele>296.69999999999999</ele>
        <time>2013-07-15T14:45:30Z</time>
      </trkpt>
      <trkpt lat="50.688250847160816" lon="6.143348375335336">
        <ele>295.74000000000001</ele>
        <time>2013-07-15T14:45:46Z</time>
      </trkpt>
      <trkpt lat="50.68843575194478" lon="6.143479133024812">
        <ele>294.30000000000001</ele>
        <time>2013-07-15T14:46:03Z</time>
      </trkpt>
      <trkpt lat="50.688554020598531" lon="6.143563622608781">
        <ele>293.81999999999999</ele>
        <time>2013-07-15T14:46:13Z</time>
      </trkpt>
      <trkpt lat="50.688624093309045" lon="6.14362221211195">
        <ele>293.33999999999997</ele>
        <time>2013-07-15T14:46:19Z</time>
      </trkpt>
      <trkpt lat="50.688636833801866" lon="6.143629336729646">
        <ele>292.86000000000001</ele>
        <time>2013-07-15T14:46:20Z</time>
      </trkpt>
      <trkpt lat="50.68872107192874" lon="6.143689686432481">
        <ele>291.89999999999998</ele>
        <time>2013-07-15T14:46:31Z</time>
      </trkpt>
      <trkpt lat="50.688808411359787" lon="6.143670491874218">
        <ele>291.42000000000002</ele>
        <time>2013-07-15T14:46:44Z</time>
      </trkpt>
      <trkpt lat="50.688815200701356" lon="6.143684908747673">
        <ele>290.94</ele>
        <time>2013-07-15T14:47:00Z</time>
      </trkpt>
      <trkpt lat="50.68885006941855" lon="6.143647944554687">
        <ele>290.45999999999998</ele>
        <time>2013-07-15T14:47:09Z</time>
      </trkpt>
      <trkpt lat="50.688907066360116" lon="6.143607879057527">
        <ele>289.49000000000001</ele>
        <time>2013-07-15T14:47:14Z</time>
      </trkpt>
      <trkpt lat="50.688916202634573" lon="6.14359094761312">
        <ele>289.49000000000001</ele>
        <time>2013-07-15T14:47:15Z</time>
      </trkpt>
      <trkpt lat="50.688927518203855" lon="6.143570495769382">
        <ele>289.49000000000001</ele>
        <time>2013-07-15T14:47:16Z</time>
      </trkpt>
      <trkpt lat="50.689019719138741" lon="6.143440073356032">
        <ele>288.05000000000001</ele>
        <time>2013-07-15T14:47:30Z</time>
      </trkpt>
      <trkpt lat="50.689122229814529" lon="6.143307806923986">
        <ele>286.13</ele>
        <time>2013-07-15T14:47:42Z</time>
      </trkpt>
      <trkpt lat="50.689131366088986" lon="6.14329339005053">
        <ele>286.13</ele>
        <time>2013-07-15T14:47:43Z</time>
      </trkpt>
      <trkpt lat="50.689245192334056" lon="6.14319515414536">
        <ele>283.73000000000002</ele>
        <time>2013-07-15T14:47:57Z</time>
      </trkpt>
      <trkpt lat="50.689347451552749" lon="6.143073197454214">
        <ele>281.80000000000001</ele>
        <time>2013-07-15T14:48:08Z</time>
      </trkpt>
      <trkpt lat="50.689454069361091" lon="6.142970267683268">
        <ele>279.88</ele>
        <time>2013-07-15T14:48:21Z</time>
      </trkpt>
      <trkpt lat="50.689470497891307" lon="6.142961466684938">
        <ele>279.88</ele>
        <time>2013-07-15T14:48:23Z</time>
      </trkpt>
      <trkpt lat="50.689616091549397" lon="6.142885442823172">
        <ele>277.48000000000002</ele>
        <time>2013-07-15T14:48:35Z</time>
      </trkpt>
      <trkpt lat="50.689742909744382" lon="6.142754014581442">
        <ele>275.06999999999999</ele>
        <time>2013-07-15T14:48:48Z</time>
      </trkpt>
      <trkpt lat="50.68990065716207" lon="6.142565589398146">
        <ele>273.14999999999998</ele>
        <time>2013-07-15T14:49:03Z</time>
      </trkpt>
      <trkpt lat="50.690026134252548" lon="6.142508257180452">
        <ele>272.19</ele>
        <time>2013-07-15T14:49:13Z</time>
      </trkpt>
      <trkpt lat="50.690036192536354" lon="6.142490152269602">
        <ele>271.70999999999998</ele>
        <time>2013-07-15T14:49:14Z</time>
      </trkpt>
      <trkpt lat="50.690151695162058" lon="6.142331650480628">
        <ele>270.75</ele>
        <time>2013-07-15T14:49:27Z</time>
      </trkpt>
      <trkpt lat="50.690277088433504" lon="6.142177591100335">
        <ele>269.79000000000002</ele>
        <time>2013-07-15T14:49:40Z</time>
      </trkpt>
      <trkpt lat="50.690377168357372" lon="6.14200534299016">
        <ele>268.35000000000002</ele>
        <time>2013-07-15T14:49:52Z</time>
      </trkpt>
      <trkpt lat="50.690409690141678" lon="6.141941472887993">
        <ele>268.35000000000002</ele>
        <time>2013-07-15T14:49:56Z</time>
      </trkpt>
      <trkpt lat="50.690416395664215" lon="6.141914986073971">
        <ele>267.38</ele>
        <time>2013-07-15T14:49:57Z</time>
      </trkpt>
      <trkpt lat="50.690422346815467" lon="6.141894366592169">
        <ele>267.38</ele>
        <time>2013-07-15T14:49:58Z</time>
      </trkpt>
      <trkpt lat="50.690477667376399" lon="6.141652464866638">
        <ele>265.94</ele>
        <time>2013-07-15T14:50:15Z</time>
      </trkpt>
      <trkpt lat="50.690522259101272" lon="6.141445348039269">
        <ele>264.98000000000002</ele>
        <time>2013-07-15T14:50:26Z</time>
      </trkpt>
      <trkpt lat="50.690534496679902" lon="6.141250720247626">
        <ele>264.98000000000002</ele>
        <time>2013-07-15T14:50:37Z</time>
      </trkpt>
      <trkpt lat="50.690535251051188" lon="6.141228256747127">
        <ele>264.98000000000002</ele>
        <time>2013-07-15T14:50:38Z</time>
      </trkpt>
      <trkpt lat="50.69053583778441" lon="6.141080316156149">
        <ele>264.5</ele>
        <time>2013-07-15T14:50:46Z</time>
      </trkpt>
      <trkpt lat="50.690635498613119" lon="6.140875965356827">
        <ele>264.01999999999998</ele>
        <time>2013-07-15T14:50:58Z</time>
      </trkpt>
      <trkpt lat="50.690684029832482" lon="6.14079549908638">
        <ele>264.01999999999998</ele>
        <time>2013-07-15T14:51:05Z</time>
      </trkpt>
      <trkpt lat="50.69069760851562" lon="6.140784686431289">
        <ele>264.01999999999998</ele>
        <time>2013-07-15T14:51:06Z</time>
      </trkpt>
      <trkpt lat="50.690715461969376" lon="6.1407754663378">
        <ele>264.01999999999998</ele>
        <time>2013-07-15T14:51:07Z</time>
      </trkpt>
      <trkpt lat="50.690731052309275" lon="6.140769934281707">
        <ele>264.01999999999998</ele>
        <time>2013-07-15T14:51:08Z</time>
      </trkpt>
      <trkpt lat="50.690741194412112" lon="6.140762642025948">
        <ele>264.01999999999998</ele>
        <time>2013-07-15T14:51:09Z</time>
      </trkpt>
      <trkpt lat="50.690751755610108" lon="6.140754176303744">
        <ele>264.01999999999998</ele>
        <time>2013-07-15T14:51:10Z</time>
      </trkpt>
      <trkpt lat="50.690763490274549" lon="6.140745626762509">
        <ele>264.01999999999998</ele>
        <time>2013-07-15T14:51:11Z</time>
      </trkpt>
      <trkpt lat="50.690774722024798" lon="6.140737496316433">
        <ele>264.01999999999998</ele>
        <time>2013-07-15T14:51:12Z</time>
      </trkpt>
      <trkpt lat="50.690876143053174" lon="6.140625262632966">
        <ele>264.01999999999998</ele>
        <time>2013-07-15T14:51:21Z</time>
      </trkpt>
      <trkpt lat="50.69100153632462" lon="6.140545047819614">
        <ele>263.54000000000002</ele>
        <time>2013-07-15T14:51:33Z</time>
      </trkpt>
      <trkpt lat="50.691117374226451" lon="6.140435496345162">
        <ele>263.54000000000002</ele>
        <time>2013-07-15T14:51:42Z</time>
      </trkpt>
      <trkpt lat="50.691221896559" lon="6.14030783995986">
        <ele>263.54000000000002</ele>
        <time>2013-07-15T14:51:54Z</time>
      </trkpt>
      <trkpt lat="50.691324071958661" lon="6.14019887521863">
        <ele>263.54000000000002</ele>
        <time>2013-07-15T14:52:04Z</time>
      </trkpt>
      <trkpt lat="50.691386349499226" lon="6.140146153047681">
        <ele>263.54000000000002</ele>
        <time>2013-07-15T14:52:08Z</time>
      </trkpt>
      <trkpt lat="50.691435970366001" lon="6.140093598514795">
        <ele>263.06</ele>
        <time>2013-07-15T14:52:15Z</time>
      </trkpt>
      <trkpt lat="50.691579971462488" lon="6.139976670965552">
        <ele>263.06</ele>
        <time>2013-07-15T14:52:27Z</time>
      </trkpt>
      <trkpt lat="50.691723134368658" lon="6.139846248552203">
        <ele>264.5</ele>
        <time>2013-07-15T14:52:43Z</time>
      </trkpt>
      <trkpt lat="50.691854730248451" lon="6.139713730663061">
        <ele>264.5</ele>
        <time>2013-07-15T14:52:54Z</time>
      </trkpt>
      <trkpt lat="50.69197635166347" lon="6.139626139774919">
        <ele>264.01999999999998</ele>
        <time>2013-07-15T14:53:05Z</time>
      </trkpt>
      <trkpt lat="50.692098559811711" lon="6.139553803950548">
        <ele>264.5</ele>
        <time>2013-07-15T14:53:16Z</time>
      </trkpt>
      <trkpt lat="50.692137200385332" lon="6.139499992132187">
        <ele>264.98000000000002</ele>
        <time>2013-07-15T14:53:22Z</time>
      </trkpt>
      <trkpt lat="50.692150359973311" lon="6.139479037374258">
        <ele>265.45999999999998</ele>
        <time>2013-07-15T14:53:23Z</time>
      </trkpt>
      <trkpt lat="50.692191766574979" lon="6.139392200857401">
        <ele>266.42000000000002</ele>
        <time>2013-07-15T14:53:32Z</time>
      </trkpt>
      <trkpt lat="50.692192185670137" lon="6.139367474243045">
        <ele>266.42000000000002</ele>
        <time>2013-07-15T14:53:34Z</time>
      </trkpt>
      <trkpt lat="50.692190006375313" lon="6.139344340190291">
        <ele>266.42000000000002</ele>
        <time>2013-07-15T14:53:35Z</time>
      </trkpt>
      <trkpt lat="50.692184055224061" lon="6.13932128995657">
        <ele>266.42000000000002</ele>
        <time>2013-07-15T14:53:36Z</time>
      </trkpt>
      <trkpt lat="50.692132087424397" lon="6.139240572229028">
        <ele>266.89999999999998</ele>
        <time>2013-07-15T14:53:45Z</time>
      </trkpt>
      <trkpt lat="50.692007951438427" lon="6.139139151200652">
        <ele>267.86000000000001</ele>
        <time>2013-07-15T14:53:57Z</time>
      </trkpt>
      <trkpt lat="50.691991774365306" lon="6.139133786782622">
        <ele>267.86000000000001</ele>
        <time>2013-07-15T14:54:00Z</time>
      </trkpt>
      <trkpt lat="50.691891442984343" lon="6.139013171195984">
        <ele>267.86000000000001</ele>
        <time>2013-07-15T14:54:11Z</time>
      </trkpt>
      <trkpt lat="50.691775437444448" lon="6.138882078230381">
        <ele>268.35000000000002</ele>
        <time>2013-07-15T14:54:24Z</time>
      </trkpt>
      <trkpt lat="50.691704610362649" lon="6.138755930587649">
        <ele>268.35000000000002</ele>
        <time>2013-07-15T14:54:35Z</time>
      </trkpt>
      <trkpt lat="50.69160545244813" lon="6.138668842613697">
        <ele>268.82999999999998</ele>
        <time>2013-07-15T14:54:45Z</time>
      </trkpt>
      <trkpt lat="50.691495817154646" lon="6.138501456007361">
        <ele>268.82999999999998</ele>
        <time>2013-07-15T14:54:56Z</time>
      </trkpt>
      <trkpt lat="50.691488776355982" lon="6.138493912294507">
        <ele>269.79000000000002</ele>
        <time>2013-07-15T14:54:57Z</time>
      </trkpt>
      <trkpt lat="50.691329520195723" lon="6.13826684653759">
        <ele>269.79000000000002</ele>
        <time>2013-07-15T14:55:17Z</time>
      </trkpt>
      <trkpt lat="50.691199349239469" lon="6.138077499344945">
        <ele>270.26999999999998</ele>
        <time>2013-07-15T14:55:30Z</time>
      </trkpt>
      <trkpt lat="50.691094826906919" lon="6.13795361481607">
        <ele>270.75</ele>
        <time>2013-07-15T14:55:41Z</time>
      </trkpt>
      <trkpt lat="50.691072950139642" lon="6.137933079153299">
        <ele>270.75</ele>
        <time>2013-07-15T14:55:45Z</time>
      </trkpt>
      <trkpt lat="50.690967002883554" lon="6.137781534343958">
        <ele>271.23000000000002</ele>
        <time>2013-07-15T14:55:56Z</time>
      </trkpt>
      <trkpt lat="50.690983012318611" lon="6.137618171051145">
        <ele>271.70999999999998</ele>
        <time>2013-07-15T14:56:04Z</time>
      </trkpt>
      <trkpt lat="50.691052079200745" lon="6.137484814971685">
        <ele>273.14999999999998</ele>
        <time>2013-07-15T14:56:15Z</time>
      </trkpt>
      <trkpt lat="50.691113518550992" lon="6.137341568246484">
        <ele>275.06999999999999</ele>
        <time>2013-07-15T14:56:26Z</time>
      </trkpt>
      <trkpt lat="50.691122151911259" lon="6.137308459728956">
        <ele>275.06999999999999</ele>
        <time>2013-07-15T14:56:29Z</time>
      </trkpt>
      <trkpt lat="50.691143861040473" lon="6.137286918237805">
        <ele>276.04000000000002</ele>
        <time>2013-07-15T14:56:39Z</time>
      </trkpt>
      <trkpt lat="50.691149644553661" lon="6.137281050905585">
        <ele>276.04000000000002</ele>
        <time>2013-07-15T14:56:41Z</time>
      </trkpt>
      <trkpt lat="50.691149309277534" lon="6.137268226593733">
        <ele>276.04000000000002</ele>
        <time>2013-07-15T14:56:51Z</time>
      </trkpt>
      <trkpt lat="50.691162971779704" lon="6.137252384796739">
        <ele>276.51999999999998</ele>
        <time>2013-07-15T14:57:05Z</time>
      </trkpt>
      <trkpt lat="50.69118526764214" lon="6.137211816385388">
        <ele>276.51999999999998</ele>
        <time>2013-07-15T14:57:09Z</time>
      </trkpt>
      <trkpt lat="50.691257854923606" lon="6.137024816125631">
        <ele>277.95999999999998</ele>
        <time>2013-07-15T14:57:24Z</time>
      </trkpt>
      <trkpt lat="50.691318539902568" lon="6.136852819472551">
        <ele>278.92000000000002</ele>
        <time>2013-07-15T14:57:38Z</time>
      </trkpt>
      <trkpt lat="50.691350977867842" lon="6.136793391779065">
        <ele>279.39999999999998</ele>
        <time>2013-07-15T14:57:42Z</time>
      </trkpt>
      <trkpt lat="50.691400598734617" lon="6.136734383180738">
        <ele>279.39999999999998</ele>
        <time>2013-07-15T14:57:47Z</time>
      </trkpt>
      <trkpt lat="50.691497744992375" lon="6.136475130915642">
        <ele>279.88</ele>
        <time>2013-07-15T14:58:03Z</time>
      </trkpt>
      <trkpt lat="50.691584665328264" lon="6.136181177571416">
        <ele>280.83999999999997</ele>
        <time>2013-07-15T14:58:19Z</time>
      </trkpt>
      <trkpt lat="50.691613666713238" lon="6.135954698547721">
        <ele>281.31999999999999</ele>
        <time>2013-07-15T14:58:34Z</time>
      </trkpt>
      <trkpt lat="50.691475700587034" lon="6.135745737701654">
        <ele>281.80000000000001</ele>
        <time>2013-07-15T14:58:51Z</time>
      </trkpt>
      <trkpt lat="50.691306889057159" lon="6.13571715541184">
        <ele>281.31999999999999</ele>
        <time>2013-07-15T14:59:07Z</time>
      </trkpt>
      <trkpt lat="50.691138999536633" lon="6.135621266439557">
        <ele>281.31999999999999</ele>
        <time>2013-07-15T14:59:22Z</time>
      </trkpt>
      <trkpt lat="50.690942024812102" lon="6.135515486821532">
        <ele>281.31999999999999</ele>
        <time>2013-07-15T14:59:39Z</time>
      </trkpt>
      <trkpt lat="50.690855607390404" lon="6.1353859025985">
        <ele>282.27999999999997</ele>
        <time>2013-07-15T14:59:50Z</time>
      </trkpt>
      <trkpt lat="50.690761981531978" lon="6.135239638388157">
        <ele>282.76999999999998</ele>
        <time>2013-07-15T15:00:04Z</time>
      </trkpt>
      <trkpt lat="50.69066877476871" lon="6.135046100243926">
        <ele>283.73000000000002</ele>
        <time>2013-07-15T15:00:18Z</time>
      </trkpt>
      <trkpt lat="50.690575903281569" lon="6.134799504652619">
        <ele>284.20999999999998</ele>
        <time>2013-07-15T15:00:33Z</time>
      </trkpt>
      <trkpt lat="50.690469201654196" lon="6.134548466652632">
        <ele>284.69</ele>
        <time>2013-07-15T15:00:47Z</time>
      </trkpt>
      <trkpt lat="50.690366690978408" lon="6.134367752820253">
        <ele>285.17000000000002</ele>
        <time>2013-07-15T15:01:01Z</time>
      </trkpt>
      <trkpt lat="50.690292008221149" lon="6.134344870224595">
        <ele>283.73000000000002</ele>
        <time>2013-07-15T15:01:09Z</time>
      </trkpt>
      <trkpt lat="50.690209278836846" lon="6.134171448647976">
        <ele>283.25</ele>
        <time>2013-07-15T15:01:22Z</time>
      </trkpt>
      <trkpt lat="50.690146246924996" lon="6.133929714560509">
        <ele>282.76999999999998</ele>
        <time>2013-07-15T15:01:37Z</time>
      </trkpt>
      <trkpt lat="50.690032839775085" lon="6.133812870830298">
        <ele>282.27999999999997</ele>
        <time>2013-07-15T15:01:52Z</time>
      </trkpt>
      <trkpt lat="50.689906105399132" lon="6.13366886973381">
        <ele>281.31999999999999</ele>
        <time>2013-07-15T15:02:04Z</time>
      </trkpt>
      <trkpt lat="50.689859502017498" lon="6.133626205846667">
        <ele>282.27999999999997</ele>
        <time>2013-07-15T15:02:09Z</time>
      </trkpt>
      <trkpt lat="50.689744921401143" lon="6.13354523666203">
        <ele>282.76999999999998</ele>
        <time>2013-07-15T15:02:21Z</time>
      </trkpt>
      <trkpt lat="50.68966462276876" lon="6.133435433730483">
        <ele>283.25</ele>
        <time>2013-07-15T15:02:31Z</time>
      </trkpt>
      <trkpt lat="50.689536379650235" lon="6.133196046575904">
        <ele>283.25</ele>
        <time>2013-07-15T15:02:47Z</time>
      </trkpt>
      <trkpt lat="50.689515424892306" lon="6.133148018270731">
        <ele>283.25</ele>
        <time>2013-07-15T15:02:50Z</time>
      </trkpt>
      <trkpt lat="50.689210742712021" lon="6.1326764523983">
        <ele>283.73000000000002</ele>
        <time>2013-07-15T15:03:01Z</time>
      </trkpt>
      <trkpt lat="50.689127678051591" lon="6.132543431594968">
        <ele>283.73000000000002</ele>
        <time>2013-07-15T15:03:06Z</time>
      </trkpt>
      <trkpt lat="50.688997004181147" lon="6.132320808246732">
        <ele>282.76999999999998</ele>
        <time>2013-07-15T15:03:15Z</time>
      </trkpt>
      <trkpt lat="50.688839172944427" lon="6.132115619257093">
        <ele>281.80000000000001</ele>
        <time>2013-07-15T15:03:28Z</time>
      </trkpt>
      <trkpt lat="50.688712270930409" lon="6.13193666562438">
        <ele>279.88</ele>
        <time>2013-07-15T15:03:43Z</time>
      </trkpt>
      <trkpt lat="50.688677569851279" lon="6.131832813844085">
        <ele>278.92000000000002</ele>
        <time>2013-07-15T15:03:50Z</time>
      </trkpt>
      <trkpt lat="50.688624093309045" lon="6.131670037284493">
        <ele>277.48000000000002</ele>
        <time>2013-07-15T15:04:02Z</time>
      </trkpt>
      <trkpt lat="50.688561983406544" lon="6.131545817479491">
        <ele>277</ele>
        <time>2013-07-15T15:04:11Z</time>
      </trkpt>
      <trkpt lat="50.688465340062976" lon="6.131393099203706">
        <ele>277</ele>
        <time>2013-07-15T15:04:26Z</time>
      </trkpt>
      <trkpt lat="50.688420245423913" lon="6.131325457245112">
        <ele>278.44</ele>
        <time>2013-07-15T15:04:34Z</time>
      </trkpt>
      <trkpt lat="50.688344724476337" lon="6.131250020116568">
        <ele>280.83999999999997</ele>
        <time>2013-07-15T15:04:47Z</time>
      </trkpt>
      <trkpt lat="50.688212709501386" lon="6.131125632673502">
        <ele>283.25</ele>
        <time>2013-07-15T15:05:01Z</time>
      </trkpt>
      <trkpt lat="50.688180355355144" lon="6.131069893017411">
        <ele>283.25</ele>
        <time>2013-07-15T15:05:05Z</time>
      </trkpt>
      <trkpt lat="50.688175577670336" lon="6.130958748981357">
        <ele>283.73000000000002</ele>
        <time>2013-07-15T15:05:11Z</time>
      </trkpt>
      <trkpt lat="50.688169123604894" lon="6.130659431219101">
        <ele>284.69</ele>
        <time>2013-07-15T15:05:26Z</time>
      </trkpt>
      <trkpt lat="50.688124615699053" lon="6.130366232246161">
        <ele>285.64999999999998</ele>
        <time>2013-07-15T15:05:42Z</time>
      </trkpt>
      <trkpt lat="50.688078431412578" lon="6.130189709365368">
        <ele>287.08999999999997</ele>
        <time>2013-07-15T15:05:54Z</time>
      </trkpt>
      <trkpt lat="50.687943734228611" lon="6.130136651918292">
        <ele>287.08999999999997</ele>
        <time>2013-07-15T15:06:08Z</time>
      </trkpt>
      <trkpt lat="50.68774675950408" lon="6.130076972767711">
        <ele>287.56999999999999</ele>
        <time>2013-07-15T15:06:22Z</time>
      </trkpt>
      <trkpt lat="50.687714070081711" lon="6.129829371348023">
        <ele>287.56999999999999</ele>
        <time>2013-07-15T15:06:37Z</time>
      </trkpt>
      <trkpt lat="50.687711220234632" lon="6.129529466852546">
        <ele>288.52999999999997</ele>
        <time>2013-07-15T15:06:54Z</time>
      </trkpt>
      <trkpt lat="50.687697390094399" lon="6.129275914281607">
        <ele>289.00999999999999</ele>
        <time>2013-07-15T15:07:08Z</time>
      </trkpt>
      <trkpt lat="50.687690684571862" lon="6.129024624824524">
        <ele>289.00999999999999</ele>
        <time>2013-07-15T15:07:21Z</time>
      </trkpt>
      <trkpt lat="50.687690349295735" lon="6.128729917109013">
        <ele>289.00999999999999</ele>
        <time>2013-07-15T15:07:35Z</time>
      </trkpt>
      <trkpt lat="50.687638884410262" lon="6.128389025107026">
        <ele>288.05000000000001</ele>
        <time>2013-07-15T15:07:52Z</time>
      </trkpt>
      <trkpt lat="50.68760703317821" lon="6.128213508054614">
        <ele>287.56999999999999</ele>
        <time>2013-07-15T15:08:02Z</time>
      </trkpt>
      <trkpt lat="50.687574679031968" lon="6.127994572743774">
        <ele>286.61000000000001</ele>
        <time>2013-07-15T15:08:16Z</time>
      </trkpt>
      <trkpt lat="50.687578534707427" lon="6.127748899161816">
        <ele>287.08999999999997</ele>
        <time>2013-07-15T15:08:28Z</time>
      </trkpt>
      <trkpt lat="50.687602590769529" lon="6.127443546429277">
        <ele>287.08999999999997</ele>
        <time>2013-07-15T15:08:43Z</time>
      </trkpt>
      <trkpt lat="50.687643997371197" lon="6.127333492040634">
        <ele>288.52999999999997</ele>
        <time>2013-07-15T15:08:50Z</time>
      </trkpt>
      <trkpt lat="50.687669813632965" lon="6.127245984971523">
        <ele>289.00999999999999</ele>
        <time>2013-07-15T15:09:04Z</time>
      </trkpt>
      <trkpt lat="50.687567722052336" lon="6.127180689945817">
        <ele>289.00999999999999</ele>
        <time>2013-07-15T15:09:21Z</time>
      </trkpt>
      <trkpt lat="50.68749463185668" lon="6.127049680799246">
        <ele>289.00999999999999</ele>
        <time>2013-07-15T15:09:35Z</time>
      </trkpt>
      <trkpt lat="50.68752933293581" lon="6.126767797395587">
        <ele>289.49000000000001</ele>
        <time>2013-07-15T15:09:51Z</time>
      </trkpt>
      <trkpt lat="50.687558082863688" lon="6.12668490037322">
        <ele>289.49000000000001</ele>
        <time>2013-07-15T15:09:56Z</time>
      </trkpt>
      <trkpt lat="50.687570907175541" lon="6.126322550699115">
        <ele>290.94</ele>
        <time>2013-07-15T15:10:14Z</time>
      </trkpt>
      <trkpt lat="50.687621952965856" lon="6.126117445528507">
        <ele>291.42000000000002</ele>
        <time>2013-07-15T15:10:27Z</time>
      </trkpt>
      <trkpt lat="50.687641398981214" lon="6.125967409461737">
        <ele>291.42000000000002</ele>
        <time>2013-07-15T15:10:38Z</time>
      </trkpt>
      <trkpt lat="50.687670400366187" lon="6.125798346474767">
        <ele>291.42000000000002</ele>
        <time>2013-07-15T15:10:50Z</time>
      </trkpt>
      <trkpt lat="50.68767786026001" lon="6.125787450000644">
        <ele>291.42000000000002</ele>
        <time>2013-07-15T15:10:51Z</time>
      </trkpt>
      <trkpt lat="50.687841475009918" lon="6.125627942383289">
        <ele>291.42000000000002</ele>
        <time>2013-07-15T15:11:09Z</time>
      </trkpt>
      <trkpt lat="50.687868632376194" lon="6.125588715076447">
        <ele>291.42000000000002</ele>
        <time>2013-07-15T15:11:13Z</time>
      </trkpt>
      <trkpt lat="50.68790995515883" lon="6.12553951330483">
        <ele>291.42000000000002</ele>
        <time>2013-07-15T15:11:18Z</time>
      </trkpt>
      <trkpt lat="50.688048340380192" lon="6.125572370365262">
        <ele>291.42000000000002</ele>
        <time>2013-07-15T15:11:32Z</time>
      </trkpt>
      <trkpt lat="50.688190329819918" lon="6.12556935288012">
        <ele>291.42000000000002</ele>
        <time>2013-07-15T15:11:47Z</time>
      </trkpt>
      <trkpt lat="50.688318237662315" lon="6.125380005687475">
        <ele>290.45999999999998</ele>
        <time>2013-07-15T15:12:02Z</time>
      </trkpt>
      <trkpt lat="50.688409013673663" lon="6.125205075368285">
        <ele>289.97000000000003</ele>
        <time>2013-07-15T15:12:17Z</time>
      </trkpt>
      <trkpt lat="50.688517894595861" lon="6.125028636306524">
        <ele>289.00999999999999</ele>
        <time>2013-07-15T15:12:30Z</time>
      </trkpt>
      <trkpt lat="50.688583943992853" lon="6.124929394572973">
        <ele>289.00999999999999</ele>
        <time>2013-07-15T15:12:39Z</time>
      </trkpt>
      <trkpt lat="50.688685784116387" lon="6.12463996745646">
        <ele>289.00999999999999</ele>
        <time>2013-07-15T15:12:55Z</time>
      </trkpt>
      <trkpt lat="50.688803298398852" lon="6.124362275004387">
        <ele>288.52999999999997</ele>
        <time>2013-07-15T15:13:10Z</time>
      </trkpt>
      <trkpt lat="50.688864402472973" lon="6.12404091283679">
        <ele>288.05000000000001</ele>
        <time>2013-07-15T15:13:25Z</time>
      </trkpt>
      <trkpt lat="50.688911257311702" lon="6.123900096863508">
        <ele>288.05000000000001</ele>
        <time>2013-07-15T15:13:32Z</time>
      </trkpt>
      <trkpt lat="50.689070764929056" lon="6.12354495562613">
        <ele>287.08999999999997</ele>
        <time>2013-07-15T15:13:53Z</time>
      </trkpt>
      <trkpt lat="50.689135976135731" lon="6.12344965338707">
        <ele>286.61000000000001</ele>
        <time>2013-07-15T15:14:01Z</time>
      </trkpt>
      <trkpt lat="50.689414506778121" lon="6.12316575832665">
        <ele>285.17000000000002</ele>
        <time>2013-07-15T15:14:14Z</time>
      </trkpt>
      <trkpt lat="50.68981172516942" lon="6.122757559642196">
        <ele>283.25</ele>
        <time>2013-07-15T15:14:27Z</time>
      </trkpt>
      <trkpt lat="50.689902249723673" lon="6.122658653184772">
        <ele>283.25</ele>
        <time>2013-07-15T15:14:29Z</time>
      </trkpt>
      <trkpt lat="50.690044742077589" lon="6.122496044263244">
        <ele>283.25</ele>
        <time>2013-07-15T15:14:32Z</time>
      </trkpt>
      <trkpt lat="50.690187234431505" lon="6.122164791449904">
        <ele>285.17000000000002</ele>
        <time>2013-07-15T15:14:37Z</time>
      </trkpt>
      <trkpt lat="50.690210033208132" lon="6.122013665735722">
        <ele>285.64999999999998</ele>
        <time>2013-07-15T15:14:39Z</time>
      </trkpt>
      <trkpt lat="50.690261330455542" lon="6.121386531740427">
        <ele>286.61000000000001</ele>
        <time>2013-07-15T15:14:51Z</time>
      </trkpt>
      <trkpt lat="50.690269125625491" lon="6.121370438486338">
        <ele>286.61000000000001</ele>
        <time>2013-07-15T15:14:52Z</time>
      </trkpt>
      <trkpt lat="50.690266527235508" lon="6.121279830113053">
        <ele>287.08999999999997</ele>
        <time>2013-07-15T15:15:00Z</time>
      </trkpt>
      <trkpt lat="50.69020944647491" lon="6.121255941689014">
        <ele>287.08999999999997</ele>
        <time>2013-07-15T15:15:05Z</time>
      </trkpt>
      <trkpt lat="50.689977603033185" lon="6.121171955019236">
        <ele>285.64999999999998</ele>
        <time>2013-07-15T15:15:24Z</time>
      </trkpt>
      <trkpt lat="50.689700664952397" lon="6.120925275608897">
        <ele>284.69</ele>
        <time>2013-07-15T15:15:35Z</time>
      </trkpt>
      <trkpt lat="50.689600668847561" lon="6.120806084945798">
        <ele>284.69</ele>
        <time>2013-07-15T15:15:37Z</time>
      </trkpt>
      <trkpt lat="50.689464882016182" lon="6.120564937591553">
        <ele>283.25</ele>
        <time>2013-07-15T15:15:40Z</time>
      </trkpt>
      <trkpt lat="50.689223650842905" lon="6.119944006204605">
        <ele>284.20999999999998</ele>
        <time>2013-07-15T15:15:48Z</time>
      </trkpt>
      <trkpt lat="50.688939755782485" lon="6.119379568845034">
        <ele>284.20999999999998</ele>
        <time>2013-07-15T15:15:59Z</time>
      </trkpt>
      <trkpt lat="50.688925003632903" lon="6.119354674592614">
        <ele>282.76999999999998</ele>
        <time>2013-07-15T15:16:01Z</time>
      </trkpt>
      <trkpt lat="50.688834143802524" lon="6.119123920798302">
        <ele>281.80000000000001</ele>
        <time>2013-07-15T15:16:17Z</time>
      </trkpt>
      <trkpt lat="50.688768597319722" lon="6.118816640228033">
        <ele>279.88</ele>
        <time>2013-07-15T15:16:34Z</time>
      </trkpt>
      <trkpt lat="50.68873381242156" lon="6.118449429050088">
        <ele>279.39999999999998</ele>
        <time>2013-07-15T15:16:52Z</time>
      </trkpt>
      <trkpt lat="50.688664745539427" lon="6.118046510964632">
        <ele>279.39999999999998</ele>
        <time>2013-07-15T15:17:12Z</time>
      </trkpt>
      <trkpt lat="50.688582770526409" lon="6.117736967280507">
        <ele>279.39999999999998</ele>
        <time>2013-07-15T15:17:29Z</time>
      </trkpt>
      <trkpt lat="50.688535077497363" lon="6.117525240406394">
        <ele>280.83999999999997</ele>
        <time>2013-07-15T15:17:41Z</time>
      </trkpt>
      <trkpt lat="50.688447402790189" lon="6.117256348952651">
        <ele>281.31999999999999</ele>
        <time>2013-07-15T15:17:56Z</time>
      </trkpt>
      <trkpt lat="50.688345227390528" lon="6.116962730884552">
        <ele>281.80000000000001</ele>
        <time>2013-07-15T15:18:12Z</time>
      </trkpt>
      <trkpt lat="50.688230814412236" lon="6.116657294332981">
        <ele>283.25</ele>
        <time>2013-07-15T15:18:32Z</time>
      </trkpt>
      <trkpt lat="50.688132159411907" lon="6.116419835016131">
        <ele>284.20999999999998</ele>
        <time>2013-07-15T15:18:49Z</time>
      </trkpt>
      <trkpt lat="50.688014226034284" lon="6.116167204454541">
        <ele>285.17000000000002</ele>
        <time>2013-07-15T15:19:05Z</time>
      </trkpt>
      <trkpt lat="50.687918672338128" lon="6.115917591378093">
        <ele>285.64999999999998</ele>
        <time>2013-07-15T15:19:20Z</time>
      </trkpt>
      <trkpt lat="50.687912469729781" lon="6.115904096513987">
        <ele>285.64999999999998</ele>
        <time>2013-07-15T15:19:21Z</time>
      </trkpt>
      <trkpt lat="50.687782298773527" lon="6.11561693251133">
        <ele>285.64999999999998</ele>
        <time>2013-07-15T15:19:39Z</time>
      </trkpt>
      <trkpt lat="50.687656737864017" lon="6.115335635840893">
        <ele>285.64999999999998</ele>
        <time>2013-07-15T15:19:56Z</time>
      </trkpt>
      <trkpt lat="50.687551964074373" lon="6.115071102976799">
        <ele>285.64999999999998</ele>
        <time>2013-07-15T15:20:13Z</time>
      </trkpt>
      <trkpt lat="50.687425564974546" lon="6.114735491573811">
        <ele>285.64999999999998</ele>
        <time>2013-07-15T15:20:34Z</time>
      </trkpt>
      <trkpt lat="50.687307463958859" lon="6.114431144669652">
        <ele>285.64999999999998</ele>
        <time>2013-07-15T15:20:51Z</time>
      </trkpt>
      <trkpt lat="50.68726253695786" lon="6.11426392570138">
        <ele>284.20999999999998</ele>
        <time>2013-07-15T15:21:01Z</time>
      </trkpt>
      <trkpt lat="50.687154494225979" lon="6.113972989842296">
        <ele>284.20999999999998</ele>
        <time>2013-07-15T15:21:17Z</time>
      </trkpt>
      <trkpt lat="50.687068412080407" lon="6.113744582980871">
        <ele>284.20999999999998</ele>
        <time>2013-07-15T15:21:31Z</time>
      </trkpt>
      <trkpt lat="50.686956597492099" lon="6.113460268825293">
        <ele>283.73000000000002</ele>
        <time>2013-07-15T15:21:48Z</time>
      </trkpt>
      <trkpt lat="50.686848219484091" lon="6.113224569708109">
        <ele>283.25</ele>
        <time>2013-07-15T15:22:02Z</time>
      </trkpt>
      <trkpt lat="50.686657782644033" lon="6.112982919439673">
        <ele>283.25</ele>
        <time>2013-07-15T15:22:21Z</time>
      </trkpt>
      <trkpt lat="50.686552338302135" lon="6.11290454864502">
        <ele>282.76999999999998</ele>
        <time>2013-07-15T15:22:34Z</time>
      </trkpt>
      <trkpt lat="50.686420323327184" lon="6.112622581422329">
        <ele>281.80000000000001</ele>
        <time>2013-07-15T15:22:53Z</time>
      </trkpt>
      <trkpt lat="50.686398614197969" lon="6.112554939463735">
        <ele>281.80000000000001</ele>
        <time>2013-07-15T15:22:57Z</time>
      </trkpt>
      <trkpt lat="50.68631948903203" lon="6.112147830426693">
        <ele>280.83999999999997</ele>
        <time>2013-07-15T15:23:17Z</time>
      </trkpt>
      <trkpt lat="50.686281016096473" lon="6.111771650612354">
        <ele>280.36000000000001</ele>
        <time>2013-07-15T15:23:36Z</time>
      </trkpt>
      <trkpt lat="50.686209686100483" lon="6.111471327021718">
        <ele>280.36000000000001</ele>
        <time>2013-07-15T15:23:52Z</time>
      </trkpt>
      <trkpt lat="50.686181019991636" lon="6.111367223784328">
        <ele>279.88</ele>
        <time>2013-07-15T15:24:08Z</time>
      </trkpt>
      <trkpt lat="50.686171967536211" lon="6.111321542412043">
        <ele>279.88</ele>
        <time>2013-07-15T15:24:27Z</time>
      </trkpt>
      <trkpt lat="50.68612108938396" lon="6.11107025295496">
        <ele>279.88</ele>
        <time>2013-07-15T15:24:30Z</time>
      </trkpt>
      <trkpt lat="50.686052525416017" lon="6.110875876620412">
        <ele>281.31999999999999</ele>
        <time>2013-07-15T15:24:33Z</time>
      </trkpt>
      <trkpt lat="50.68597155623138" lon="6.110714189708233">
        <ele>279.88</ele>
        <time>2013-07-15T15:24:38Z</time>
      </trkpt>
      <trkpt lat="50.685901986435056" lon="6.110394923016429">
        <ele>279.88</ele>
        <time>2013-07-15T15:24:53Z</time>
      </trkpt>
      <trkpt lat="50.685847923159599" lon="6.110034584999085">
        <ele>279.88</ele>
        <time>2013-07-15T15:25:12Z</time>
      </trkpt>
      <trkpt lat="50.685764271765947" lon="6.10977248288691">
        <ele>279.88</ele>
        <time>2013-07-15T15:25:26Z</time>
      </trkpt>
      <trkpt lat="50.685648769140244" lon="6.109500238671899">
        <ele>279.88</ele>
        <time>2013-07-15T15:25:42Z</time>
      </trkpt>
      <trkpt lat="50.685502924025059" lon="6.109264371916652">
        <ele>279.88</ele>
        <time>2013-07-15T15:25:59Z</time>
      </trkpt>
      <trkpt lat="50.685370825231075" lon="6.109006460756064">
        <ele>279.88</ele>
        <time>2013-07-15T15:26:16Z</time>
      </trkpt>
      <trkpt lat="50.68528063595295" lon="6.108782663941383">
        <ele>281.31999999999999</ele>
        <time>2013-07-15T15:26:30Z</time>
      </trkpt>
      <trkpt lat="50.68519220687449" lon="6.108498517423868">
        <ele>281.80000000000001</ele>
        <time>2013-07-15T15:26:47Z</time>
      </trkpt>
      <trkpt lat="50.685126576572657" lon="6.108238929882646">
        <ele>282.27999999999997</ele>
        <time>2013-07-15T15:27:00Z</time>
      </trkpt>
      <trkpt lat="50.685050385072827" lon="6.108026532456279">
        <ele>282.76999999999998</ele>
        <time>2013-07-15T15:27:13Z</time>
      </trkpt>
      <trkpt lat="50.685174521058798" lon="6.107831234112382">
        <ele>283.25</ele>
        <time>2013-07-15T15:27:30Z</time>
      </trkpt>
      <trkpt lat="50.685412483289838" lon="6.107807513326407">
        <ele>285.17000000000002</ele>
        <time>2013-07-15T15:27:48Z</time>
      </trkpt>
      <trkpt lat="50.685625048354268" lon="6.107792174443603">
        <ele>285.17000000000002</ele>
        <time>2013-07-15T15:28:04Z</time>
      </trkpt>
      <trkpt lat="50.685874493792653" lon="6.107715563848615">
        <ele>285.64999999999998</ele>
        <time>2013-07-15T15:28:24Z</time>
      </trkpt>
      <trkpt lat="50.68607616238296" lon="6.107664182782173">
        <ele>286.13</ele>
        <time>2013-07-15T15:28:42Z</time>
      </trkpt>
      <trkpt lat="50.68618462421" lon="6.107661752030253">
        <ele>286.61000000000001</ele>
        <time>2013-07-15T15:28:51Z</time>
      </trkpt>
      <trkpt lat="50.686377910897136" lon="6.107640461996198">
        <ele>287.56999999999999</ele>
        <time>2013-07-15T15:29:05Z</time>
      </trkpt>
      <trkpt lat="50.686547979712486" lon="6.107601569965482">
        <ele>287.56999999999999</ele>
        <time>2013-07-15T15:29:18Z</time>
      </trkpt>
      <trkpt lat="50.686726346611977" lon="6.107452120631933">
        <ele>288.05000000000001</ele>
        <time>2013-07-15T15:29:35Z</time>
      </trkpt>
      <trkpt lat="50.686872359365225" lon="6.107221618294716">
        <ele>288.05000000000001</ele>
        <time>2013-07-15T15:29:52Z</time>
      </trkpt>
      <trkpt lat="50.68697864189744" lon="6.107063954696059">
        <ele>288.52999999999997</ele>
        <time>2013-07-15T15:30:03Z</time>
      </trkpt>
      <trkpt lat="50.687120296061039" lon="6.106832111254334">
        <ele>289.49000000000001</ele>
        <time>2013-07-15T15:30:18Z</time>
      </trkpt>
      <trkpt lat="50.687248036265373" lon="6.106640920042992">
        <ele>289.97000000000003</ele>
        <time>2013-07-15T15:30:32Z</time>
      </trkpt>
      <trkpt lat="50.687393546104431" lon="6.10644830390811">
        <ele>290.45999999999998</ele>
        <time>2013-07-15T15:30:47Z</time>
      </trkpt>
      <trkpt lat="50.687516927719116" lon="6.106261387467384">
        <ele>290.94</ele>
        <time>2013-07-15T15:31:03Z</time>
      </trkpt>
      <trkpt lat="50.687539475038648" lon="6.106306733563542">
        <ele>290.94</ele>
        <time>2013-07-15T15:31:14Z</time>
      </trkpt>
      <trkpt lat="50.687556322664022" lon="6.106332466006279">
        <ele>290.94</ele>
        <time>2013-07-15T15:31:25Z</time>
      </trkpt>
      <trkpt lat="50.687553556635976" lon="6.106339003890753">
        <ele>290.94</ele>
        <time>2013-07-15T15:31:40Z</time>
      </trkpt>
      <trkpt lat="50.687557579949498" lon="6.106315450742841">
        <ele>290.94</ele>
        <time>2013-07-15T15:31:44Z</time>
      </trkpt>
      <trkpt lat="50.68760116584599" lon="6.106263399124146">
        <ele>290.94</ele>
        <time>2013-07-15T15:31:49Z</time>
      </trkpt>
      <trkpt lat="50.687743993476033" lon="6.10624018125236">
        <ele>290.94</ele>
        <time>2013-07-15T15:32:00Z</time>
      </trkpt>
      <trkpt lat="50.68786259740591" lon="6.106230458244681">
        <ele>290.94</ele>
        <time>2013-07-15T15:32:11Z</time>
      </trkpt>
      <trkpt lat="50.687974747270346" lon="6.106215789914131">
        <ele>290.94</ele>
        <time>2013-07-15T15:32:22Z</time>
      </trkpt>
      <trkpt lat="50.688110450282693" lon="6.106216544285417">
        <ele>290.94</ele>
        <time>2013-07-15T15:32:33Z</time>
      </trkpt>
      <trkpt lat="50.688145067542791" lon="6.106245797127485">
        <ele>290.45999999999998</ele>
        <time>2013-07-15T15:32:42Z</time>
      </trkpt>
      <trkpt lat="50.6882344186306" lon="6.106222663074732">
        <ele>290.94</ele>
        <time>2013-07-15T15:32:55Z</time>
      </trkpt>
      <trkpt lat="50.688349083065987" lon="6.106221489608288">
        <ele>290.94</ele>
        <time>2013-07-15T15:33:06Z</time>
      </trkpt>
      <trkpt lat="50.688389064744115" lon="6.106235738843679">
        <ele>290.94</ele>
        <time>2013-07-15T15:33:15Z</time>
      </trkpt>
      <trkpt lat="50.688485791906714" lon="6.10619374550879">
        <ele>290.94</ele>
        <time>2013-07-15T15:33:25Z</time>
      </trkpt>
      <trkpt lat="50.688644796609879" lon="6.106197265908122">
        <ele>290.94</ele>
        <time>2013-07-15T15:33:39Z</time>
      </trkpt>
      <trkpt lat="50.688794413581491" lon="6.106192655861378">
        <ele>290.94</ele>
        <time>2013-07-15T15:33:51Z</time>
      </trkpt>
      <trkpt lat="50.68882861174643" lon="6.10620497725904">
        <ele>290.94</ele>
        <time>2013-07-15T15:33:53Z</time>
      </trkpt>
      <trkpt lat="50.688852667808533" lon="6.106264824047685">
        <ele>290.94</ele>
        <time>2013-07-15T15:33:57Z</time>
      </trkpt>
      <trkpt lat="50.688842106610537" lon="6.106463894248009">
        <ele>290.94</ele>
        <time>2013-07-15T15:34:08Z</time>
      </trkpt>
      <trkpt lat="50.688818050548434" lon="6.106525082141161">
        <ele>290.94</ele>
        <time>2013-07-15T15:34:14Z</time>
      </trkpt>
      <trkpt lat="50.688842944800854" lon="6.106489039957523">
        <ele>290.45999999999998</ele>
        <time>2013-07-15T15:47:01Z</time>
      </trkpt>
      <trkpt lat="50.688859205693007" lon="6.106359707191587">
        <ele>290.94</ele>
        <time>2013-07-15T15:47:15Z</time>
      </trkpt>
    </trkseg>
  </trk>

</gpx>